     2              OBSERVATION DATA    G (GPS)             RINEX VERSION / TYPE
ASRINEXO V2.4.4 UX USGS 20-AUG-96 14:42                     PGM / RUN BY / DATE
Crustal Strain Project                                      COMMENT
U.S. Geological Survey, Menlo Park, California 94025        COMMENT
345 Middlefield Road, MS/977                                COMMENT
Contact: kwendt@isdmnl.wr.usgs.gov (Ph: 415-329-4866)       COMMENT
HI's are vertical to base of antenna                        COMMENT
flrn                                                        MARKER NAME
JMS USGS                                                    OBSERVER / AGENCY
707 ASHTECH Z-XII3 1F00                                     REC # / TYPE / VERS
11404 ASH700718B NONE                                       ANT # / TYPE
 -2389821.0000 -4275607.0000  4074408.0000                  APPROX POSITION XYZ
        1.2702        0.0000        0.0000                  ANTENNA: DELTA H/E/N
     1     1                                                WAVELENGTH FACT L1/2
     5    C1    L1    L2    P1    P2                        # / TYPES OF OBSERV
    30                                                      INTERVAL
  1996     7    12    16    27    0.000000                  TIME OF FIRST OBS
                                                            END OF HEADER
 96  7 12 16 27  0.0000000  0  5 24  4  5  7  9
  18759510.221      -39773.11619    -21139.32559                  18759516.0174
  18671094.431       17562.09319      9606.35359                  18671098.5014
  19264236.116      -50722.26019    -26525.91559                  19264239.7874
  20959007.091       29331.85519
  19313383.362       33644.44419     19282.34459                  19313387.3864
 96  7 12 16 27 30.0000000  0  5 24  4  5  7  9
  18748778.303      -96171.29359    -65085.95749  18748778.1574   18748784.0004
  18674637.585       36179.38559     24113.31849  18674637.1824   18674641.0364
  19250715.948     -121777.94359    -81893.98249  19250714.0914   19250718.5414
  20972300.468       99194.045 9
  19320401.646       70526.55759     48021.61149  19320401.2744   19320405.7164
 96  7 12 16 28  0.0000000  0  5 24  4  5  7  9
  20836698.942     -152012.25249   -108598.38549  20836699.1624   20836704.6164
  20776835.092       55361.60649     39060.49549  20776834.4574   20776838.7974
  21335797.597     -192535.64049   -137029.82549  21335796.1404   21335801.3494
  23084155.181      169121.719 9
  21426071.718      107953.67849     77185.55349  21426070.6774   21426075.1624
 96  7 12 16 28 30.0000000  0  5 24  4  5  7  9
  20826190.414     -207239.69459   -151632.74559  20826189.7704   20826195.3994
  20780612.070       75202.28059     54520.75159  20780610.5284   20780614.3614
  21322406.496     -262916.77359   -191872.26659  21322403.4834   21322408.0664
  23097497.030      239238.622 9
  21433315.148      146013.37059    106842.41359  21433313.2184   21433318.0294
 96  7 12 16 29  0.0000000  0  5 24  4  5  7  9
  20815810.670     -261786.07949   -194136.41849  20815809.9734   20815815.4204
  20784521.082       95752.83849     70534.16749  20784520.9444   20784525.3464
  21309096.557     -332847.93649   -246364.09749  21309095.9574   21309100.7104
  23110883.422      309577.852 9     66322.34259                  23110888.5604
  21440683.578      184742.34949    137020.80749  21440683.1054   21440687.8904
 96  7 12 16 29 30.0000000  0  5 24  4  5  7  9
  20805564.463     -315628.92549   -236091.87349  20805563.8384   20805569.7464
  20788572.928      117046.31849     87126.47449  20788573.0534   20788577.2034
  21295875.073     -402327.19349   -300503.78449  21295874.4584   21295878.9314
  23124316.456      380169.50059    121328.77949  23124315.4404   23124319.8184
  21448187.998      224178.00349    167749.85449  21448187.4124   21448192.0874
 96  7 12 16 30  0.0000000  0  5 24  4  5  7  9
  20795449.252     -368783.42149   -277510.94649  20795449.1214   20795454.7284
  20792763.821      139066.07149    104284.72049  20792763.3394   20792767.2834
  21282735.475     -471378.93449   -354310.31149  21282734.4494   21282738.9184
  23137795.694      451005.66349    176525.72349  23137795.4134   23137800.8734
  21455821.300      264289.95549    199005.88149  21455820.8314   21455825.5804
 96  7 12 16 30 30.0000000  0  5 24  4  5  7  9
  20785460.683     -421276.68249   -318414.78749  20785460.1334   20785465.8194
  20797083.791      161768.90549    121975.23149  20797083.4544   20797087.5384
  21269667.243     -540049.50849   -407819.83849  21269666.9214   21269671.7614
  23151312.440      522036.47949    231874.37249  23151311.9864   23151318.3484
  21463573.433      305028.16249    230749.91149  21463572.6774   21463577.6544
 96  7 12 16 31  0.0000000  0  5 24  4  5  7  9
  20775587.941     -473157.10549   -358841.08349  20775587.4194   20775593.1684
  20801523.924      185101.42549    140156.40849  20801523.4844   20801527.6114
  21256659.875     -608407.62449   -461085.88949  21256658.5574   21256663.5744
  23164852.649      593189.95449    287318.58949  23164852.7314   23164857.5274
  21471437.953      346354.71949    262952.38349  21471437.3914   21471441.6704
 96  7 12 16 31 30.0000000  0  5 24  4  5  7  9
  20765833.437     -524418.26849   -398784.83349  20765833.1574   20765838.3834
  20806085.906      209074.65849    158836.84749  20806085.4824   20806089.6964
  21243712.157     -676447.47749   -514103.95349  21243711.3654   21243716.1174
  23178416.461      664466.07149    342858.37949  23178415.8144   23178421.3994
  21479413.852      388269.17549    295612.95649  21479413.2254   21479417.9914
 96  7 12 16 32  0.0000000  0  5 24  4  5  7  9
  20756189.541     -575098.36649   -438275.80949  20756189.0734   20756194.0424
  20810762.401      233648.92449    177985.62049  20810761.7144   20810765.9554
  21230823.080     -744180.24649   -566882.72349  21230822.0334   21230826.9564
  23191995.456      735824.24149    398462.09149  23191994.5194   23192000.5344
  21487493.369      430725.81149    328696.03149  21487492.5424   21487497.3724
 96  7 12 16 32 30.0000000  0  5 24  4  5  7  9
  20746650.939     -625222.59349   -477333.63949  20746650.7454   20746655.6824
  20815550.293      258808.57049    197590.52749  20815549.6054   20815553.8174
  21217994.121     -811596.82849   -619415.12049  21217993.1724   21217997.9714
  23205589.285      807261.28349    454127.25249  23205588.4664   23205594.3054
  21495674.197      473717.42349    362195.95449  21495673.6034   21495678.1874
 96  7 12 16 33  0.0000000  0  5 24  4  5  7  9
  20737216.652     -674802.61749   -515967.41549  20737215.9454   20737220.9064
  20820450.255      284559.51849    217656.19549  20820449.9214   20820454.5834
  21205229.200     -878677.03849   -671685.41249  21205228.4674   21205232.8904
  23219199.217      878783.16649    509858.53249  23219199.2874   23219204.7814
  21503955.947      517237.37049    396107.56549  21503955.2624   21503960.0124
 96  7 12 16 33 30.0000000  0  5 24  4  5  7  9
  20727878.607     -723870.81449   -554202.36849  20727878.2894   20727883.6834
  20825456.884      310870.48049    238158.22849  20825456.3454   20825461.0344
  21192523.539     -945444.30849   -723711.85849  21192523.0914   21192527.3784
  23232823.369      950376.95149    565645.83349  23232822.1324   23232827.5344
  21512329.261      561239.20149    430394.66849  21512328.6944   21512333.0244
 96  7 12 16 34  0.0000000  0  5 24  4  5  7  9
  20718632.729     -772459.46449   -592063.65549  20718632.3854   20718637.5894
  20830563.384      337705.84049    259068.88749  20830563.2964   20830567.1624
  21179873.465    -1011920.83849   -775511.74849  21179872.8504   21179877.4794
  23246457.531     1022023.63349    621474.33049  23246456.2374   23246461.8034
  21520787.964      605693.03549    465033.98249  21520788.0664   21520792.5234
 96  7 12 16 34 30.0000000  0  5 24  4  5  7  9
  20709477.132     -820571.54849   -629553.58449  20709476.8604   20709482.2144
  20835767.861      365055.73449    280380.48549  20835767.8624   20835772.1914
  21167274.958    -1078126.96149   -827100.93449  21167274.2314   21167278.9934
  23260100.548     1093715.64349    677338.16849  23260099.5844   23260105.2934
  21529334.000      650600.29549    500026.61549  21529333.3474   21529338.4314
 96  7 12 16 35  0.0000000  0  5 24  4  5  7  9
  20700406.874     -868235.94449   -666694.67049  20700406.9444   20700412.0604
  20841064.084      392887.58849    302067.63249  20841063.9194   20841068.1094
  21154716.599    -1144119.88049   -878523.98049  21154716.1504   21154720.8194
  23273744.214     1165418.32349    733210.34849  23273743.7694   23273749.2184
  21537960.279      695932.63549    535350.46649  21537959.8494   21537964.9044
 96  7 12 16 35 30.0000000  0  5 24  4  5  7  9
  20691417.698     -915473.33349   -703503.01549  20691417.8934   20691423.2304
  20846445.985      421169.96849    324105.84049  20846445.9094   20846450.3444
  21142192.088    -1209936.97349   -929810.02549  21142191.6504   21142196.0614
  23287388.875     1237120.27149    789081.91749  23287387.7934   23287394.2464
  21546668.191      741692.97049    571007.82949  21546667.6274   21546672.6354
 96  7 12 16 35 59.9990000  0  5 24  4  5  7  9
  20682512.332     -962271.49049   -739969.11149  20682512.4314   20682518.0504
  20851913.906      449903.30449    346495.43749  20851913.8624   20851918.2184
  21129705.305    -1275555.41249   -980941.27549  21129704.4894   21129709.7734
  23301032.978     1308818.96749    844950.95349  23301031.3424   23301038.0964
  21555462.704      787906.09549    607018.01049  21555461.9984   21555466.5744
 96  7 12 16 36 29.9990000  0  5 24  4  5  7  9
  20673689.355    -1008637.23249   -776098.26249  20673689.5184   20673694.8384
  20857465.716      479076.87349    369228.07949  20857465.5894   20857469.5264
  21117253.713    -1340989.28249  -1031928.69749  21117253.1974   21117257.8254
  23314674.612     1380505.05849    900810.17649  23314674.0504   23314679.6794
  21564341.053      834564.58649    643375.23349  21564340.6994   21564345.7314
 96  7 12 16 36 59.9990000  0  5 24  4  5  7  9
  20664955.658    -1054534.58349   -811862.43149  20664955.4314   20664960.5994
  20863108.176      508730.09449    392334.47649  20863108.2654   20863112.2044
  21104845.259    -1406197.75549  -1082740.48949  21104844.6674   21104849.3554
  23328318.840     1452207.65049    956682.35249  23328317.9434   23328324.2494
  21573306.003      881675.40849    680084.92449  21573305.8934   21573310.5934
 96  7 12 16 37 29.9990000  0  5 24  4  5  7  9
  20656313.788    -1099946.75149   -847248.53449  20656313.7184   20656319.0044
  20868843.880      538871.23449    415821.07049  20868844.0884   20868848.3334
  21092484.671    -1471151.10049  -1133353.48549  21092484.0434   21092488.7494
  23341965.519     1523920.05949   1012562.10149  23341964.7574   23341970.3354
  21582354.682      929226.11749    717137.39049  21582354.3774   21582359.1394
 96  7 12 16 37 59.9990000  0  5 24  4  5  7  9
  20647769.243    -1144846.81549   -882235.60149  20647769.4574   20647774.5704
  20874680.137      569540.11349    439718.88449  20874680.1944   20874683.9644
  21080179.128    -1535816.15649  -1183741.84349  21080178.9104   21080183.3844
  23355615.808     1595653.53749   1068458.27549  23355615.5464   23355620.4744
  21591485.165      977209.51249    754527.01049  21591485.3694   21591490.0754
 96  7 12 16 38 29.9990000  0  5 24  4  5  7  9
  20639325.927    -1189216.27549   -916809.20449  20639326.1494   20639331.6924
  20880622.671      600768.99249    464053.06349  20880622.8644   20880627.1374
  21067928.679    -1600192.03649  -1233904.86649  21067928.4084   21067933.3064
  23369274.099     1667427.44849   1124385.94149  23369273.6444   23369279.4534
  21600699.189     1025628.33849    792255.92549  21600698.9914   21600703.8774
 96  7 12 16 38 59.9990000  0  5 24  4  5  7  9
  20630982.854    -1233059.33749   -950972.63049  20630983.1174   20630988.7424
  20886672.320      632560.22849    488825.44449  20886672.6234   20886676.7174
  21055735.659    -1664267.58049  -1283833.86449  21055735.5064   21055740.2874
  23382939.928     1739247.11649   1180349.27549  23382940.3184   23382946.0594
  21609996.983     1074489.11749    830329.21849  21609997.1244   21610002.1274
 96  7 12 16 39 29.9990000  0  5 24  4  5  7  9
  20622744.471    -1276352.93149   -984707.89449  20622744.8294   20622750.2974
  20892830.509      664924.86849    514044.62849  20892831.2464   20892835.3534
  21043604.547    -1728017.30249  -1333508.97549  21043604.5694   21043608.8474
  23396620.887     1811138.27549   1236368.30949  23396619.6394   23396626.6594
  21619387.986     1123838.79049    868783.47549  21619388.2554   21619392.8874
 96  7 12 16 39 59.9990000  0  5 24  4  5  7  9
  20614606.672    -1319117.14849  -1018030.65749  20614606.7404   20614612.6894
  20899093.465      697836.00849    539689.65249  20899094.0124   20899098.0234
  21031529.638    -1791471.50749  -1382953.80949  21031529.3014   21031534.1514
  23410313.129     1883090.49849   1292434.91549  23410312.0744   23410318.2364
  21628870.992     1173670.49449    907613.33449  21628870.8164   21628875.6844
 96  7 12 16 40 29.9990000  0  5 24  4  5  7  9
  20606574.999    -1361323.53249  -1050918.74049  20606575.7214   20606581.0794
  20905460.753      731295.95649    565762.32449  20905461.3744   20905465.5924
  21019516.846    -1854598.17849  -1432143.42249  21019516.8574   21019521.4114
  23424021.711     1955131.06049   1348570.37149  23424021.8994   23424027.1794
  21638452.820     1224025.39649    946850.88049  21638453.0964   21638458.0864
 96  7 12 16 40 59.9990000  0  5 24  4  5  7  9
  20598657.244    -1402930.12049  -1083339.45549  20598657.6774   20598663.3814
  20911934.660      765315.59649    592271.11749  20911934.8884   20911938.9464
  21007575.922    -1917348.31249  -1481039.63049  21007575.9524   21007580.7474
  23437753.234     2027290.35049   1404798.34149  23437752.4884   23437759.0344
  21648142.147     1274942.68949    986526.65249  21648142.4934   21648147.3564
 96  7 12 16 41 29.9990000  0  5 24  4  5  7  9
  20590857.909    -1443916.62049  -1115276.98449  20590858.3354   20590863.9784
  20918517.261      799907.15749    619225.55949  20918517.6304   20918521.5934
  20995707.620    -1979717.87749  -1529639.29249  20995707.4194   20995711.9114
  23451508.250     2099576.56249   1461125.20849  23451508.2864   23451514.5194
  21657939.130     1326422.85149   1026641.02549  21657938.6944   21657943.7114
 96  7 12 16 41 59.9990000  0  5 24  4  5  7  9
  20583182.905    -1484247.44949  -1146703.60249  20583183.9664   20583189.3244
  20925212.908      835093.12349    646643.17649  20925213.6004   20925217.2984
  20983918.367    -2041671.01949  -1577914.46849  20983918.1254   20983922.4474
  23465292.853     2172013.27249   1517569.35849  23465292.7324   23465298.6714
  21667841.953     1378465.31249   1067193.54649  21667842.3844   21667847.2754
 96  7 12 16 42 29.9990000  0  5 24  4  5  7  9
  20575632.979    -1523924.41949  -1177620.71349  20575633.4784   20575639.2784
  20932021.229      870869.55649    674520.89449  20932021.4024   20932025.5574
  20972210.925    -2103193.37049  -1625853.96449  20972210.7684   20972215.1704
  23479105.904     2244602.40049   1574132.26249  23479106.0884   23479111.3574
  21677850.186     1431057.90149   1108174.73849  21677850.1524   21677855.4254
 96  7 12 16 42 59.9990000  0  5 24  4  5  7  9
  20568212.192    -1562922.20549  -1208008.58649  20568212.5574   20568218.4844
  20938948.704      907274.75449    702888.56149  20938949.3244   20938953.3184
  20960589.087    -2164267.55749  -1673444.23949  20960588.7274   20960593.4714
  23492954.301     2317369.41149   1630833.78849  23492953.9474   23492959.8704
  21687965.071     1484212.26349   1149593.69049  21687965.1364   21687970.2534
 96  7 12 16 43 29.9990000  0  5 24  4  5  7  9
  20560922.914    -1601225.71149  -1237855.46549  20560923.5014   20560929.1254
  20946001.869      944338.80949    731769.62249  20946002.1234   20946006.2384
  20949058.738    -2224860.52149  -1720659.53449  20949058.3874   20949062.6064
  23506840.822     2390347.24849   1687699.58249  23506840.3734   23506847.2234
  21698188.370     1537935.63349   1191456.02449  21698188.5044   21698193.7164
 96  7 12 16 43 59.9990000  0  5 24  4  5  7  9
  20553763.426    -1638851.91049  -1267174.57949  20553763.6314   20553768.8044
  20953178.247      982050.35449    761155.22349  20953178.5344   20953182.5814
  20937619.383    -2284974.55849  -1767501.64349  20937619.2184   20937623.3814
  23520765.984     2463523.22849   1744719.78849  23520765.4174   23520772.3744
  21708520.227     1592229.72349   1233763.07449  21708520.1874   21708525.3724
 96  7 12 16 44 29.9990000  0  5 24  4  5  7  9
  20546723.670    -1675843.39549  -1295999.11049  20546724.5464   20546729.7104
  20960474.808     1020395.74049    791034.71949  20960475.6034   20960479.6674
  20926265.211    -2344641.48949  -1813995.35249  20926265.2084   20926269.2274
  23534725.227     2536878.41249   1801879.62649  23534724.4734   23534730.3054
  21718959.765     1647091.39049   1276512.38349  21718960.2264   21718965.2584
 96  7 12 16 44 59.9990000  0  5 24  4  5  7  9
  20539797.280    -1712242.00149  -1324361.65449  20539797.9294   20539803.2954
  20967887.568     1059346.26249    821385.75549  20967887.6664   20967891.6334
  20914988.978    -2403897.89149  -1860169.17749  20914988.9044   20914993.2504
  23548712.813     2610385.83749   1859158.09949  23548713.2954   23548719.3464
  21729502.204     1702492.69449   1319682.18049  21729502.6244   21729507.7304
 96  7 12 16 45 29.9990000  0  5 24  4  5  7  9
  20532987.776    -1748025.81349  -1352245.13449  20532988.1824   20532993.8274
  20975416.493     1098914.90049    852218.43849  20975417.2304   20975421.1704
  20903795.486    -2462717.51049  -1906002.64149  20903795.4974   20903800.3344
  23562734.552     2684067.05149   1916571.98249  23562734.0804   23562740.2364
  21740152.779     1758459.65049   1363292.74249  21740152.8434   21740158.1334
 96  7 12 16 45 59.9990000  0  5 24  4  5  7  9
  20526297.272    -1783185.24249  -1379642.08249  20526297.7444   20526303.1714
  20983066.850     1139116.81949    883544.58449  20983067.5874   20983071.5364
  20892684.441    -2521108.79149  -1951502.34349  20892684.2094   20892688.6944
  23576788.871     2757922.30249   1974121.46849  23576787.7654   23576793.3904
  21750915.275     1815016.76549   1407363.16949  21750915.4324   21750920.3644
 96  7 12 16 46 29.9990000  0  5 24  4  5  7  9
  20519722.377    -1817736.72249  -1406565.30749  20519722.7304   20519728.4734
  20990831.489     1179919.68649    915339.00549  20990831.9964   20990836.2474
  20881649.413    -2579097.56049  -1996688.39549  20881649.6854   20881653.9244
  23590871.170     2831926.91849   2031787.35849  23590871.1264   23590876.5754
  21761782.448     1872123.08349   1451861.55849  21761782.1754   21761787.4794
 96  7 12 16 46 59.9990000  0  5 24  4  5  7  9
  20513270.726    -1851638.66849  -1432982.40449  20513271.2734   20513276.9344
  20998712.353     1221333.04949    947609.13549  20998712.7124   20998716.7424
  20870695.422    -2636662.52549  -2041544.21849  20870695.2534   20870699.6804
  23604984.340     2906091.10649   2089577.56749  23604983.8534   23604990.1694
  21772755.147     1929784.28249   1496792.32349  21772755.0124   21772760.0854
 96  7 12 16 47 29.9990000  0  5 24  4  5  7  9
  20506949.868    -1884856.34949  -1458866.31549  20506950.6014   20506956.2414
  21006711.511     1263368.70949    980364.17449  21006712.1544   21006715.7404
  20859825.096    -2693786.47949  -2086056.39149  20859824.8564   20859829.3844
  23619125.862     2980404.70449   2147484.22149  23619124.9994   23619131.9694
  21783833.605     1988004.50149   1542158.69049  21783833.7994   21783839.0374
 96  7 12 16 47 59.9990000  0  5 24  4  5  7  9
  20500756.965    -1917401.80249  -1484226.41349  20500757.3534   20500762.8944
  21014823.872     1306000.03849   1013583.37249  21014824.4934   21014828.2514
  20849037.487    -2750475.95349  -2130230.01249  20849037.3444   20849041.6754
  23633293.697     3054854.80049   2205497.22849  23633293.5424   23633299.4054
  21795015.724     2046762.18849   1587943.86349  21795015.2464   21795020.5434
 96  7 12 16 48 29.9990000  0  5 24  4  5  7  9
  20494691.446    -1949275.46949  -1509063.03949  20494692.1484   20494697.7494
  21023046.260     1349208.98349   1047252.65849  21023046.8254   21023050.7264
  20838332.768    -2806728.97249  -2174063.53949  20838332.9604   20838337.2654
  23647486.773     3129446.98749   2263620.96449  23647486.8214   23647493.8204
  21806296.553     2106047.89949   1634140.48549  21806297.1394   21806302.2654
 96  7 12 16 48 59.9990000  0  5 24  4  5  7  9
  20488748.807    -1980504.38649  -1533397.25749  20488749.4434   20488754.9734
  21031376.969     1392987.09749   1081365.44849  21031377.5504   21031381.5994
  20827708.082    -2862561.18449  -2217569.16149  20827708.0024   20827712.5044
  23661704.980     3204159.69849   2321838.60649  23661705.1954   23661711.6754
  21817676.233     2165847.97849   1680737.90249  21817676.6994   21817682.0024
 96  7 12 16 49 29.9990000  0  5 24  4  5  7  9
  20482922.938    -2011122.34449  -1557255.39449  20482923.2234   20482928.5034
  21039811.366     1437311.03149   1115903.55549  21039812.0734   21039815.8574
  20817162.449    -2917979.09549  -2260751.95549  20817162.4544   20817167.0474
  23675943.311     3278983.32549   2380142.68749  23675943.0174   23675949.5234
  21829152.125     2226153.27749   1727729.00449  21829152.3184   21829157.6414
 96  7 12 16 49 59.9990000  0  5 24  4  5  7  9
  20477213.082    -2041124.75949  -1580633.88849  20477213.8824   20477219.4394
  21048353.239     1482197.42449   1150879.94549  21048353.9504   21048357.8084
  20806697.602    -2972972.39549  -2303603.87649  20806697.6774   20806702.2114
  23690210.809     3353956.58549   2438563.37549  23690210.9734   23690216.3274
  21840730.549     2286998.07749   1775140.50249  21840730.6054   21840735.7384
 96  7 12 16 50 29.9990000  0  5 24  4  5  7  9
  20471618.806    -2070523.07049  -1603541.65749  20471619.4264   20471624.8614
  21057004.837     1527660.15049   1186305.41949  21057004.9404   21057009.0274
  20796311.092    -3027553.63849  -2346134.71649  20796310.9494   20796315.3834
  23704502.750     3429066.19149   2497090.30149  23704503.1064   23704509.4864
  21852409.327     2348370.93049   1822963.45749  21852409.5484   21852414.9804
 96  7 12 16 50 59.9990000  0  5 24  4  5  7  9
  20466133.747    -2099347.23449  -1626002.04249  20466134.5514   20466139.5544
  21065760.377     1573672.33549   1222159.04649  21065760.8984   21065764.7414
  20785998.798    -3081746.57449  -2388362.98049  20785998.3494   20786002.9834
  23718813.689     3504267.41149   2555688.60549  23718812.9524   23718820.3424
  21864180.141     2410224.63849   1871161.11349  21864180.1024   21864185.3424
 96  7 12 16 51 29.9990000  0  5 24  4  5  7  9
  20460760.146    -2127585.97949  -1648006.25249  20460760.4534   20460766.0394
  21074618.841     1620224.37749   1258433.34249  21074619.2604   21074623.4644
  20775761.281    -3135544.57949  -2430283.50849  20775761.0504   20775765.7244
  23733144.748     3579576.91249   2614371.28849  23733144.3194   23733150.3554
  21876039.715     2472549.40949   1919725.82649  21876040.2464   21876045.1864
 96  7 12 16 51 59.9990000  0  5 24  4  5  7  9
  20455498.992    -2155233.26649  -1669549.59049  20455499.4854   20455504.9114
  21083582.041     1667324.94549   1295135.06249  21083582.3454   21083586.0574
  20765598.736    -3188948.44249  -2471896.91349  20765598.5654   20765602.7304
  23747497.467     3654996.52849   2673139.77149  23747496.2524   23747502.5694
  21887987.263     2535332.14149   1968647.40749  21887987.4924   21887992.6174
 96  7 12 16 52 29.9990000  0  5 24  4  5  7  9
  20450353.441    -2182272.30049  -1690618.97249  20450354.1014   20450359.5724
  21092651.807     1714987.02049   1332274.31649  21092652.2494   21092655.9304
  20755517.393    -3241925.25749  -2513177.55849  20755517.6064   20755521.7064
  23761871.196     3730534.34349   2732000.35049  23761870.8484   23761877.2184
  21900020.952     2598569.35049   2017923.12549  21900021.0534   21900026.3884
 96  7 12 16 52 59.9990000  0  5 24  4  5  7  9
  20445322.356    -2208712.69449  -1711221.87049  20445322.6414   20445327.9564
  21101823.142     1763182.89249   1369829.51949  21101823.5764   21101827.4154
  20745516.645    -3294479.61549  -2554129.01049  20745516.8434   20745521.1814
  23776266.624     3806184.90249   2790948.79649  23776266.6964   23776272.3724
  21912140.420     2662258.99949   2067551.38749  21912140.7714   21912146.0664
 96  7 12 16 53 29.9990000  0  5 24  4  5  7  9
  20440407.979    -2234538.92949  -1731346.20849  20440408.2444   20440413.0954
  21111097.256     1811918.99349   1407805.67849  21111097.7614   21111101.9864
  20735597.700    -3346604.14149  -2594745.53049  20735597.7784   20735602.4884
  23790686.117     3881957.65849   2849992.44849  23790685.7004   23790692.4684
  21924350.699     2726426.03349   2117551.64049  21924351.6994   21924356.4704
 96  7 12 16 53 59.9990000  0  5 24  4  5  7  9
  20435605.425    -2259775.53449  -1751011.09549  20435605.9434   20435611.0464
  21120471.733     1861180.86749   1446191.52949  21120472.1654   21120476.1204
  20725756.731    -3398319.60849  -2635043.30149  20725756.9824   20725761.1714
  23805119.600     3957810.23549   2909098.31449  23805119.8364   23805126.6424
  21936651.201     2791060.90649   2167916.44249  21936651.4074   21936656.1574
 96  7 12 16 54 29.9990000  0  5 24  4  5  7  9
  20430916.045    -2284418.72349  -1770213.57049  20430916.4584   20430921.5794
  21129943.534     1910956.10349   1484977.40649  21129943.8884   21129947.8234
  20715992.897    -3449629.29749  -2675024.88149  20715992.8114   20715997.6734
  23819567.727     4033729.10549   2968255.81149  23819567.4564   23819573.3904
  21949038.792     2856158.48149   2218641.79049  21949038.7984   21949043.8854
 96  7 12 16 54 59.9990000  0  5 24  4  5  7  9
  20426341.701    -2308456.27149  -1788944.12849  20426342.2814   20426347.4954
  21139512.370     1961239.87449   1524159.54249  21139512.9254   21139517.0664
  20706305.847    -3500535.22849  -2714691.85449  20706305.6404   20706310.7104
  23834026.831     4109713.31649   3027464.22349  23834026.0064   23834032.7634
  21961515.119     2921724.02349   2269731.78749  21961515.6494   21961520.7884
 96  7 12 16 55 29.9990000  0  5 24  4  5  7  9
  20421879.701    -2331904.10349  -1807215.16449  20421880.4244   20421885.8614
  21149173.873     2012011.46349   1563721.79849  21149174.4244   21149178.2224
  20696694.654    -3551042.52949  -2754048.20349  20696694.8614   20696699.2794
  23848494.887     4185743.46349   3086708.43849  23848494.9694   23848501.1344
  21974077.173     2987737.13949   2321170.54749  21974077.6314   21974082.7004
 96  7 12 16 55 59.9990000  0  5 24  4  5  7  9
  20417530.854    -2354759.14549  -1825024.28949  20417531.3684   20417536.6604
  21158929.441     2063278.33949   1603669.98549  21158930.1174   21158934.2114
  20687162.130    -3601137.64949  -2793083.37149  20687161.5974   20687166.4024
  23862976.132     4261843.31549   3146006.97149  23862975.6464   23862981.9054
  21986723.955     3054197.33749   2372957.67349  21986724.5844   21986729.1644
 96  7 12 16 56 29.9990000  0  5 24  4  5  7  9
  20413294.135    -2377020.94449  -1842371.14449  20413295.0014   20413300.2684
  21168776.290     2115024.26349   1643991.46149  21168776.8314   21168781.1194
  20677705.399    -3650831.51949  -2831805.87349  20677705.7384   20677710.2034
  23877472.788     4338027.99049   3205371.59349  23877473.3564   23877479.4874
  21999452.814     3121085.90949   2425078.60449  21999452.8154   21999458.1664
 96  7 12 16 56 59.9990000  0  5 24  4  5  7  9
  20409166.603    -2398711.88549  -1859273.17749  20409167.3164   20409172.7504
  21178714.255     2167246.36949   1684683.98849  21178714.5754   21178718.6094
  20668325.185    -3700126.77149  -2870217.76849  20668325.1314   20668329.7284
  23891988.806     4414307.18149   3264809.87549  23891988.4894   23891993.9474
  22012260.340     3188391.22449   2477524.26849  22012260.8894   22012265.7434
 96  7 12 16 57 29.9990000  0  5 24  4  5  7  9
  20405146.443    -2419838.17349  -1875735.22149  20405146.9914   20405152.4394
  21188743.734     2219952.91049   1725754.00249  21188744.3224   21188748.4284
  20659020.849    -3749020.15949  -2908316.52149  20659020.6964   20659025.2464
  23906523.402     4490687.79249   3324327.20849  23906523.9404   23906529.8264
  22025146.832     3256109.67649   2530291.85549  22025147.0924   22025152.4384
 96  7 12 16 57 59.9990000  0  5 24  4  5  7  9
  20401238.661    -2440373.03849  -1891736.41749  20401239.3074   20401244.8024
  21198872.015     2273175.31249   1767225.98449  21198872.2174   21198876.2264
  20649797.662    -3797489.12449  -2946084.55649  20649797.4114   20649802.0764
  23921082.205     4567195.85549   3383943.84049  23921082.8484   23921088.4364
  22038114.770     3324257.12949   2583393.72849  22038115.1604   22038120.6784
 96  7 12 16 58 29.9990000  0  5 24  4  5  7  9
  20397436.890    -2460352.42849  -1907304.76549  20397437.4934   20397442.9474
  21209091.138     2326879.56449   1809073.43149  21209091.8164   21209095.8634
  20640650.477    -3845557.97349  -2983540.80949  20640650.3634   20640655.0094
  23935656.627     4643783.91649   3443622.81249  23935656.6294   23935662.9924
  22051158.721     3392801.57349   2636804.94149  22051158.6054   22051163.9204
 96  7 12 16 58 59.9990000  0  5 24  4  5  7  9
  20393738.313    -2479787.84949  -1922449.25249  20393739.1964   20393744.4534
  21219403.997     2381073.88449   1851302.74849  21219404.3774   21219408.8494
  20631582.747    -3893208.72049  -3020671.26349  20631582.6874   20631587.1954
  23950244.357     4720436.58949   3503352.13549  23950243.9434   23950249.9914
  22064278.975     3461749.43649   2690530.50349  22064279.2364   22064284.2944
 96  7 12 16 59 29.9990000  0  5 24  4  5  7  9
  20390144.137    -2498675.98549  -1937167.27649  20390144.8394   20390150.2114
  21229806.213     2435736.56449   1893897.01649  21229806.4864   21229810.9544
  20622590.884    -3940460.93149  -3057491.16949  20622590.9744   20622595.5054
  23964838.552     4797131.19849   3563114.14349  23964837.7704   23964843.9254
  22077474.574     3531093.14449   2744564.52449  22077474.9974   22077479.9494
 96  7 12 16 59 59.9990000  0  5 24  4  5  7  9
  20386654.852    -2517012.87149  -1951455.76149  20386655.4894   20386660.7014
  21240298.029     2490872.77249   1936860.24749  21240298.7334   21240302.8084
  20613677.661    -3987301.02949  -3093989.95349  20613677.5394   20613682.1324
  23979442.228     4873877.42949   3622916.35149  23979442.1684   23979448.4734
  22090747.784     3600842.90849   2798914.95249  22090747.7414   22090753.0034
 96  7 12 17  0 29.9990000  0  5 24  4  5  7  9
  20383268.182    -2534807.47849  -1965321.69149  20383269.0694   20383274.3664
  21250876.036     2546462.45349   1980176.82049  21250877.0654   21250881.1724
  20604838.719    -4033748.87449  -3130183.08149  20604838.9324   20604843.3324
  23994056.249     4950672.38749   3682756.53549  23994055.4954   23994062.1334
  22104095.347     3670985.15749   2853571.21549  22104095.4474   22104100.8914
 96  7 12 17  0 59.9990000  0  5 24  4  5  7  9
  20379987.353    -2552049.40449  -1978756.95849  20379987.8264   20379993.4344
  21261539.021     2602494.32549   2023837.98749  21261539.4914   21261543.6914
  20596074.290    -4079806.82649  -3166072.39949  20596074.3104   20596078.7204
  24008680.903     5027524.32249   3742641.10649  24008681.0134   24008687.1224
  22117516.445     3741511.99249   2908527.14949  22117516.4004   22117521.4544
 96  7 12 17  1 29.9990000  0  5 24  4  5  7  9
  20376811.477    -2568738.64949  -1991761.57049  20376812.2144   20376817.8364
  21272281.737     2658947.89249   2067827.77249  21272282.5144   21272286.6784
  20587382.127    -4125483.39149  -3201664.52649  20587382.2864   20587386.8384
  24023315.448     5104430.71849   3802568.12149  24023315.3774   24023323.2204
  22131009.692     3812421.67549   2963781.40649  22131010.4264   22131015.4174
 96  7 12 17  1 59.9990000  0  5 24  4  5  7  9
  20373740.817    -2584874.32649  -2004334.82549  20373741.7354   20373746.9104
  21283107.833     2715839.19449   2112158.68949  21283108.4044   21283112.5344
  20578766.034    -4170762.13549  -3236946.66749  20578766.0814   20578770.4834
  24037961.513     5181394.42949   3862539.78249  24037960.8114   24037968.2244
  22144575.906     3883711.91049   3019332.19249  22144576.0974   22144581.1204
 96  7 12 17  2 29.9990000  0  5 24  4  5  7  9
  20370776.671    -2600451.45149  -2016472.85049  20370777.8584   20370783.1024
  21294015.477     2773158.17249   2156822.80849  21294015.8514   21294020.0054
  20570225.675    -4215643.63049  -3271919.26949  20570225.3154   20570229.9524
  24052616.179     5258406.12249   3922548.83749  24052616.5264   24052623.2304
  22158214.303     3955379.44849   3075176.98749  22158213.9664   22158219.0254
 96  7 12 17  2 59.9990000  0  5 24  4  5  7  9
  20367916.926    -2615479.95949  -2028183.38649  20367917.5204   20367923.1894
  21305004.537     2830906.97149   2201821.84849  21305005.0124   21305009.2604
  20561763.057    -4260114.52049  -3306571.91349  20561762.8754   20561767.2504
  24067277.699     5335449.54349   3982582.61049  24067276.5824   24067283.3824
  22171923.024     4027418.25949   3131311.08449  22171923.0444   22171927.7304
 96  7 12 17  3 29.9990000  0  6 24  4  5  7  9  6
  20365159.535    -2629971.65749  -2039475.61849  20365160.2614   20365165.5354
  21316076.517     2889093.38949   2247161.89049  21316077.5464   21316081.7484
  20553377.588    -4304180.82549  -3340909.30549  20553377.4474   20553381.7224
  24081943.073     5412518.97149   4042636.66349  24081943.1794   24081949.4404
  22185699.719     4099819.29649   3187727.42549  22185700.1234   22185705.1084
  24828019.200    -4555383.24159  -3093480.39159  24828019.6844   24828027.0954
 96  7 12 17  3 59.9990000  0  6 24  4  5  7  9  6
  20362503.105    -2643930.89549  -2050352.94249  20362503.4104   20362509.1524
  21327231.323     2947708.96249   2292836.33949  21327231.8044   21327236.1584
  20545067.686    -4347847.88749  -3374935.59749  20545067.8924   20545072.5214
  24096613.816     5489614.70749   4102711.19149  24096613.4664   24096620.5764
  22199541.614     4172560.09549   3244408.51549  22199542.6314   22199546.9364
  24812072.083    -4639186.76049  -3158781.81749  24812072.1744   24812079.5114
 96  7 12 17  4 29.9990000  0  6 24  4  5  7  9  6
  20359950.013    -2657346.55349  -2060806.69849  20359950.9304   20359956.1324
  21338467.183     3006753.49549   2338845.04749  21338467.5774   21338471.7384
  20536836.811    -4391102.30849  -3408640.34849  20536836.7894   20536841.2894
  24111294.971     5566761.76549   4162825.72049  24111293.6694   24111301.5714
  22213450.433     4245649.87149   3301361.55249  22213450.6454   22213454.9634
  24796135.288    -4722938.75349  -3224043.22449  24796135.3384   24796142.5834
 96  7 12 17  4 59.9990000  0  6 24  4  5  7  9  6
  20357495.636    -2670244.14649  -2070856.77849  20357496.8664   20357501.7554
  21349780.459     3066206.80549   2385172.28249  21349781.4004   21349785.1644
  20528677.399    -4433979.07849  -3442050.82849  20528677.5304   20528681.9344
  24125983.948     5643948.84149   4222971.41549  24125983.0114   24125988.9784
  22227420.940     4319062.12649   3358565.86549  22227420.7494   22227425.8464
  24780204.224    -4806654.99349  -3289276.62449  24780204.9864   24780211.9514
 96  7 12 17  5 29.9990000  0  6 24  4  5  7  9  6
  20355142.557    -2682612.48149  -2080494.42849  20355143.5024   20355148.4564
  21361171.933     3126070.22349   2431819.07949  21361172.8274   21361176.8314
  20520589.490    -4476482.86949  -3475170.67449  20520589.3624   20520593.7974
  24140681.799     5721188.99049   4283158.47849  24140680.7474   24140686.5524
  22241453.105     4392805.22149   3416027.96749  22241454.2744   22241458.7824
  24764280.732    -4890330.94549  -3354478.65549  24764281.4514   24764288.5884
 96  7 12 17  5 59.9990000  0  6 24  4  5  7  9  6
  20352888.449    -2694456.71549  -2089723.70149  20352888.9094   20352894.3644
  21372639.426     3186329.39049   2478774.25749  21372640.0134   21372643.7654
  20512570.874    -4518618.65249  -3508003.75649  20512571.3014   20512575.6274
  24155389.041     5798475.85749   4343381.93449  24155388.3364   24155394.9644
  22255548.722     4466876.64249   3473745.91149  22255549.0054   22255554.2844
  24748362.996    -4973977.83249  -3419657.97249  24748363.5334   24748371.5034
 96  7 12 17  6 29.9990000  0  6 24  4  5  7  9  6
  20350735.280    -2705770.69249  -2098539.79349  20350736.3414   20350741.1674
  21384183.282     3246992.12949   2526043.90849  21384183.7444   21384187.7554
  20504623.372    -4560385.87949  -3540549.65249  20504623.3564   20504627.7494
  24170102.328     5875798.32549   4403633.14449  24170102.2654   24170109.0144
  22269707.786     4541284.05849   3531725.66649  22269707.9434   22269713.4184
  24732455.577    -5057573.12249  -3484796.97949  24732456.0684   24732463.2104
 96  7 12 17  6 59.9990000  0  6 24  4  5  7  9  6
  20348683.238    -2716554.24349  -2106942.55249  20348684.1204   20348689.3744
  21395804.207     3308060.83749   2573629.89849  21395805.0424   21395808.8874
  20496746.543    -4601778.68449  -3572803.78949  20496746.3994   20496750.5894
  24184819.835     5953140.61349   4463899.78649  24184820.6044   24184826.3564
  22283933.911     4616040.13549   3589977.10349  22283934.4084   22283938.9704
  24716560.613    -5141100.26449  -3549883.03349  24716562.1104   24716567.7954
 96  7 12 17  7 29.9990000  0  6 24  4  5  7  9  6
  20346731.673    -2726812.00249  -2114935.61549  20346732.2234   20346737.2494
  21407501.137     3369529.66349   2621527.66549  21407501.9924   21407505.7464
  20488944.202    -4642779.30349  -3604752.32649  20488944.2774   20488948.6464
  24199538.031     6030484.46149   4524167.64849  24199537.9384   24199544.4024
  22298225.836     4691145.32949   3648500.58449  22298225.8574   22298231.1354
  24700677.461    -5224569.08249  -3614923.65449  24700677.6444   24700684.1604
 96  7 12 17  7 59.9990000  0  6 24  4  5  7  9  6
  20344881.194    -2736532.83849  -2122510.28749  20344882.4064   20344887.3064
  21419275.446     3431403.72349   2669741.20149  21419276.2984   21419279.9944
  20481221.160    -4683363.19849  -3636376.13949  20481221.6754   20481225.7024
  24214257.475     6107834.82849   4584440.58849  24214258.2944   24214264.9054
  22312586.073     4766608.05049   3707302.67549  22312586.2574   22312591.6864
  24684808.771    -5307958.33949  -3679902.25849  24684809.0124   24684816.0904
 96  7 12 17  8 29.9990000  0  6 24  4  5  7  9  6
  20343131.063    -2745733.04349  -2129679.28149  20343131.8214   20343136.4904
  21431123.638     3493664.32349   2718255.93649  21431124.0704   21431128.0574
  20473574.704    -4723546.32649  -3667687.66649  20473574.6934   20473578.9104
  24228975.126     6185178.09149   4644707.99849  24228976.1134   24228981.8354
  22327008.250     4842400.30149   3766361.52749  22327008.7384   22327014.1864
  24668952.434    -5391284.84049  -3744831.96349  24668953.2854   24668959.5454
 96  7 12 17  8 59.9990000  0  6 24  4  5  7  9  6
  20341480.126    -2754408.28949  -2136439.21349  20341480.7344   20341485.7344
  21443045.720     3556316.68849   2767075.94549  21443046.2794   21443050.2284
  20466008.552    -4763307.05649  -3698670.05649  20466008.5804   20466013.1764
  24243697.557     6262539.95749   4704989.90849  24243696.7404   24243703.6824
  22341494.278     4918522.40049   3825677.40049  22341494.5894   22341499.9754
  24653106.857    -5474553.03249  -3809716.31449  24653106.5014   24653113.5214
 96  7 12 17  9 29.9990000  0  6 24  4  5  7  9  6
  20339927.269    -2762568.05949  -2142797.47949  20339927.8734   20339933.1344
  21455038.189     3619336.07649   2816181.94549  21455038.5704   21455042.5824
  20458521.046    -4802655.03549  -3729330.82249  20458520.8394   20458525.4184
  24258421.237     6339913.77049   4765281.11349  24258421.3504   24258426.3944
  22356035.490     4994936.27549   3885220.63849  22356035.7504   22356041.0924
  24637268.005    -5557790.19849  -3874576.39649  24637266.9044   24637274.1414
 96  7 12 17  9 59.9990000  0  6 24  4  5  7  9  6
  20338473.137    -2770209.63849  -2148751.96249  20338473.6884   20338478.7434
  21467099.388     3682718.18249   2865570.58149  21467099.8154   21467104.0164
  20451111.958    -4841590.51349  -3759670.15749  20451111.6664   20451116.2774
  24273150.150     6417318.10849   4825596.11449  24273150.3164   24273157.7594
  22370628.727     5071624.21749   3944977.43549  22370629.0694   22370634.5914
  24621434.548    -5640992.14149  -3939408.99349  24621433.7274   24621442.6834
 96  7 12 17 10 29.9990000  0  6 24  4  5  7  9  6
  20337116.709    -2777336.13349  -2154305.08649  20337117.3384   20337123.0644
  21479231.219     3746472.88049   2915249.54749  21479231.9464   21479235.8714
  20443782.292    -4880107.19449  -3789683.15749  20443782.5274   20443787.1324
  24287887.877     6494761.94549   4885941.89049  24287887.4684   24287894.4574
  22385274.024     5148587.92649   4004949.11549  22385274.4114   22385279.9484
  24605607.412    -5724162.54249  -4004217.03849  24605607.1084   24605615.3794
 96  7 12 17 10 59.9990000  0  6 24  4  5  7  9  6
  20335858.055    -2783952.40049  -2159460.63849  20335858.4704   20335864.1094
  21491435.194     3810604.82249   2965222.47549  21491435.9084   21491439.6624
  20436534.806    -4918193.28749  -3819360.63549  20436534.6994   20436539.5094
  24302631.069     6572244.22749   4946317.62849  24302630.8864   24302638.9614
  22399975.273     5225841.31349   4065146.51849  22399975.9024   22399981.2474
  24589785.822    -5807308.79949  -4069006.29349  24589786.7004   24589792.1884
 96  7 12 17 11 29.9990000  0  6 24  4  5  7  9  6
  20334695.042    -2790063.53449  -2164222.57049  20334695.6864   20334700.9614
  21503712.039     3875119.37249   3015493.53649  21503712.7304   21503716.7164
  20429365.480    -4955867.62649  -3848717.26349  20429365.5614   20429370.3004
  24317382.065     6649759.87349   5006719.36149  24317382.6534   24317389.1194
  22414732.438     5303389.65849   4125573.75249  22414732.8134   22414738.1904
  24573969.421    -5890427.99649  -4133774.47049  24573968.8394   24573974.8754
 96  7 12 17 11 59.9990000  0  6 24  4  5  7  9  6
  20333625.947    -2795682.75849  -2168601.20549  20333626.2844   20333631.7624
  21516062.784     3940022.78049   3066067.60149  21516063.4144   21516067.3134
  20422270.876    -4993150.57849  -3877768.91949  20422270.8974   20422275.6174
  24332138.447     6727300.27149   5067140.39049  24332139.0244   24332144.1614
  22429545.957     5381235.77149   4186233.01349  22429546.5214   22429552.3954
  24558157.415    -5973517.06549  -4198519.13949  24558157.0624   24558164.0334
 96  7 12 17 12 29.9990000  0  6 24  4  5  7  9  6
  20332649.767    -2800812.56549  -2172598.44849  20332650.5164   20332655.4234
  21528486.420     4005308.92049   3116939.90249  21528486.9174   21528490.9834
  20415247.032    -5030061.95449  -3906531.03049  20415246.9224   20415251.5564
  24346892.726     6804839.35749   5127560.41649  24346893.7664   24346900.3104
  22444417.365     5459383.88949   4247127.58949  22444417.5984   22444423.0404
  24542349.874    -6056585.62049  -4263247.84849  24542349.1454   24542356.6054
 96  7 12 17 12 59.9990000  0  5 24  4  5  9  6
  20331770.475    -2805431.01349  -2176197.23449  20331771.2664   20331776.8174
  21540980.985     4070970.64449   3168104.86949  21540981.9224   21540986.1544
  20408294.220    -5066599.33349  -3935001.71649  20408294.1484   20408298.7604
  22459346.838     5537836.71049   4308259.59849  22459346.7804   22459352.4084
  24526548.746    -6139615.84449  -4327946.67949  24526549.3284   24526555.8334
 96  7 12 17 13 29.9990000  0  5 24  4  5  9  6
  20330986.945    -2809547.80549  -2179405.12449  20330987.9134   20330993.4074
  21553542.403     4136980.06149   3219540.75849  21553543.0724   21553547.0634
  20401409.562    -5102778.74749  -3963193.46549  20401409.4024   20401413.9064
  22474327.488     5616563.82249   4369605.32949  22474327.8314   22474333.4974
  24510755.999    -6222607.73549  -4392615.68549  24510756.2204   24510761.4914
 96  7 12 17 13 59.9990000  0  5 24  4  5  9  6
  20330304.640    -2813135.13249  -2182200.42849  20330305.3814   20330310.4894
  21566171.953     4203347.63049   3271255.73149  21566172.4954   21566176.4034
  20394602.450    -5138550.70549  -3991067.71749  20394602.2244   20394607.1474
  22489364.908     5695585.07649   4431180.27249  22489365.5164   22489370.6674
  24494975.213    -6305543.48149  -4457240.88249  24494974.2054   24494980.8834
 96  7 12 17 14 29.9990000  0  5 24  4  5  9  6
  20329722.953    -2816192.18849  -2184582.54449  20329723.7204   20329728.8114
  21578865.479     4270052.72349   3323233.70649  21578865.8814   21578869.9844
  20387876.673    -5173893.12449  -4018607.26949  20387876.7914   20387881.2194
  22504457.205     5774893.51849   4492979.01149  22504456.8974   22504462.8394
  24479201.661    -6388435.15049  -4521831.68049  24479200.3734   24479206.9354
 96  7 12 17 14 59.9990000  0  5 24  4  5  9  6
  20329241.774    -2818721.41949  -2186553.36349  20329242.3374   20329247.4704
  21591626.164     4337109.51349   3375485.72849  21591626.4914   21591630.8324
  20381240.922    -5208765.58649  -4045780.62149  20381240.7194   20381245.3614
  22519603.179     5854490.11849   4555002.28149  22519603.8654   22519609.5384
  24463439.285    -6471265.60149  -4586374.83249  24463438.4554   24463445.2314
 96  7 12 17 15 29.9990000  0  5 24  4  5  9  6
  20328853.696    -2820761.74349  -2188143.20049  20328854.3384   20328859.2294
  21604450.728     4404504.17849   3428001.03249  21604450.9874   21604455.3224
  20374690.094    -5243190.85649  -4072605.53049  20374689.7784   20374694.5024
  22534801.981     5934355.70949   4617235.16949  22534801.8064   22534807.1234
  24447681.854    -6554071.21949  -4650898.62649  24447681.5294   24447688.5954
 96  7 12 17 15 59.9990000  0  5 24  4  5  9  6
  20328557.812    -2822315.77349  -2189354.13549  20328558.3824   20328563.5844
  21617341.636     4472245.51249   3480786.47649  21617342.1364   21617346.2154
  20368223.264    -5277174.08449  -4099085.99249  20368223.2954   20368227.6624
  22550051.442     6014492.67449   4679679.53649  22550051.5894   22550057.0834
  24431927.744    -6636854.06949  -4715404.69149  24431927.2794   24431934.8194
 96  7 12 17 16 29.9990000  0  5 24  4  5  9  6
  20328351.428    -2823400.12149  -2190199.07949  20328352.0454   20328357.1894
  21630297.585     4540328.83449   3533838.40049  21630298.0174   21630302.1594
  20361834.118    -5310750.72349  -4125249.61549  20361833.7044   20361838.6794
  22565348.891     6094878.66349   4742317.92349  22565348.3264   22565354.2564
  24416179.757    -6719611.76649  -4779891.11249  24416179.8904   24416186.9464
 96  7 12 17 16 59.9990000  0  5 24  4  5  9  6
  20328231.061    -2824034.08449  -2190693.07849  20328231.5984   20328236.3754
  21643317.607     4608750.15849   3587153.70149  21643318.0134   21643321.9264
  20355515.513    -5343953.65149  -4151122.02549  20355515.5094   20355520.3064
  22580689.960     6175500.20149   4805139.84449  22580689.8944   22580695.7224
  24400436.981    -6802340.38949  -4844354.86149  24400436.8894   24400443.3394
 96  7 12 17 17 29.9990000  0  5 24  4  5  9  6
  20328200.071    -2824196.06749  -2190819.29249  20328200.5544   20328205.6514
  21656401.527     4677506.73949   3640730.24249  21656401.9254   21656406.1874
  20349266.809    -5376791.39649  -4176709.86849  20349266.7004   20349271.0814
  22596079.364     6256372.06249   4868156.81649  22596079.6014   22596085.2244
  24384701.795    -6885031.52849  -4908789.44349  24384700.6274   24384708.4204
 96  7 12 17 17 59.9990000  0  5 24  4  5  9  6
  20328263.113    -2823865.98249  -2190562.08049  20328263.4234   20328268.4004
  21669550.325     4746603.82649   3694572.11449  21669550.6244   21669554.7814
  20343091.302    -5409243.82149  -4201997.46149  20343091.2704   20343095.6194
  22611515.782     6337490.12149   4931365.63049  22611516.2514   22611521.6924
  24368977.869    -6967654.70449  -4973171.07249  24368977.9404   24368985.3424
 96  7 12 17 18 29.9990000  0  5 24  4  5  9  6
  20328420.185    -2823037.67649  -2189916.64549  20328420.9644   20328426.0744
  21682761.871     4816029.14549   3748669.74549  21682762.0754   21682766.3594
  20336991.915    -5441297.27549  -4226974.17849  20336991.4134   20336996.1374
  22626997.468     6418848.55849   4994761.74849  22626997.5674   22627003.4484
  24353268.068    -7050213.14149  -5037502.27849  24353268.2514   24353275.6234
 96  7 12 17 18 59.9990000  0  5 24  4  5  9  6
  20328675.647    -2821697.29149  -2188872.19149  20328675.9074   20328681.1354
  21696034.360     4885776.00849   3803017.93349  21696034.5474   21696038.2934
  20330972.035    -5472931.14249  -4251623.94649  20330972.0444   20330976.3474
  22642527.613     6500457.98749   5058353.43049  22642527.8974   22642533.6474
  24337568.394    -7132714.49649  -5101788.96549  24337568.9674   24337575.8694
 96  7 12 17 19 29.9990000  0  6 24  4  5  9 16  6
  20329032.576    -2819821.38749  -2187410.44949  20329033.0464   20329037.7534
  21709368.522     4955848.91649   3857620.17849  21709368.9304   21709372.9054
  20325036.069    -5504126.21349  -4275931.79549  20325035.6854   20325040.1794
  22658106.598     6582326.14749   5122146.73649  22658106.2794   22658112.2004
  24588178.116    -1772922.15159  -1369131.26159  24588176.4874   24588184.9424
  24321878.294    -7215168.26149  -5166038.56549  24321878.2904   24321885.2844
 96  7 12 17 19 59.9990000  0  6 24  4  5  9 16  6
  20329485.836    -2817439.57549  -2185554.48749  20329486.1074   20329491.7694
  21722761.325     5026228.53149   3912461.42649  21722761.7574   21722765.7634
  20319180.451    -5534897.40249  -4299909.34549  20319180.1184   20319184.3854
  22673729.410     6664423.78049   5186118.85549  22673729.0444   22673735.1504
  24568451.792    -1876586.26249  -1449908.38049  24568450.0554   24568459.6484
  24306189.086    -7297616.72449  -5230284.03849  24306189.5864   24306196.0224
 96  7 12 17 20 29.9990000  0  6 24  4  5  9 16  6
  20330035.575    -2814552.46649  -2183304.79749  20330035.5294   20330041.0094
  21736211.629     5096910.31749   3967538.12149  21736211.9734   21736216.3094
  20313406.428    -5565239.96449  -4323552.90849  20313406.0134   20313410.5264
  22689399.025     6746768.35949   5250283.39349  22689399.0724   22689404.8954
  24548701.366    -1980371.15649  -1530779.62449  24548700.1454   24548709.3744
  24290497.419    -7380076.91549  -5294538.65749  24290497.3324   24290503.5734
 96  7 12 17 20 59.9990000  0  6 24  4  5  9 16  6
  20330677.203    -2811178.70349  -2180675.89749  20330677.8194   20330682.8994
  21749717.965     5167886.36049   4022844.11149  21749718.3364   21749722.7594
  20307713.067    -5595159.07949  -4346866.51049  20307712.7194   20307717.0804
  22705115.562     6829357.61249   5314638.60349  22705115.2384   22705121.4954
  24528930.231    -2084263.89649  -1611734.91449  24528930.7014   24528939.0954
  24274803.466    -7462546.19149  -5358800.35549  24274804.3554   24274810.5884
 96  7 12 17 21 29.9990000  0  6 24  4  5  9 16  6
  20331407.529    -2807341.28049  -2177685.69849  20331408.5064   20331413.1564
  21763277.950     5239143.87449   4078369.42849  21763278.0084   21763282.4654
  20302099.613    -5624657.76249  -4369852.49949  20302099.6094   20302103.7594
  22720874.174     6912170.28249   5379167.89549  22720873.7934   22720879.7714
  24509143.636    -2188251.40349  -1692764.00349  24509142.7654   24509151.0274
  24259107.299    -7545029.79749  -5423073.20449  24259107.5654   24259114.2604
 96  7 12 17 21 59.9990000  0  6 24  4  5  9 16  6
  20332222.904    -2803057.83349  -2174347.95649  20332223.3854   20332227.9274
  21776891.356     5310682.88949   4134114.09649  21776891.3604   21776895.8494
  20296566.844    -5653731.23749  -4392507.16249  20296566.6834   20296571.2304
  22736673.137     6995196.26249   5443863.39549  22736673.8614   22736679.4084
  24489339.119    -2292323.57549  -1773859.10249  24489337.9614   24489346.7264
  24243413.006    -7627506.80349  -5487340.91949  24243413.1654   24243419.3794
 96  7 12 17 22 29.9990000  0  6 24  4  5  9 16  6
  20333124.698    -2798318.33549  -2170654.84849  20333125.1644   20333130.0204
  21790559.763     5382512.47749   4190085.18149  21790560.1014   21790564.1424
  20291115.813    -5682378.28549  -4414829.54549  20291115.2754   20291120.0714
  22752515.095     7078440.96849   5508729.33049  22752514.6364   22752520.1174
  24469523.312    -2396447.53549  -1854994.55449  24469523.8904   24469531.9964
  24227727.202    -7709934.92449  -5551570.52449  24227727.8904   24227734.4454
 96  7 12 17 22 59.9990000  0  6 24  4  5  9 16  6
  20334115.230    -2793112.91049  -2166598.67249  20334115.5744   20334120.8874
  21804287.480     5454649.78549   4246296.05249  21804287.2104   21804291.7314
  20285746.560    -5710593.34649  -4436815.31049  20285746.4394   20285750.8964
  22768395.613     7161896.57949   5573759.62849  22768395.7934   22768401.2614
  24449704.963    -2500601.04149  -1936153.04349  24449703.2224   24449711.7884
  24212052.795    -7792304.50349  -5615754.53849  24212051.8364   24212058.1384
 96  7 12 17 23 29.9990000  0  6 24  4  5  9 16  6
  20335192.693    -2787449.54949  -2162185.66449  20335193.2694   20335198.7184
  21818072.182     5527088.34349   4302741.66449  21818072.0194   21818076.2734
  20280456.610    -5738393.19149  -4458477.53249  20280456.4004   20280460.4514
  22784313.601     7245545.08449   5638940.24749  22784313.4154   22784319.0994
  24429873.614    -2604809.95849  -2017354.68849  24429873.0384   24429881.2804
  24196382.122    -7874647.97949  -5679918.20949  24196382.9794   24196389.7254
 96  7 12 17 23 59.9990000  0  6 24  4  5  9 16  6
  20336361.393    -2781309.58349  -2157401.28049  20336361.8674   20336366.8134
  21831915.551     5599836.68349   4359428.66149  21831915.8804   21831919.8434
  20275246.108    -5765775.19749  -4479814.16049  20275245.5424   20275249.7564
  22800267.928     7329389.18349   5704273.28649  22800268.1364   22800273.7504
  24410032.822    -2709075.95149  -2098600.78049  24410032.2494   24410040.3094
  24180720.110    -7956957.02149  -5744055.05449  24180719.7504   24180725.5864
 96  7 12 17 24 29.9990000  0  6 24  4  5  9 16  6
  20337625.029    -2774668.83949  -2152226.67949  20337625.3204   20337630.4744
  21845818.474     5672897.96949   4416359.51249  21845819.0814   21845822.9094
  20270118.326    -5792720.71349  -4500810.66749  20270118.0344   20270122.4404
  22816262.741     7413437.10949   5769765.15949  22816261.8714   22816267.7124
  24390182.506    -2813389.46549  -2179883.91749  24390181.4654   24390190.0314
  24165063.935    -8039233.08949  -5808166.18449  24165062.2244   24165069.8514
 96  7 12 17 24 59.9990000  0  6 24  4  5  9 16  6
  20338981.326    -2767540.73749  -2146672.31949  20338981.9514   20338987.0514
  21859777.391     5746251.01349   4473517.70249  21859777.6464   21859781.4314
  20265073.482    -5819230.69749  -4521467.80349  20265073.1764   20265077.7874
  22832292.373     7497678.06149   5835407.42449  22832292.7394   22832298.2854
  24370318.353    -2917776.12249  -2261224.03149  24370317.3304   24370325.2174
  24149407.038    -8121508.72149  -5872277.00649  24149406.0694   24149413.5704
 96  7 12 17 25 29.9990000  0  6 24  4  5  9 16  6
  20340428.603    -2759936.23249  -2140746.73249  20340428.9454   20340433.8604
  21873786.765     5819870.78549   4530883.74149  21873787.1524   21873791.1334
  20260108.903    -5845320.35049  -4541797.40549  20260108.5734   20260113.5264
  22848358.286     7582102.11549   5901192.38249  22848358.3084   22848364.2894
  24350437.147    -3022248.96449  -2342631.23449  24350437.2074   24350444.5664
  24133751.311    -8203775.62949  -5936381.01349  24133751.3124   24133758.1384
 96  7 12 17 25 59.9990000  0  6 24  4  5  9 16  6
  20341963.670    -2751869.19549  -2134460.73949  20341964.0004   20341969.2114
  21887844.239     5893744.02749   4588447.28149  21887844.6524   21887848.8314
  20255222.839    -5870996.72549  -4561804.98049  20255222.5284   20255227.2894
  22864457.146     7666702.44349   5967114.69149  22864456.3544   22864462.4114
  24330541.033    -3126806.01949  -2424104.10549  24330539.5934   24330548.4134
  24118098.865    -8286025.12449  -6000471.45049  24118099.1774   24118106.2854
 96  7 12 17 26 29.9990000  0  6 24  4  5  9 16  6
  20343583.682    -2743354.41449  -2127825.85049  20343584.4414   20343589.3014
  21901949.215     5967865.48849   4646204.24049  21901949.5964   21901953.8904
  20250414.193    -5896264.61049  -4581494.24549  20250413.8914   20250418.8754
  22880594.230     7751502.69649   6033192.77749  22880593.9904   22880599.8654
  24310628.609    -3231442.28949  -2505638.75449  24310629.1264   24310634.7964
  24102449.125    -8368269.25749  -6064557.72849  24102449.6494   24102455.6774
 96  7 12 17 26 59.9990000  0  6 24  4  5  9 16  6
  20345290.271    -2734386.87749  -2120838.16249  20345290.8634   20345296.1404
  21916104.186     6042250.56849   4704166.61549  21916104.6784   21916108.1914
  20245683.718    -5921124.67249  -4600865.72549  20245683.6584   20245688.1634
  22896773.462     7836523.03549   6099442.35549  22896773.0834   22896778.2854
  24290706.552    -3336136.50049  -2587218.52649  24290704.9404   24290713.4794
  24086803.019    -8450493.16049  -6128628.23449  24086802.5484   24086809.3374
 96  7 12 17 27 29.9990000  0  6 24  4  5  9 16  6
  20347084.888    -2724957.22849  -2113490.38949  20347085.2844   20347090.2594
  21930313.418     6116919.22949   4762349.96349  21930313.6284   21930317.4854
  20241033.289    -5945565.27249  -4619910.35349  20241033.0294   20241037.3334
  22912993.508     7921757.44649   6165858.72849  22912992.3674   22912997.9994
  24270777.411    -3440856.78649  -2668818.62449  24270776.7834   24270785.2794
  24071164.474    -8532674.39649  -6192665.49249  24071163.6674   24071171.0864
 96  7 12 17 27 59.9990000  0  6 24  4  5  9 16  6
  20348968.170    -2715060.94049  -2105778.99949  20348968.7024   20348973.8764
  21944576.414     6191872.67449   4820755.22449  21944576.6374   21944580.4114
  20236464.212    -5969573.55449  -4638618.11149  20236464.0634   20236468.6004
  22929252.746     8007204.06649   6232440.46449  22929252.5884   22929258.1114
  24250847.715    -3545590.56549  -2750429.30349  24250845.0894   24250854.7294
  24055531.909    -8614821.17849  -6256675.90849  24055532.0464   24055538.6264
 96  7 12 17 28 29.9990000  0  6 24  4  5  9 16  6
  20350940.400    -2704696.84149  -2097703.08349  20350940.7524   20350945.9424
  21958891.873     6267100.15749   4879374.01949  21958892.0554   21958895.8914
  20231978.035    -5993150.19749  -4656989.52449  20231977.4204   20231982.0544
  22945548.528     8092839.40849   6299169.25849  22945548.4504   22945554.5024
  24230916.663    -3650327.72049  -2832042.56749  24230917.7474   24230925.3784
  24039904.770    -8696941.52049  -6320665.73549  24039904.7764   24039911.9144
 96  7 12 17 28 59.9990000  0  6 24  4  5  9 16  6
  20353002.328    -2693861.91049  -2089260.27949  20353002.9054   20353007.7114
  21973261.066     6342611.82449   4938214.25449  21973261.6944   21973265.6014
  20227579.124    -6016266.66349  -4675002.36049  20227578.6984   20227583.4024
  22961873.081     8178625.04549   6366015.14449  22961872.8114   22961878.4234
  24210987.037    -3755056.11749  -2913649.02749  24210986.4284   24210995.6684
  24024287.659    -8779011.23549  -6384616.10049  24024287.3714   24024294.9804
 96  7 12 17 29 29.9990000  0  6 24  4  5  9 16  6
  20355149.158    -2682580.98249  -2080469.95049  20355149.3234   20355154.3074
  21987680.742     6418386.10149   4997259.12349  21987680.7814   21987684.7444
  20223267.421    -6038923.29649  -4692656.88949  20223267.1324   20223271.6664
  22978221.100     8264534.48849   6432957.51849  22978221.1574   22978227.4014
  24191055.887    -3859798.63949  -2995266.48649  24191054.9914   24191063.8954
  24008676.224    -8861051.74349  -6448543.70449  24008676.1754   24008682.2884
 96  7 12 17 29 59.9990000  0  6 24  4  5  9 16  6
  20357380.965    -2670850.51349  -2071329.32949  20357381.4074   20357386.8634
  22002149.667     6494421.98549   5056507.83849  22002149.7894   22002154.1124
  20219044.584    -6061113.80249  -4709948.19549  20219044.5974   20219048.9054
  22994597.413     8350592.39449   6500015.57249  22994597.0494   22994603.4114
  24171119.792    -3964562.97049  -3076900.92449  24171118.8434   24171127.1574
  23993067.801    -8943075.37849  -6512458.15049  23993068.0214   23993073.4024
 96  7 12 17 30 29.9990000  0  6 24  4  5  9 16  6
  20359694.967    -2658691.71449  -2061854.95149  20359695.2424   20359700.5124
  22016668.885     6570719.11849   5115960.12349  22016668.6984   22016673.0324
  20214909.636    -6082844.16149  -4726880.94849  20214909.0634   20214914.0774
  23011002.145     8436799.48449   6567189.89749  23011001.5564   23011008.1154
  24151179.400    -4069351.84649  -3158554.53549  24151179.4794   24151186.8594
  23977459.702    -9025092.90949  -6576367.82749  23977459.6644   23977465.9814
 96  7 12 17 30 59.9990000  0  6 24  4  5  9 16  6
  20362089.034    -2646110.17749  -2052051.16049  20362089.2284   20362094.7104
  22031234.842     6647266.33749   5175607.28149  22031235.1234   22031239.3974
  20210859.073    -6104129.65849  -4743467.05449  20210858.9044   20210863.9244
  23027436.130     8523160.70749   6634484.32649  23027435.8284   23027441.8434
  24131229.971    -4174190.53049  -3240247.01349  24131228.7934   24131236.1734
  23961850.965    -9107118.24849  -6640283.61149  23961850.5444   23961857.7624
 96  7 12 17 31 29.9990000  0  6 24  4  5  9 16  6
  20364566.047    -2633093.65749  -2041908.42449  20364566.5264   20364571.5724
  22045846.139     6724048.64049   5235437.62349  22045846.7934   22045850.4154
  20206885.700    -6125010.32149  -4759737.70749  20206885.2614   20206890.3594
  23043903.550     8609699.59449   6701917.18749  23043904.5224   23043909.1464
  24111267.441    -4279091.32149  -3321987.82549  24111266.2074   24111274.4584
  23946237.524    -9189169.14849  -6704219.31049  23946237.0364   23946243.2924
 96  7 12 17 31 59.9990000  0  6 24  4  5  9 16  6
  20367129.627    -2619619.56249  -2031409.13749  20367130.7784   20367135.9134
  22060502.752     6801070.64449   5295454.74349  22060503.0944   22060506.9604
  20202990.577    -6145480.83749  -4775688.75949  20202990.1424   20202994.5474
  23060407.839     8696425.69749   6769495.94549  23060407.3774   23060413.0194
  24091297.436    -4384031.70649  -3403759.55849  24091298.0714   24091305.3494
  23930622.226    -9271224.40149  -6768158.40849  23930622.4394   23930629.3124
 96  7 12 17 32 29.9990000  0  6 24  4  5  9 16  6
  20369783.400    -2605676.12049  -2020544.12549  20369784.0604   20369788.8484
  22075205.077     6878330.56549   5355657.25349  22075205.2904   22075209.3824
  20199175.760    -6165526.82749  -4791309.01049  20199175.2784   20199180.2774
  23076944.079     8783328.65049   6837212.49649  23076944.7814   23076949.7064
  24071324.138    -4488994.33149  -3485548.46949  24071323.9854   24071329.8594
  23915012.193    -9353253.61549  -6832077.20549  23915013.1174   23915018.2954
 96  7 12 17 32 59.9990000  0  6 24  4  5  9 16  6
  20372527.620    -2591253.71549  -2009305.89449  20372528.4254   20372533.3004
  22089952.513     6955829.97749   5416046.37549  22089953.1414   22089957.4674
  20195443.660    -6185138.30049  -4806590.67749  20195443.3524   20195448.0594
  23093512.259     8870391.20049   6905053.39749  23093511.5664   23093517.6294
  24051346.305    -4593976.94249  -3567352.95849  24051346.2754   24051354.2134
  23899411.217    -9435243.01149  -6895964.94749  23899410.6664   23899416.2404
 96  7 12 17 33 29.9990000  0  6 24  4  5  9 16  6
  20375361.141    -2576364.03549  -1997703.54949  20375361.7604   20375366.8994
  22104746.307     7033571.53849   5476624.18849  22104747.0434   22104751.0374
  20191797.154    -6204301.19249  -4821522.80049  20191796.9964   20191801.5624
  23110108.067     8957604.13649   6973011.48649  23110108.7394   23110113.8514
  24031368.581    -4698960.56649  -3649158.31049  24031368.4064   24031375.4354
  23883818.818    -9517179.80749  -6959811.72049  23883818.3384   23883825.5194
 96  7 12 17 33 59.9990000  0  6 24  4  5  9 16  6
  20378276.535    -2561044.43849  -1985766.20449  20378277.0524   20378282.2584
  22119583.665     7111541.68449   5537380.11749  22119583.9354   22119587.8234
  20188240.569    -6222991.75249  -4836086.88249  20188240.4574   20188245.0464
  23126727.772     9044942.17049   7041067.08749  23126727.9484   23126733.7944
  24011391.226    -4803940.71949  -3730960.96949  24011391.3274   24011398.0614
  23868237.939    -9599060.04049  -7023614.42649  23868236.0744   23868243.5114
 96  7 12 17 34 29.9990000  0  6 24  4  5  9 16  6
  20381271.285    -2545307.30049  -1973503.49949  20381271.4824   20381276.7114
  22134467.738     7189756.00749   5598326.31849  22134467.6224   22134471.7074
  20184776.678    -6241194.12149  -4850270.54849  20184776.5454   20184780.8084
  23143372.567     9132410.61849   7109224.28749  23143373.0444   23143378.5424
  23991415.877    -4908912.38549  -3812757.01349  23991415.7424   23991423.0724
  23852667.897    -9680873.84549  -7087365.36949  23852668.1204   23852674.8794
 96  7 12 17 34 59.9990000  0  6 24  4  5  9 16  6
  20384342.769    -2529166.66649  -1960926.38749  20384343.2244   20384348.1274
  22149395.325     7268201.07049   5659452.31149  22149395.4554   22149399.2994
  20181403.111    -6258925.02649  -4864086.84249  20181402.4454   20181406.9144
  23160041.040     9220000.38749   7177476.01049  23160040.6874   23160046.9674
  23971440.831    -5013884.12149  -3894553.12649  23971440.0594   23971448.3934
  23837107.424    -9762649.49449  -7151086.60149  23837106.5464   23837113.4244
 96  7 12 17 35 29.9990000  0  6 24  4  5  9 16  6
  20387495.373    -2512601.24449  -1948018.26549  20387495.4844   20387500.4374
  22164366.581     7346876.65149   5720757.93049  22164366.7424   22164370.7254
  20178121.196    -6276170.26649  -4877524.69749  20178120.8504   20178125.4094
  23176736.135     9307736.33349   7245841.65249  23176736.1314   23176741.8264
  23951468.387    -5118838.73449  -3976335.92149  23951467.7444   23951475.7404
  23821555.159    -9844375.12749  -7214768.84249  23821554.4914   23821561.8004
 96  7 12 17 35 59.9990000  0  6 24  4  5  9 16  6
  20390729.062    -2495607.62249  -1934776.48449  20390729.5714   20390733.9914
  22179380.902     7425775.92749   5782237.85849  22179381.0274   22179385.1274
  20174932.387    -6292926.77149  -4890581.71949  20174932.1164   20174936.6354
  23193456.744     9395604.89849   7314310.59649  23193457.4844   23193463.3754
  23931497.772    -5223784.06349  -4058111.45849  23931496.6874   23931504.5194
  23806010.687    -9926063.68049  -7278422.18549  23806009.8104   23806016.9524
 96  7 12 17 36 29.9990000  0  6 24  4  5  9 16  6
  20394047.246    -2478170.08749  -1921188.79849  20394047.4264   20394052.4704
  22194435.067     7504886.81149   5843882.67149  22194435.4434   22194439.3654
  20171830.517    -6309227.72949  -4903283.76849  20171830.3204   20171834.5834
  23210198.989     9483587.75749   7382868.65149  23210199.5984   23210204.9884
  23911526.763    -5328735.63549  -4139891.88249  23911525.8414   23911534.5684
  23790466.387   -10007747.99349  -7342072.22349  23790465.8554   23790472.3554
 96  7 12 17 36 59.9990000  0  6 24  4  5  9 16  6
  20397453.930    -2460268.51149  -1907239.52549  20397453.6724   20397458.9574
  22209527.180     7584197.01549   5905682.80249  22209527.2784   22209531.5944
  20168812.184    -6325088.94449  -4915643.16249  20168811.7714   20168816.1984
  23226964.107     9571683.77349   7451514.83849  23226963.5404   23226970.2454
  23891554.913    -5433678.51249  -4221665.49149  23891555.6244   23891563.9914
  23774923.832   -10089424.22549  -7405715.98149  23774923.6864   23774930.1414
 96  7 12 17 37 29.9990000  0  6 24  4  5  9 16  6
  20400948.299    -2441902.51149  -1892928.35749  20400949.1434   20400953.6084
  22224661.586     7663729.18949   5967655.90049  22224662.0034   22224665.9954
  20165880.127    -6340497.73849  -4927650.02049  20165879.7024   20165884.0504
  23243751.586     9659905.59949   7520259.07449  23243752.2314   23243758.3154
  23871589.486    -5538605.01949  -4303426.33649  23871589.3844   23871597.1704
  23759385.670   -10171071.79949  -7469337.39849  23759387.1324   23759393.7674
 96  7 12 17 37 59.9990000  0  6 24  4  5  9 16  6
  20404527.889    -2423094.62149  -1878272.86649  20404528.2464   20404532.9514
  22239838.407     7743482.70249   6029801.47349  22239838.8674   22239842.8324
  20163030.675    -6355470.31149  -4939316.96849  20163030.5474   20163034.8784
  23260563.844     9748253.71249   7589101.70049  23260564.2384   23260569.8474
  23851625.712    -5643516.20049  -4385175.16549  23851623.7814   23851632.0854
  23743851.356   -10252709.04949  -7532950.78449  23743851.1504   23743858.9094
 96  7 12 17 38 29.9990000  0  6 24  4  5  9 16  6
  20408185.371    -2403873.27449  -1863295.20549  20408185.7084   20408190.7954
  22255054.077     7823443.70949   6092108.72149  22255054.7484   22255058.9854
  20160259.314    -6370034.82949  -4950665.94649  20160259.0384   20160263.6274
  23277400.445     9836730.47049   7658044.55249  23277401.0394   23277407.4184
  23831664.791    -5748411.12749  -4466911.38749  23831664.0854   23831672.1704
  23728317.742   -10334336.75249  -7596556.73849  23728318.5534   23728324.6674
 96  7 12 17 38 59.9990000  0  6 24  4  5  9 16  6
  20411919.534    -2384250.96549  -1848005.09949  20411920.0944   20411924.7724
  22270313.040     7903625.89049   6154588.31549  22270312.7854   22270317.1964
  20157571.649    -6384161.22949  -4961673.53349  20157570.9494   20157575.4864
  23294264.643     9925349.83549   7727098.46349  23294264.4074   23294271.8324
  23811709.605    -5853275.55949  -4548623.79749  23811708.3044   23811716.8714
  23712791.957   -10415933.94049  -7660138.90849  23712791.4684   23712797.2054
 96  7 12 17 39 29.9990000  0  6 24  4  5  9 16  6
  20415725.236    -2364251.66849  -1832421.23749  20415725.5564   20415730.2544
  22285611.941     7984024.05749   6217236.21349  22285612.0594   22285616.0504
  20154967.265    -6397844.41649  -4972335.75749  20154966.9484   20154971.4884
  23311151.404    10014090.79649   7796247.25449  23311151.4384   23311157.9104
  23791755.500    -5958132.93549  -4630330.68849  23791755.0884   23791761.8414
  23697261.297   -10497541.33049  -7723729.04149  23697261.0784   23697267.5784
 96  7 12 17 39 59.9990000  0  6 24  4  5  9 16  6
  20419607.527    -2343850.01849  -1816523.85149  20419608.1294   20419612.8614
  22300951.031     8064631.55949   6280047.22549  22300951.2374   22300955.6284
  20152448.413    -6411082.10649  -4982650.84249  20152448.0754   20152452.5324
  23328060.719    10102948.18049   7865486.68849  23328059.9514   23328066.1664
  23771807.656    -6062957.11649  -4712011.70749  23771806.9404   23771815.3604
  23681733.972   -10579142.03249  -7787313.95849  23681733.2454   23681740.1034
 96  7 12 17 40 29.9990000  0  6 24  4  5  9 16  6
  20423569.596    -2323028.41749  -1800299.23149  20423570.1084   20423575.0404
  22316329.442     8145445.56649   6343019.15249  22316329.8404   22316333.9604
  20150015.791    -6423867.69749  -4992613.64449  20150015.0854   20150019.6324
  23344988.472    10191902.61549   7934801.77549  23344987.9294   23344994.5864
  23751866.779    -6167748.21249  -4793666.98649  23751865.7254   23751873.5074
  23666207.585   -10660729.89449  -7850888.87349  23666207.3634   23666214.2424
 96  7 12 17 40 59.9990000  0  6 24  4  5  9 16  6
  20427615.311    -2301768.95449  -1783733.41849  20427615.7094   20427620.6474
  22331745.465     8226456.22349   6406144.31649  22331745.5714   22331749.8004
  20147670.638    -6436190.41949  -5002215.77149  20147670.1394   20147674.7074
  23361931.022    10280936.33849   8004178.64649  23361931.2374   23361936.7534
  23731931.053    -6272510.42649  -4875299.73649  23731929.7624   23731938.6004
  23650680.837   -10742325.28949  -7914469.64449  23650679.7714   23650686.0544
 96  7 12 17 41 29.9990000  0  6 24  4  5  9 16  6
  20431748.718    -2280045.32349  -1766805.91449  20431749.1834   20431754.3804
  22347199.755     8307669.23749   6469427.15649  22347199.9804   22347204.2314
  20145414.767    -6448043.40549  -5011451.87149  20145414.6924   20145418.9954
  23378891.451    10370065.00449   8073629.49949  23378890.9514   23378897.1904
  23712006.080    -6377216.11749  -4956888.43849  23712005.4564   23712012.7834
  23635157.055   -10823901.82749  -7978035.75849  23635157.0734   23635162.7724
 96  7 12 17 41 59.9990000  0  6 24  4  5  9 16  6
  20435968.988    -2257868.06449  -1749524.93849  20435969.4844   20435974.4224
  22362689.067     8389065.59849   6532852.87049  22362689.2424   22362693.7664
  20143247.733    -6459433.88049  -5020327.57149  20143247.1064   20143251.3594
  23395869.579    10459289.37249   8143154.94749  23395870.0044   23395875.5114
  23692091.738    -6481865.99449  -5038433.67149  23692091.3244   23692098.6004
  23619641.500   -10905440.04949  -8041571.99949  23619640.8254   23619647.6614
 96  7 12 17 42 29.9990000  0  6 24  4  5  9 16  6
  20440269.247    -2235271.49349  -1731917.22549  20440269.5184   20440274.5514
  22378210.226     8470632.54449   6596411.50849  22378210.6574   22378215.1894
  20141168.969    -6470357.37249  -5028839.38349  20141168.4544   20141172.9314
  23412864.792    10548595.95549   8212744.44449  23412863.7094   23412870.9574
  23672184.996    -6586477.43549  -5119948.98349  23672183.4344   23672191.7114
  23604126.301   -10986967.81049  -8105100.09049  23604127.6254   23604132.3144
 96  7 12 17 42 59.9990000  0  6 24  4  5  9 16  6
  20444645.754    -2212273.63849  -1713996.82449  20444646.1424   20444650.8984
  22393764.661     8552368.71649   6660102.00449  22393764.5614   22393768.7414
  20139179.711    -6480810.73649  -5036984.86349  20139179.0724   20139183.5874
  23429874.399    10637982.68549   8282396.40149  23429874.5064   23429880.3414
  23652285.197    -6691049.61549  -5201433.67449  23652284.8484   23652292.9294
  23588615.161   -11068479.87149  -8168615.94449  23588615.4104   23588620.8204
 96  7 12 17 43 29.9990000  0  6 24  4  5  9 16  6
  20449098.627    -2188870.54849  -1695760.65649  20449099.3174   20449104.0314
  22409354.014     8634292.02649   6723938.32949  22409354.1804   22409358.6724
  20137281.994    -6490781.15049  -5044754.01949  20137281.9024   20137286.1004
  23446902.786    10727469.05549   8352125.97749  23446903.7164   23446909.4674
  23632393.808    -6795577.31849  -5282883.71949  23632393.5394   23632401.4954
  23573114.848   -11149939.44849  -8232090.90149  23573114.1474   23573120.3884
 96  7 12 17 43 59.9990000  0  6 24  4  5  9 16  6
  20453625.965    -2165082.22949  -1677224.30649  20453626.3524   20453631.2114
  22424979.107     8716400.25549   6787918.74649  22424978.6554   22424983.2564
  20135474.226    -6500281.70049  -5052157.04049  20135474.2254   20135478.3144
  23463947.352    10817033.89849   8421916.70649  23463947.0064   23463953.8094
  23612507.330    -6900079.97549  -5364314.27849  23612507.5694   23612515.3614
  23557621.068   -11231357.98749  -8295533.87749  23557620.7444   23557625.8474
 96  7 12 17 44 29.9990000  0  6 24  4  5  9 16  6
  20458223.847    -2140918.81949  -1658395.68149  20458224.4474   20458229.3724
  22440635.938     8798680.31349   6852033.05949  22440636.1744   22440640.7644
  20133751.204    -6509337.80449  -5059213.74049  20133750.7524   20133754.9514
  23481000.603    10906646.14649   8491744.35249  23481000.0274   23481005.0864
  23592623.715    -7004571.05549  -5445735.78349  23592623.2554   23592630.3664
  23542130.179   -11312757.85349  -8358962.29249  23542130.1414   23542135.9624
 96  7 12 17 44 59.9990000  0  6 24  4  5  9 16  6
  20462903.855    -2116325.67849  -1639232.19849  20462904.3274   20462909.1054
  22456333.841     8881171.62649   6916311.97949  22456334.0154   22456338.5924
  20132118.678    -6517915.91949  -5065897.99349  20132118.4104   20132122.5404
  23498067.894    10996342.25049   8561637.35949  23498067.7574   23498073.8994
  23572749.898    -7109013.53049  -5527119.40449  23572748.7284   23572756.3744
  23526655.179   -11394086.33349  -8422335.09649  23526653.5544   23526660.7124
 96  7 12 17 45 29.9990000  0  6 24  4  5  9 16  6
  20467661.442    -2091325.29349  -1619751.38349  20467661.7784   20467666.7094
  22472067.874     8963853.88949   6980739.69549  22472068.1314   22472072.4704
  20130574.089    -6526034.89649  -5072224.47949  20130573.6224   20130577.7534
  23515149.777    11086105.61549   8631582.78449  23515149.4094   23515155.6314
  23552882.999    -7213413.84449  -5608470.21149  23552881.4724   23552889.2044
  23511185.969   -11475372.16049  -8485674.64349  23511186.3804   23511191.7994
 96  7 12 17 45 59.9990000  0  6 24  4  5  9 16  6
  20472494.093    -2065929.54249  -1599962.48749  20472494.4194   20472499.2034
  22487835.259     9046714.49249   7045306.37349  22487835.9574   22487839.9484
  20129115.461    -6533699.59249  -5078196.97549  20129114.6774   20129119.0574
  23532239.851    11175914.55749   8701563.71549  23532239.1414   23532246.0544
  23533026.044    -7317756.92749  -5689776.43549  23533026.1154   23533033.7094
  23495722.099   -11556639.81849  -8549000.06049  23495720.3094   23495727.3684
 96  7 12 17 46 29.9990000  0  6 24  4  5  9 16  6
  20477403.804    -2040128.88049  -1579858.07749  20477404.0704   20477408.8754
  22503637.246     9129752.22849   7110011.08249  22503637.6874   22503641.1494
  20127747.697    -6540885.64549  -5083796.50049  20127747.3904   20127751.9414
  23549342.514    11265784.87849   8771592.49349  23549340.9524   23549347.2594
  23513185.601    -7422019.25849  -5771019.73149  23513185.0104   23513192.6824
  23480259.890   -11637889.79649  -8612311.66649  23480260.1464   23480265.1624
 96  7 12 17 46 59.9990000  0  6 24  4  5  9 16  6
  20482388.652    -2013934.03749  -1559446.52149  20482388.9224   20482393.6514
  22519472.715     9212968.42449   7174854.84949  22519472.8474   22519477.5464
  20126474.247    -6547577.35549  -5089010.83249  20126473.8574   20126478.3504
  23566456.822    11355729.36149   8841679.03349  23566457.9184   23566463.1794
  23493361.224    -7526197.33049  -5852197.36249  23493360.9944   23493369.0114
  23464800.816   -11719129.11749  -8675614.99549  23464799.6534   23464806.2584
 96  7 12 17 47 29.9990000  0  6 24  4  5  9 16  6
  20487444.819    -1987363.35249  -1538742.09249  20487445.5234   20487450.2824
  22535339.774     9296350.02449   7239827.50749  22535339.6894   22535344.9324
  20125293.951    -6553780.82149  -5093844.70849  20125293.8064   20125297.7574
  23583587.051    11445745.13749   8911821.13249  23583587.1144   23583593.1654
  23473552.565    -7630290.49549  -5933308.84349  23473552.2434   23473559.5684
  23449342.193   -11800364.64849  -8738915.37549  23449342.6294   23449347.3454
 96  7 12 17 47 59.9990000  0  6 24  4  5  9 16  6
  20492575.753    -1960400.20549  -1517731.85049  20492575.9894   20492581.0964
  22551238.028     9379895.62049   7304927.95149  22551238.4684   22551242.7654
  20124207.217    -6559489.84449  -5098293.31149  20124207.0514   20124211.5934
  23600731.761    11535839.03349   8982024.10449  23600730.6694   23600737.1744
  23453758.247    -7734315.43449  -6014367.16149  23453757.4764   23453764.6744
  23433887.117   -11881580.69649  -8802200.55249  23433887.1234   23433892.4314
 96  7 12 17 48 29.9990000  0  6 24  4  5  9 16  6
  20497779.359    -1933053.65849  -1496422.85749  20497779.9134   20497784.7174
  22567163.826     9463588.65449   7370143.28149  22567164.1334   22567168.4904
  20123210.908    -6564725.09949  -5102372.74149  20123210.5504   20123215.6384
  23617889.932    11626003.43549   9052282.01649  23617889.8114   23617895.0064
  23433970.378    -7838298.24149  -6095392.64549  23433969.3784   23433977.6174
  23418432.591   -11962793.71449  -8865483.37649  23418433.4684   23418438.7764
 96  7 12 17 48 59.9990000  0  6 24  4  5  9 16  6
  20503061.362    -1905298.17949  -1474795.21949  20503061.5164   20503066.5194
  22583121.866     9547449.27949   7435489.19049  22583122.3844   22583126.8284
  20122305.463    -6569483.94049  -5106080.93949  20122305.2194   20122309.9594
  23635061.452    11716246.32849   9122601.08849  23635061.7564   23635067.3444
  23414196.422    -7942211.22949  -6176363.71749  23414196.4514   23414202.8994
  23402984.089   -12043976.97749  -8928743.02649  23402983.7154   23402990.0084
 96  7 12 17 49 29.9990000  0  6 24  4  5  9 16  6
  20508420.144    -1877136.27749  -1452850.88449  20508420.6334   20508425.3034
  22599110.482     9631467.79149   7500958.13849  22599111.4674   22599115.4424
  20121488.740    -6573777.58449  -5109426.64549  20121488.4614   20121492.7184
  23652246.967    11806554.37249   9192970.91349  23652246.4984   23652253.6104
  23394438.244    -8046040.12449  -6257269.26349  23394437.0654   23394445.8244
  23387542.229   -12125120.60449  -8991971.77249  23387542.2284   23387548.2784
 96  7 12 17 49 59.9990000  0  6 24  4  5  9 16  6
  20513858.889    -1848555.45449  -1430580.11649  20513859.4954   20513864.1694
  22615132.182     9715663.12849   7566564.87249  22615132.3234   22615136.6204
  20120762.010    -6577595.80249  -5112401.88549  20120761.8454   20120766.3664
  23669445.164    11896924.89949   9263389.44349  23669444.3144   23669450.0844
  23374701.465    -8149755.45349  -6338086.33549  23374701.1044   23374708.3454
  23372110.174   -12206221.54449  -9055167.28049  23372109.4864   23372114.6074
 96  7 12 17 50 29.9990000  0  6 24  4  5  9 16  6
  20519374.336    -1819570.71249  -1407994.60749  20519374.9624   20519379.9624
  22631187.597     9800033.24749   7632307.80049  22631188.0064   22631192.2504
  20120124.570    -6580945.44049  -5115011.99249  20120124.2374   20120128.8804
  23686646.274    11987326.42349   9333832.11449  23686646.9314   23686652.6224
  23354991.337    -8253334.30949  -6418797.03049  23354990.8514   23354998.2344
  23356684.154   -12287285.45949  -9118333.93049  23356683.9294   23356689.0164
 96  7 12 17 50 59.9990000  0  6 24  4  5  9 16  6
  20524965.510    -1790191.55049  -1385101.75849  20524965.8154   20524970.5094
  22647275.405     9884574.98249   7698184.46349  22647275.4464   22647280.0204
  20119578.440    -6583814.63449  -5117247.73449  20119578.2874   20119582.6574
  23703853.383    12077747.21649   9404289.84549  23703853.4894   23703858.8944
  23335307.509    -8356772.62549  -6499398.23349  23335307.7704   23335313.6504
  23341267.397   -12368299.08449  -9181461.38749  23341267.2114   23341273.7684
 96  7 12 17 51 29.9990000  0  6 24  4  5  9 16  6
  20530632.807    -1760408.62649  -1361894.29049  20530633.3234   20530638.3244
  22663399.452     9969308.51049   7764210.56549  22663400.1754   22663404.2604
  20119129.261    -6586173.78649  -5119086.03949  20119129.0994   20119133.8644
  23721066.312    12168200.90549   9474773.19349  23721066.4354   23721072.6554
  23315650.877    -8460069.50949  -6579889.25549  23315650.9394   23315656.9634
  23325861.729   -12449257.12149  -9244545.53749  23325861.4584   23325867.5864
 96  7 12 17 51 59.9990000  0  6 24  4  5  9 16  6
  20536376.310    -1730225.00449  -1338374.58649  20536377.0124   20536381.8974
  22679558.533    10054221.74549   7830376.69249  22679558.3674   22679562.2114
  20118777.327    -6588025.19649  -5120528.70449  20118776.9014   20118781.3454
  23738283.461    12258676.82949   9545273.85549  23738283.1624   23738288.1004
  23296016.929    -8563247.47649  -6660287.60049  23296016.5124   23296022.5544
  23310463.823   -12530171.58849  -9307595.72749  23310463.1794   23310469.5344
 96  7 12 17 52 29.9990000  0  6 24  4  5  9 16  6
  20542194.662    -1699652.22549  -1314551.64649  20542194.6764   20542199.7314
  22695743.535    10139278.65949   7896654.79149  22695744.3064   22695748.3954
  20118519.733    -6589379.26349  -5121583.82849  20118519.4584   20118523.9354
  23755507.532    12349185.43149   9615800.00049  23755507.2084   23755511.9394
  23276400.744    -8666328.92549  -6740610.73749  23276400.3514   23276407.4024
  23295072.024   -12611055.39449  -9370622.02649  23295071.8074   23295078.5614
 96  7 12 17 52 59.9990000  0  6 24  4  5  9 16  6
  20548083.647    -1668706.26849  -1290437.90849  20548083.9254   20548088.7044
  22711952.858    10224456.01249   7963026.73749  22711952.9164   22711957.0634
  20118355.282    -6590243.33249  -5122257.14049  20118354.8074   20118359.3984
  23772739.510    12439745.69249   9686366.37149  23772739.5614   23772745.8814
  23256801.478    -8769327.09649  -6820868.95149  23256800.0684   23256807.3504
  23279682.533   -12691928.36249  -9433639.88549  23279682.6714   23279688.6214
 96  7 12 17 53 29.9990000  0  6 24  4  5  9 16  6
  20554044.500    -1637379.62849  -1266027.53949  20554044.8054   20554049.8404
  22728184.315    10309754.70049   8029493.21549  22728184.7834   22728189.4394
  20118285.003    -6590610.68049  -5122543.39749  20118284.9044   20118289.3044
  23789987.390    12530380.05449   9756990.47149  23789987.4744   23789993.3564
  23237219.903    -8872226.51249  -6901050.27649  23237219.3534   23237226.6344
  23264298.286   -12772774.49349  -9496636.81149  23264296.9604   23264303.5564
 96  7 12 17 53 59.9990000  0  6 24  4  5  9 16  6
  20560075.774    -1605682.39049  -1241328.39449  20560076.7184   20560081.8254
  22744433.634    10395145.15049   8096031.20249  22744433.7674   22744438.3704
  20118305.526    -6590506.78349  -5122462.44649  20118305.0324   20118309.5684
  23807246.562    12621084.73449   9827669.34849  23807248.2834   23807252.9034
  23217656.588    -8975031.69049  -6981158.14949  23217656.5634   23217663.0814
  23248919.109   -12853591.45449  -9559611.02749  23248919.1914   23248924.7334
 96  7 12 17 54 29.9990000  0  6 24  4  5  9 16  6
  20566179.403    -1573609.19249  -1216336.29849  20566179.7324   20566184.5824
  22760703.816    10480644.38549   8162653.95349  22760703.8704   22760708.8104
  20118415.052    -6589928.69149  -5122011.99449  20118415.0614   20118419.1954
  23824522.292    12711865.49549   9898407.48549  23824523.1504   23824528.4044
  23198115.626    -9077719.09649  -7061174.25949  23198115.9484   23198122.0384
  23233548.637   -12934363.89249  -9622550.55749  23233549.4644   23233554.5894
 96  7 12 17 54 59.9990000  0  6 24  4  5  9 16  6
  20572353.558    -1541163.24649  -1191053.74649  20572354.0234   20572359.3044
  22776999.545    10566282.12049   8229384.62649  22777000.1794   22777004.4804
  20118615.583    -6588875.98249  -5121191.71149  20118615.0204   20118619.7594
  23841807.547    12802697.58649   9969185.65549  23841806.8604   23841813.8744
  23178599.131    -9180283.28349  -7141094.34349  23178597.9034   23178604.5264
  23218190.585   -13015074.75149  -9685442.09249  23218190.3334   23218195.7344
 96  7 12 17 55 29.9990000  0  6 24  4  5  9 16  6
  20578601.207    -1508332.43449  -1165471.29949  20578601.8064   20578606.7064
  22793325.713    10652074.76949   8296236.01949  22793325.8634   22793330.9044
  20118906.927    -6587345.03349  -5119998.76949  20118906.5904   20118911.0194
  23859097.108    12893561.62949  10039988.74349  23859098.9974   23859104.0514
  23159107.122    -9282714.24049  -7220910.60549  23159106.0064   23159112.9784
  23202845.298   -13095708.92849  -9748273.87649  23202845.7564   23202851.3094
 96  7 12 17 55 59.9990000  0  6 24  4  5  9 16  6
  20584920.803    -1475123.05449  -1139593.86249  20584921.2404   20584926.4514
  22809682.201    10738029.53549   8363213.72549  22809682.3604   22809686.8244
  20119289.108    -6585336.14749  -5118433.40849  20119288.9614   20119293.2664
  23876390.404    12984432.05849  10110796.76449  23876389.8144   23876395.9524
  23139643.744    -9384992.88749  -7300608.14149  23139644.1564   23139650.2334
  23187514.071   -13176278.95749  -9811055.69349  23187514.0264   23187519.8564
 96  7 12 17 56 29.9990000  0  6 24  4  5  9 16  6
  20591311.194    -1441541.25549  -1113426.23149  20591311.5644   20591316.7594
  22826073.795    10824165.89049   8430332.94149  22826073.6224   22826078.4784
  20119767.093    -6582824.98649  -5116476.66749  20119766.5054   20119771.1704
  23893681.855    13075300.10649  10181602.91649  23893681.1774   23893688.0184
  23120212.450    -9487101.34449  -7380173.08849  23120212.6014   23120220.0354
  23172193.796   -13256786.92549  -9873789.14249  23172193.1844   23172199.3264
 96  7 12 17 56 59.9990000  0  6 24  4  5  9 16  6
  20597771.065    -1407593.81949  -1086973.68749  20597771.5814   20597776.6574
  22842497.168    10910473.98749   8497585.97449  22842497.6344   22842502.4654
  20120342.889    -6579796.80549  -5114117.05449  20120342.7204   20120347.3384
  23910971.906    13166157.83749  10252401.22549  23910971.6854   23910978.3064
  23100812.938    -9589048.94649  -7459612.73349  23100812.5424   23100819.3394
  23156883.199   -13337242.94749  -9936482.10349  23156883.3404   23156888.5044
 96  7 12 17 57 29.9990000  0  6 24  4  5  9 16  6
  20604299.079    -1373289.10949  -1060242.74849  20604299.6024   20604304.6844
  22858948.695    10996925.64849   8564950.87249  22858948.7554   22858954.8074
  20121019.163    -6576244.49549  -5111349.03049  20121018.9664   20121023.4664
  23928258.038    13257002.96549  10323189.61349  23928257.9904   23928266.2114
  23081442.507    -9690840.94949  -7538931.11149  23081442.2154   23081449.5414
  23141580.125   -13417663.97949  -9999147.80349  23141579.6784   23141585.0984
 96  7 12 17 57 59.9990000  0  6 24  4  5  9 16  6
  20610891.488    -1338646.95249  -1033248.85949  20610892.0014   20610897.0054
  22875424.028    11083505.38549   8632415.57149  22875424.9324   22875429.6214
  20121793.619    -6572174.59749  -5108177.68749  20121793.4974   20121797.7934
  23945541.451    13347829.89549  10393963.77449  23945542.7944   23945548.0674
  23062097.082    -9792500.18849  -7618146.02649  23062096.5874   23062103.7634
  23126277.709   -13498074.15749 -10061805.03849  23126277.7364   23126284.2304
 96  7 12 17 58 29.9990000  0  6 24  4  5  9 16  6
  20617551.876    -1303645.33949  -1005974.87849  20617552.4744   20617557.3444
  22891925.628    11170220.19849   8699985.51549  22891926.3534   22891930.6744
  20122667.867    -6567580.78949  -5104598.10149  20122667.5264   20122671.9734
  23962826.966    13438659.25949  10464739.83049  23962827.2164   23962833.5694
  23042774.267    -9894045.56049  -7697272.20849  23042773.3284   23042779.9254
  23110979.456   -13578468.85049 -10124450.21049  23110978.5184   23110984.6814
 96  7 12 17 58 59.9990000  0  6 24  4  5  9 16  6
  20624284.405    -1268266.21049   -978406.72849  20624285.0464   20624289.8184
  22908453.058    11257072.05649   8767662.25449  22908454.0074   22908458.1024
  20123642.270    -6562461.48749  -5100609.04449  20123641.8384   20123646.2814
  23980114.772    13529503.67849  10535527.63249  23980113.2274   23980120.3584
  23023475.546    -9995461.72449  -7776297.69449  23023474.7444   23023482.0454
  23095686.353   -13658831.91349 -10187070.72549  23095686.5814   23095692.4534
 96  7 12 17 59 29.9990000  0  6 24  4  5  9 16  6
  20631088.673    -1232509.08649   -950544.03549  20631089.2634   20631093.9064
  22925005.012    11344053.89249   8835440.27149  22925005.7264   22925010.6374
  20124712.034    -6556839.11149  -5096227.97649  20124711.7304   20124716.3954
  23997403.835    13620361.75349  10606326.07049  23997404.0974   23997411.6524
  23004203.702   -10096731.98849  -7855209.51849  23004203.7654   23004209.8014
  23080398.052   -13739174.28049 -10249675.12749  23080398.2974   23080404.1114
 96  7 12 17 59 59.9990000  0  6 24  4  5  9 16  6
  20637967.024    -1196366.73449   -922381.16949  20637966.9064   20637971.6274
  22941581.992    11431163.19449   8903317.61849  22941582.1944   22941586.4924
  20125874.952    -6550723.48549  -5091462.56649  20125875.5924   20125880.1624
  24014693.369    13711222.67749  10677126.71049  24014694.0434   24014701.1744
  22984963.073   -10197843.40749  -7933997.57249  22984962.4364   22984968.8174
  23065114.733   -13819490.24849 -10312258.94949  23065114.0974   23065120.5314
 96  7 12 18  0 29.9990000  0  6 24  4  5  9 16  6
  20644922.094    -1159815.18549   -893899.44849  20644922.3874   20644926.8264
  22958181.271    11518395.57849   8971290.86749  22958181.6194   22958186.3404
  20127134.788    -6544108.39549  -5086307.96249  20127134.1274   20127138.7674
  24031986.093    13802095.15749  10747936.36049  24031986.2844   24031993.3654
  22965757.371   -10298769.47449  -8012641.19749  22965755.9674   22965763.4164
  23049841.819   -13899748.88849 -10374798.11049  23049841.9374   23049847.5044
 96  7 12 18  0 59.9990000  0  6 24  4  5  9 16  6
  20651951.305    -1122877.12749   -865116.54649  20651951.5504   20651956.2964
  22974798.918    11605720.66449   9039336.35049  22974798.6094   22974803.2914
  20128485.008    -6537013.41149  -5080779.41449  20128484.5484   20128488.9454
  24049276.701    13892959.97149  10818740.02949  24049277.6904   24049284.9314
  22946589.181   -10399496.06549  -8091129.40149  22946588.7464   22946595.2174
  23034577.826   -13979961.04149 -10437301.04049  23034577.4554   23034584.3624
 96  7 12 18  1 29.9990000  0  6 24  4  5  9 16  6
  20659055.669    -1085543.41549   -836025.35049  20659056.0854   20659060.5794
  22991434.504    11693141.14449   9107456.17049  22991434.8824   22991439.5514
  20129926.002    -6529439.08249  -5074877.35549  20129925.8544   20129930.2684
  24066568.796    13983818.06549  10889538.45749  24066567.4434   24066574.3854
  22927459.961   -10500021.05249  -8169460.48549  22927459.9394   22927466.2684
  23019324.159   -14060118.26449 -10499761.18549  23019324.3314   23019330.1834
 96  7 12 18  1 59.9990000  0  6 24  4  5  9 16  6
  20666231.617    -1047831.30249   -806639.29449  20666232.4034   20666237.0074
  23008085.915    11780644.30949   9175640.41949  23008086.1114   23008090.8484
  20131458.714    -6521385.16749  -5068601.59449  20131458.2114   20131462.9214
  24083854.793    14074666.03349  10960328.99049  24083855.8864   24083862.6304
  22908364.871   -10600369.18749  -8247653.75749  22908364.9874   22908371.0094
  23004083.572   -14140207.51449 -10562168.34649  23004083.1984   23004089.8144
 96  7 12 18  2 29.9990000  0  6 24  4  5  9 16  6
  20673476.721    -1009759.83149   -776973.22149  20673477.1174   20673481.8734
  23024753.526    11868233.69049   9243891.85749  23024753.7974   23024758.3374
  20133081.609    -6512856.75249  -5061956.09449  20133081.3424   20133085.8554
  24101142.834    14165513.40849  11031119.06449  24101142.6914   24101149.8944
  22889301.890   -10700543.63649  -8325711.69849  22889301.2014   22889308.1854
  22988853.329   -14220243.16649 -10624533.75649  22988853.5574   22988858.8254
 96  7 12 18  2 59.9990000  0  6 24  4  5  9 16  6
  20680786.258     -971347.13349   -747041.25749  20680787.1184   20680791.5414
  23041440.725    11955929.52749   9312226.23849  23041442.0304   23041446.7264
  20134795.769    -6503848.32849  -5054936.55549  20134795.4924   20134800.0214
  24118429.312    14256359.72249  11101908.32349  24118430.4534   24118437.4054
  22870274.277   -10800535.05349  -8403627.00049  22870273.3964   22870280.6714
  22973631.451   -14300236.53649 -10686866.20949  22973631.0994   22973636.8634
 96  7 12 18  3 29.9990000  0  6 24  4  5  9 16  6
  20688153.982     -932630.52149   -716872.47349  20688154.1884   20688159.0124
  23058147.236    12043716.70449   9380631.78649  23058147.0834   23058151.9564
  20136599.839    -6494369.39749  -5047550.38849  20136599.3854   20136603.8164
  24135712.550    14347181.66749  11172678.57349  24135712.9564   24135721.0914
  22851273.149   -10900383.34649  -8481430.80649  22851273.7794   22851279.4484
  22958413.779   -14380205.06249 -10749179.29949  22958413.2524   22958419.4294
 96  7 12 18  3 59.9990000  0  6 24  4  5  9 16  6
  20695579.521     -893608.72149   -686465.88549  20695580.2204   20695584.8424
  23074872.777    12131610.20949   9449120.19649  23074872.5224   23074877.5294
  20138501.073    -6484376.11149  -5039763.41749  20138501.0944   20138505.2864
  24152996.461    14438004.20249  11243449.31149  24152997.1724   24153004.0734
  22832306.914   -11000054.85349  -8559096.84249  22832305.6764   22832313.3704
  22943201.747   -14460144.20649 -10811469.50249  22943200.7064   22943207.3664
 96  7 12 18  4 29.9990000  0  6 24  4  5  9 16  6
  20703064.265     -854275.95949   -655816.99049  20703064.9864   20703069.6004
  23091621.232    12219622.83749   9517701.41949  23091621.1254   23091625.1974
  20140499.255    -6473877.49249  -5031582.68249  20140498.5664   20140503.0044
  24170277.066    14528814.34449  11314210.38849  24170277.8134   24170284.6424
  22813376.336   -11099534.54449  -8636613.43349  22813376.0404   22813381.7854
  22927992.350   -14540066.61549 -10873746.64949  22927992.2954   22927999.4344
 96  7 12 18  4 59.9990000  0  6 24  4  5  9 16  6
  20710609.701     -814625.47349   -624920.51049  20710610.1624   20710614.9594
  23108391.330    12307750.75949   9586372.50749  23108391.6414   23108396.0164
  20142595.742    -6462858.85849  -5022996.74549  20142595.7694   20142600.1874
  24187553.462    14619609.24049  11384959.58649  24187554.9414   24187562.0734
  22794483.552   -11198816.87149  -8713976.21949  22794482.3864   22794489.2494
  22912789.736   -14619957.21649 -10935999.02949  22912789.8644   22912796.0624
 96  7 12 18  5 29.9990000  0  6 24  4  5  9 16  6
  20718219.032     -774637.87349   -593761.35549  20718219.3354   20718224.1904
  23125182.966    12395992.16749   9655132.01149  23125183.4964   23125188.5034
  20144795.794    -6451298.82749  -5013988.93949  20144795.3994   20144799.9614
  24204831.834    14710399.11649  11455704.84149  24204832.5214   24204838.9334
  22775629.189   -11297895.60049  -8791180.38349  22775628.4164   22775635.1514
  22897597.534   -14699795.06949 -10998210.30749  22897597.0444   22897602.8984
 96  7 12 18  5 59.9990000  0  6 24  4  5  9 16  6
  20725887.839     -734339.29749   -562359.88149  20725888.0404   20725893.0794
  23141989.435    12484310.50249   9723951.44249  23141989.5674   23141994.8344
  20147088.942    -6439248.71549  -5004599.24949  20147088.3174   20147092.9704
  24222097.581    14801130.71249  11526404.72749  24222098.0644   24222104.5684
  22756809.772   -11396794.44849  -8868244.37449  22756808.4124   22756814.7934
  22882407.643   -14779619.69349 -11060411.27649  22882407.7544   22882413.0224
 96  7 12 18  6 29.9990000  0  6 24  4  5  9 16  6
  20733622.233     -693693.32449   -530687.70949  20733622.7334   20733627.2764
  23158814.686    12572728.17249   9792848.28049  23158814.9014   23158819.0434
  20149476.613    -6426698.94549  -4994820.22349  20149476.5694   20149481.1354
  24239355.341    14891816.15249  11597068.62749  24239353.9394   24239361.9284
  22738027.114   -11495497.38249  -8945155.66449  22738026.7044   22738033.0014
  22867227.645   -14859392.60249 -11122571.94149  22867227.0944   22867232.6274
 96  7 12 18  6 59.9990000  0  6 24  4  5  9 16  6
  20741424.345     -652694.64249   -498740.69749  20741424.5494   20741429.0024
  23175656.506    12661233.24749   9861813.23049  23175657.1464   23175661.3334
  20151963.910    -6413630.54449  -4984637.06449  20151963.4794   20151968.2424
  24256602.619    14982455.86149  11667696.87749  24256602.8654   24256611.3824
  22719282.803   -11594000.08649  -9021910.97949  22719281.4554   22719287.8024
  22852057.602   -14939107.01949 -11184687.02749  22852057.5204   22852063.0254
 96  7 12 18  7 29.9990000  0  6 24  4  5  9 16  6
  20749295.653     -611329.67249   -466508.26849  20749296.0994   20749300.6474
  23192515.990    12749828.48449   9930848.43849  23192516.5854   23192520.7154
  20154546.571    -6400057.65049  -4974060.79249  20154546.3874   20154550.8894
  24273842.006    15073045.15349  11738285.84049  24273840.9364   24273849.4964
  22700578.947   -11692288.79049  -9098499.51549  22700577.9654   22700583.4474
  22836900.101   -15018763.61449 -11246757.06249  22836900.3754   22836905.0424
 96  7 12 18  7 59.9990000  0  6 24  4  5  9 16  6
  20757231.554     -569625.93249   -434011.86549  20757232.1874   20757236.4704
  23209385.494    12838477.69449   9999925.71449  23209385.8374   23209389.6994
  20157217.785    -6386020.34249  -4963122.64049  20157217.7214   20157222.1844
  24291063.629    15163545.77749  11808805.70949  24291063.8754   24291070.7504
  22681911.382   -11790386.46149  -9174939.22649  22681910.8734   22681916.7444
  22821747.684   -15098387.47949 -11308801.59549  22821747.9834   22821753.4794
 96  7 12 18  8 29.9990000  0  6 24  4  5  9 16  6
  20765232.015     -527583.18649   -401251.30249  20765232.5944   20765237.2414
  23226266.133    12927186.74249  10069049.61949  23226266.2174   23226271.1294
  20159981.413    -6371498.67849  -4951807.07149  20159980.8004   20159985.6804
  24308271.846    15253976.19149  11879270.88649  24308271.1734   24308278.2204
  22663282.024   -11888283.59249  -9251222.65749  22663281.2474   22663287.3724
  22806604.850   -15177965.32349 -11370810.27149  22806604.6054   22806610.1274
 96  7 12 18  8 59.9990000  0  6 24  4  5  9 16  6
  20773292.167     -485227.51549   -368246.90049  20773292.4594   20773297.5244
  23243156.413    13015945.28049  10138212.08549  23243156.7094   23243161.3434
  20162834.338    -6356506.52149  -4940124.87849  20162833.8174   20162838.4944
  24325465.570    15344331.09449  11949677.19449  24325466.4664   24325472.8904
  22644687.934   -11985995.39849  -9327361.67749  22644687.0384   22644693.7974
  22791468.007   -15257508.21349 -11432791.70549  22791468.4154   22791473.1224
 96  7 12 18  9 29.9990000  0  6 24  4  5  9 16  6
  20781410.420     -442565.32949   -335003.65549  20781410.8534   20781415.6354
  23260057.067    13104759.80649  10207418.16949  23260057.3904   23260063.2804
  20165777.104    -6341041.22349  -4928074.00849  20165776.7384   20165781.6784
  24342646.604    15434615.25049  12020028.39849  24342646.7284   24342653.1954
  22626129.167   -12083521.94249  -9403356.35249  22626128.7564   22626134.8974
  22776339.811   -15337008.05549 -11494739.59749  22776339.7004   22776345.3604
 96  7 12 18  9 59.9990000  0  6 24  4  5  9 16  6
  20789583.643     -399616.45149   -301537.01249  20789583.8014   20789588.5744
  23276969.364    13193633.72549  10276670.53649  23276969.5064   23276974.5554
  20168811.834    -6325093.61849  -4915647.32049  20168811.6344   20168816.2914
  24359813.136    15524827.85949  12090323.83649  24359812.8174   24359820.2654
  22607604.744   -12180868.81649  -9479210.99149  22607604.7344   22607611.2084
  22761219.451   -15416467.19149 -11556655.75949  22761219.3114   22761224.8984
 96  7 12 18 10 29.9990000  0  6 24  4  5  9 16  6
  20797811.386     -356378.56449   -267845.17149  20797811.7134   20797816.3604
  23293899.045    13282600.82749  10345995.52349  23293899.8194   23293904.2614
  20171939.252    -6308659.97249  -4902841.89449  20171939.0274   20171943.7034
  24376970.669    15614992.75949  12160582.09149  24376971.3534   24376978.0254
  22589118.101   -12278018.32249  -9554911.86049  22589117.0114   22589123.4744
  22746106.573   -15495885.28249 -11618539.95149  22746105.9604   22746111.7224
 96  7 12 18 10 59.9990000  0  6 24  4  5  9 16  6
  20806103.656     -312800.66549   -233888.38149  20806104.0974   20806109.0124
  23310855.108    13371705.16249  10415427.43249  23310855.7384   23310859.9934
  20175164.813    -6291709.61049  -4889633.82749  20175164.3074   20175168.9244
  24394124.615    15705135.91849  12230823.43049  24394123.9354   24394131.3374
  22570678.074   -12374920.14049  -9630419.70249  22570677.4064   22570684.0614
  22731007.594   -15575230.41649 -11680367.28949  22731007.3644   22731012.3234
 96  7 12 18 11 29.9990000  0  6 24  4  5  9 16  6
  20814455.106     -268915.29249   -199692.00549  20814455.5294   20814460.1024
  23327829.783    13460909.71949  10484937.43049  23327829.8394   23327835.7824
  20178482.394    -6274274.78649  -4876048.26049  20178482.0844   20178486.7874
  24411265.031    15795206.05149  12301007.82949  24411264.5674   24411272.0734
  22552283.462   -12471583.68149  -9705741.88349  22552282.7884   22552289.4454
  22715916.002   -15654535.81749 -11742163.66049  22715915.7884   22715921.3274
 96  7 12 18 11 59.9990000  0  6 24  4  5  9 16  6
  20822863.969     -224726.14049   -165258.91249  20822864.4414   20822869.2544
  23344821.489    13550199.99249  10554514.22949  23344820.8454   23344826.6014
  20181891.880    -6256358.45249  -4862087.50349  20181891.5584   20181896.0714
  24428388.479    15885195.36449  12371129.26249  24428389.4194   24428395.4034
  22533934.619   -12568004.56049  -9780874.97449  22533934.2274   22533940.6834
  22700831.494   -15733806.74349 -11803933.17049  22700831.1484   22700837.3034
 96  7 12 18 12 29.9990000  0  6 24  4  5  9 16  6
  20831330.082     -180235.06149   -130590.55649  20831330.6984   20831335.3934
  23361824.662    13639551.02349  10624138.36049  23361825.0694   23361830.0294
  20185395.768    -6237944.33749  -4847738.85249  20185395.3954   20185400.3344
  24445497.102    15975097.29949  12441182.65149  24445496.7354   24445503.4694
  22515632.728   -12664186.50049  -9855821.88549  22515631.3854   22515638.5884
  22685752.932   -15813043.51149 -11865676.06849  22685753.3424   22685758.6024
 96  7 12 18 12 59.9990000  0  6 24  4  5  9 16  6
  20839853.555     -135445.80449    -95689.84649  20839854.0024   20839858.5054
  23378832.028    13728928.38849  10693783.01949  23378831.9544   23378837.7474
  20188999.705    -6219004.61649  -4832980.65049  20188999.5844   20189004.3484
  24462585.312    16064900.09849  12511158.78449  24462586.1854   24462594.0744
  22497375.678   -12760126.91549  -9930580.59149  22497374.5074   22497381.4554
  22670683.343   -15892235.09949 -11927383.77049  22670683.7214   22670689.2524
 96  7 12 18 13 29.9990000  0  6 24  4  5  9 16  6
  20848430.006      -90376.47749    -60570.90449  20848430.2484   20848434.8394
  23395841.409    13818314.10349  10763434.18049  23395841.6754   23395847.4484
  20192704.479    -6199536.62049  -4817810.80349  20192703.9814   20192709.1224
  24479659.364    16154620.62249  12581070.83049  24479658.5134   24479666.4094
  22479162.048   -12855837.83249 -10005160.47349  22479161.3894   22479168.4424
  22655622.972   -15971379.37649 -11989054.59449  22655622.4634   22655628.6044
 96  7 12 18 13 59.9990000  0  6 24  4  5  9 16  6
  20857059.568      -45027.04249    -25233.69849  20857060.0214   20857064.7874
  23412853.703    13907713.26749  10833095.81849  23412854.4324   23412859.3034
  20196509.546    -6179540.35849  -4802229.31049  20196509.3574   20196514.1304
  24496719.365    16244275.34549  12650931.59649  24496719.6414   24496726.7724
  22460989.802   -12951334.32249 -10079573.26849  22460989.6064   22460995.7004
  22640569.582   -16050485.71849 -12050695.85949  22640569.4794   22640574.7484
 96  7 12 18 14 29.9990000  0  6 24  4  5  9 16  6
  20865742.513         602.51249     10321.78849  20865742.9554   20865747.6214
  23429871.761    13997140.30649  10902779.17349  23429871.7954   23429876.7324
  20200412.366    -6159031.21749  -4786248.16849  20200411.9504   20200416.7794
  24513767.628    16333860.33349  12720738.00749  24513766.5214   24513774.1734
  22442859.047   -13046610.64349 -10153814.51349  22442859.3804   22442865.0364
  22625523.241   -16129552.40749 -12112306.23549  22625523.4744   22625528.6394
 96  7 12 18 14 59.9990000  0  6 24  4  5  9 16  6
  20874481.913       46526.54949     46106.74149  20874482.2334   20874486.9974
  23446898.958    14086621.85149  10972505.00549  23446899.3004   23446904.0764
  20204406.560    -6138042.44349  -4769893.28649  20204406.2574   20204411.1414
  24530801.213    16423370.45549  12790486.08849  24530800.0414   24530808.4464
  22424773.619   -13141651.07849 -10227871.95249  22424773.1924   22424780.0414
  22610486.327   -16208573.81349 -12173881.32849  22610486.3144   22610490.8604
 96  7 12 18 15 29.9990000  0  6 24  4  5  9 16  6
  20883278.611       92754.79149     82128.73649  20883279.1164   20883283.9294
  23463938.791    14176165.99649  11042279.62549  23463938.6934   23463944.5244
  20208487.233    -6116598.58149  -4753183.79349  20208486.8284   20208491.8264
  24547818.283    16512801.23949  12860172.31749  24547818.5104   24547825.9974
  22406734.187   -13236450.55349 -10301741.61449  22406733.0744   22406739.8934
  22595454.240   -16287564.23249 -12235432.27649  22595454.6864   22595458.9614
 96  7 12 18 15 59.9990000  0  6 24  4  5  9 16  6
  20892133.784      139289.24749    118389.34149  20892134.2684   20892139.2674
  23480989.842    14265767.93449  11112099.28349  23480989.8824   23480995.0424
  20212652.909    -6094707.80949  -4736126.06449  20212652.6304   20212657.5824
  24564816.392    16602113.79749  12929766.44549  24564814.3564   24564822.0684
  22388740.118   -13331008.74949 -10375423.27549  22388739.5544   22388746.5144
  22580428.701   -16366526.28249 -12296961.12549  22580428.1474   22580434.1124
 96  7 12 18 16 29.9990000  0  6 24  4  5  9 16  6
  20901052.923      186157.74849    154910.23749  20901053.2334   20901057.9564
  23498054.575    14355442.96349  11181975.88449  23498054.7224   23498059.9644
  20216908.190    -6072346.63449  -4718701.78549  20216907.6204   20216912.7174
  24581789.910    16691321.25449  12999278.66649  24581790.9344   24581796.8334
  22370799.923   -13425283.77449 -10448884.28449  22370800.0134   22370806.0594
  22565415.242   -16445418.08649 -12358435.23249  22565415.6244   22565420.9824
 96  7 12 18 16 59.9990000  0  6 24  4  5  9 16  6
  20910030.129      233335.74849    191672.30749  20910030.8314   20910035.4934
  23515128.084    14445163.56949  11251888.00749  23515127.9304   23515133.1474
  20221253.215    -6049512.21349  -4700908.73949  20221253.1204   20221257.8744
  24598745.654    16780418.12749  13068704.71649  24598746.2474   24598752.7044
  22352911.212   -13519290.52249 -10522136.24649  22352910.7024   22352916.7834
  22550412.388   -16524258.77249 -12419869.48749  22550412.9894   22550417.9954
 96  7 12 18 17 29.9990000  0  6 24  4  5  9 16  6
  20919061.326      280792.56749    228651.63149  20919061.3474   20919066.3884
  23532205.637    14534906.38049  11321817.42549  23532205.3234   23532210.1424
  20225691.525    -6026191.10049  -4682736.45049  20225690.9294   20225695.6494
  24615675.296    16869392.52049  13138035.34149  24615676.7224   24615683.4864
  22335071.353   -13613040.56849 -10595188.17949  22335070.1624   22335076.8004
  22535418.014   -16603057.72049 -12481271.22649  22535418.1484   22535422.8304
 96  7 12 18 17 59.9990000  0  6 24  4  5  9 16  6
  20928143.561      328521.50349    265843.00249  20928144.0564   20928148.8334
  23549292.630    14624699.12749  11391785.75049  23549292.5214   23549297.2294
  20230225.474    -6002362.79749  -4664168.95049  20230225.2674   20230229.9914
  24632587.781    16958259.24649  13207282.05449  24632588.2064   24632594.1894
  22317283.223   -13706515.43249 -10668025.66749  22317282.9394   22317289.6384
  22520436.575   -16681784.52349 -12542616.74349  22520437.2664   22520442.5814
 96  7 12 18 18 29.9990000  0  5 24  4  5 16  6
  20937274.823      376506.91149    303234.21649  20937275.2694   20937280.3164
  23566388.630    14714538.74949  11461790.61549  23566389.3394   23566393.9044
  20234856.852    -5978027.07949  -4645206.06149  20234856.3484   20234861.1184
  22299549.065   -13799708.95649 -10740643.94549  22299548.5894   22299554.9434
  22505467.596   -16760448.96349 -12603913.66949  22505467.3264   22505473.0354
 96  7 12 18 18 59.9990000  0  5 24  4  5 16  6
  20946453.027      424736.40549    340815.63149  20946453.1584   20946457.9204
  23583493.575    14804423.18949  11531830.39649  23583493.6524   23583498.3504
  20239584.429    -5953181.59549  -4625845.95249  20239584.1894   20239589.1934
  22281868.507   -13892621.87149 -10813043.59149  22281868.0124   22281874.7484
  22490506.194   -16839070.32449 -12665177.03149  22490506.2584   22490511.4674
 96  7 12 18 19 29.9990000  0  5 24  4  5 16  6
  20955680.357      473227.19749    378600.65049  20955680.6294   20955685.5024
  23600606.209    14894351.79949  11601904.59949  23600606.3804   23600611.1504
  20244408.499    -5927833.09249  -4606093.88749  20244407.9974   20244412.8194
  22264242.084   -13985248.85549 -10885220.42249  22264240.9344   22264248.2204
  22475553.464   -16917648.96549 -12726407.10349  22475553.1994   22475559.0034
 96  7 12 18 19 59.9990000  0  5 24  4  5 16  6
  20964960.283      521995.32449    416601.77449  20964960.9134   20964965.8934
  23617725.735    14984317.01449  11672007.32649  23617725.9384   23617730.5074
  20249326.254    -5901990.39949  -4585956.73849  20249325.8414   20249330.4084
  22246670.803   -14077585.85549 -10957171.27649  22246670.0244   22246677.0264
  22460607.517   -16996189.11349 -12787607.18649  22460607.5964   22460613.1244
 96  7 12 18 20 29.9990000  0  5 24  4  5 16  6
  20974291.335      571031.32549    454811.63249  20974292.1194   20974297.0434
  23634845.615    15074280.30149  11742108.55649  23634845.0254   23634850.3414
  20254334.460    -5875671.11049  -4565448.21749  20254334.0694   20254339.1064
  22229149.518   -14169657.24349 -11028915.17049  22229150.0844   22229156.0994
  22445664.795   -17074714.48049 -12848795.74949  22445664.4684   22445669.8024
 96  7 12 18 20 59.9990000  0  5 24  4  5 16  6
  20983675.976      620346.31149    493238.88249  20983676.2534   20983681.3214
  23651964.459    15164241.64249  11812208.26349  23651965.4074   23651969.9614
  20259434.747    -5848870.03249  -4544564.27149  20259433.9434   20259439.0044
  22211681.030   -14261459.76349 -11100449.56549  22211680.3144   22211686.0794
  22430727.823   -17153208.69649 -12909960.04849  22430727.5834   22430733.0684
 96  7 12 18 21 29.9990000  0  5 24  4  5 16  6
  20993116.969      669959.35049    531898.38249  20993117.2304   20993122.0714
  23669086.675    15254220.47649  11882321.59449  23669086.4364   23669093.0684
  20264628.212    -5821577.74249  -4523297.57049  20264627.8404   20264632.4384
  22194263.853   -14352981.94149 -11171765.52549  22194264.1074   22194269.9634
  22415802.991   -17231637.47349 -12971073.34549  22415803.5894   22415808.6894
 96  7 12 18 21 59.9990000  0  5 24  4  5 16  6
  21002610.916      719850.45449    570774.55249  21002611.3674   21002616.3274
  23686214.486    15344225.98049  11952455.71749  23686214.9874   23686219.3164
  20269914.556    -5793797.25549  -4501650.45449  20269914.2994   20269918.9354
  22176901.871   -14444221.95249 -11242861.59249  22176901.4784   22176907.2964
  22400894.535   -17309984.45749 -13032122.92449  22400894.1754   22400899.4354
 96  7 12 18 22 29.9990000  0  5 24  4  5 16  6
  21012156.249      770011.21449    609860.84749  21012156.4574   21012161.4964
  23703348.091    15434267.05249  12022617.54449  23703348.4834   23703354.4564
  20275293.902    -5765529.59649  -4479623.72549  20275293.3184   20275298.0974
  22159593.462   -14535179.48849 -11313737.54549  22159593.3234   22159599.1744
  22386000.630   -17388252.42149 -13093110.91649  22386000.6244   22386005.8634
 96  7 12 18 22 59.9990000  0  5 24  4  5 16  6
  21021751.667      820434.87249    649151.99849  21021752.0194   21021757.1274
  23720490.563    15524347.97449  12092810.42649  23720490.8134   23720495.5104
  20280763.606    -5736786.39549  -4457226.43849  20280763.2674   20280767.7614
  22142338.761   -14625853.98449 -11384392.96149  22142338.3244   22142344.1924
  22371117.728   -17466461.40049 -13154052.93549  22371117.6574   22371123.0214
 96  7 12 18 23 29.9990000  0  5 24  4  5 16  6
  21031394.672      871109.43449    688638.65449  21031395.3364   21031399.8464
  23737638.731    15614461.35249  12163028.60249  23737637.8164   23737643.8454
  20286319.730    -5707587.83649  -4434474.32749  20286319.6344   20286324.0994
  22125135.185   -14716257.88849 -11454837.52649  22125135.0744   22125141.0044
  22356241.927   -17544635.92749 -13214968.11249  22356241.6904   22356247.3244
 96  7 12 18 23 59.9990000  0  5 24  4  5 16  6
  21041087.238      922044.16949    728328.04949  21041087.6834   21041092.2624
  23754792.352    15704604.94049  12233270.31049  23754792.7364   23754797.7984
  20291964.222    -5677925.20349  -4411360.59449  20291964.1234   20291968.9294
  22107988.438   -14806365.66849 -11525051.34249  22107987.7674   22107994.2924
  22341371.561   -17622779.62049 -13275859.26749  22341371.3824   22341377.1174
 96  7 12 18 24 29.9990000  0  5 24  4  5 16  6
  21050831.747      973250.36349    768228.97049  21050831.9144   21050836.8394
  23771951.065    15794771.77049  12303530.12149  23771950.9954   23771955.9614
  20297699.744    -5647783.98049  -4387873.95049  20297699.7214   20297704.5054
  22090899.515   -14896170.40149 -11595029.01549  22090898.4514   22090904.9614
  22326506.777   -17700892.45149 -13336726.37649  22326506.9404   22326512.2054
 96  7 12 18 24 59.9990000  0  5 24  4  5 16  6
  21060627.489     1024728.43549    808341.74049  21060627.9734   21060632.3964
  23789112.871    15884957.48049  12373804.66449  23789112.5904   23789117.4134
  20303528.529    -5617155.66049  -4364007.74049  20303527.9944   20303532.8374
  22073870.291   -14985657.86149 -11664759.45749  22073869.6924   22073875.5344
  22311653.945   -17778946.17249 -13397547.42149  22311653.6724   22311658.5974
 96  7 12 18 25 29.9990000  0  5 24  4  5 16  6
  21070471.986     1076459.99549    848652.04149  21070472.1804   21070476.7324
  23806271.989    15975137.18349  12444074.51449  23806272.8904   23806279.0284
  20309446.921    -5586054.59049  -4339773.15849  20309446.2794   20309451.2924
  22056899.738   -15074837.53149 -11734250.08249  22056899.3594   22056905.5824
  22296815.124   -17856923.62449 -13458309.04849  22296814.7444   22296820.2854
 96  7 12 18 25 59.9990000  0  5 24  4  5 16  6
  21080364.681     1128448.30849    889162.40249  21080365.1574   21080369.8694
  23823433.309    16065312.04249  12514340.60249  23823431.8124   23823438.6994
  20315459.462    -5554457.57749  -4315152.12649  20315459.0824   20315464.0084
  22039991.461   -15163689.87449 -11803485.63749  22039990.9074   22039997.6244
  22281995.921   -17934798.76749 -13518990.94649  22281995.7964   22282001.0784
 96  7 12 18 26 29.9990000  0  5 24  4  5 16  6
  21090306.658     1180691.69449    929871.52749  21090306.7814   21090311.5874
  23840591.714    16155485.39049  12584605.49049  23840592.7584   23840597.7724
  20321567.058    -5522362.98049  -4290143.36349  20321566.5004   20321571.2314
  22023142.864   -15252232.44149 -11872479.80849  22023142.1314   22023148.7554
  22267196.942   -18012567.46849 -13579589.89349  22267196.7954   22267202.3554
 96  7 12 18 26 59.9990000  0  5 24  4  5 16  6
  21100294.094     1233178.30849    970770.17649  21100294.7984   21100299.2704
  23857750.313    16245653.30349  12654866.16449  23857750.1384   23857756.8084
  20327767.756    -5489778.71949  -4264753.04949  20327767.2264   20327772.1534
  22006353.683   -15340459.65749 -11941228.26049  22006352.6724   22006359.2844
  22252415.437   -18090243.21949 -13640116.41249  22252415.7054   22252420.7804
 96  7 12 18 27 29.9990000  0  5 24  4  5 16  6
  21110323.762     1285883.01449   1011838.77049  21110324.1884   21110328.7994
  23874904.130    16335795.37749  12725106.69449  23874904.2214   23874909.5774
  20334057.153    -5456726.79649  -4238998.33149  20334056.7864   20334061.8124
  21989620.858   -15428388.97049 -12009744.57049  21989620.6354   21989626.7634
  22237642.315   -18167878.49749 -13700611.39149  22237642.0914   22237647.0884
 96  7 12 18 27 59.9990000  0  5 24  4  5 16  6
  21120396.868     1338817.54449   1053086.45149  21120397.0154   21120402.0124
  23892057.226    16425938.36549  12795347.93949  23892058.3094   23892063.3144
  20340438.693    -5423190.61549  -4212866.26549  20340438.2924   20340443.4784
  21972946.741   -15516011.91949 -12078022.16349  21972946.5124   21972953.3604
  22222874.186   -18245485.97549 -13761084.71349  22222873.6904   22222879.3954
 96  7 12 18 28 29.9990000  0  5 24  4  5 16  6
  21130513.316     1391982.39249   1094513.60049  21130513.8074   21130518.6064
  23909214.054    16516092.50449  12865597.87449  23909214.3244   23909219.3104
  20346912.628    -5389169.33749  -4186356.20649  20346912.5354   20346917.8704
  21956335.282   -15603307.67449 -12146044.79749  21956334.5454   21956340.5594
  22208109.106   -18323073.91649 -13821542.81049  22208109.5144   22208114.8894
 96  7 12 18 28 59.9990000  0  5 24  4  5 16  6
  21140670.728     1445359.20049   1136105.91549  21140671.2904   21140676.1164
  23926369.977    16606250.03849  12935850.44449  23926369.7824   23926375.0864
  20353478.320    -5354669.85949  -4159473.51549  20353477.4224   20353482.5114
  21939789.133   -15690258.86549 -12213798.92449  21939788.1564   21939795.1454
  22193346.754   -18400650.81249 -13881992.30249  22193347.0524   22193352.3204
 96  7 12 18 29 29.9990000  0  5 24  4  5 16  6
  21150869.206     1498953.23149   1177867.49049  21150869.8024   21150874.9604
  23943528.040    16696413.22349  13006107.43749  23943527.6044   23943532.1744
  20360132.654    -5319699.52549  -4132223.93249  20360132.2714   20360137.2154
  21923306.932   -15776872.69149 -12281290.18349  21923306.4314   21923312.9504
  22178588.854   -18478205.53849 -13942424.51749  22178588.8714   22178594.0674
 96  7 12 18 29 59.9990000  0  5 24  4  5 16  6
  21161115.133     1552795.52649   1219822.52049  21161115.4414   21161120.8654
  23960689.467    16786601.74349  13076384.15149  23960689.7554   23960695.1884
  20366881.673    -5284232.41349  -4104587.23749  20366881.4524   20366886.3164
  21906892.018   -15863130.65649 -12348504.15049  21906891.7534   21906897.8904
  22163843.202   -18555693.66649 -14002804.84549  22163843.4194   22163848.9664
 96  7 12 18 30 29.9990000  0  5 24  4  5 16  6
  21171401.507     1606851.23549   1261943.84449  21171402.1904   21171407.1144
  23977848.606    16876774.27349  13146648.40949  23977848.9984   23977854.6104
  20373720.174    -5248295.94449  -4076584.80949  20373719.8194   20373724.5124
  21890542.614   -15949050.56449 -12415454.69349  21890541.8844   21890548.4954
  22149107.205   -18633132.11949 -14063146.47049  22149107.2434   22149112.4874
 96  7 12 18 30 59.9990000  0  5 24  4  5 16  6
  21181727.971     1661116.03449   1304228.09849  21181728.1154   21181733.4244
  23995003.101    16966921.16349  13216892.70049  23995003.6824   23995009.2264
  20380644.615    -5211907.68949  -4048230.33949  20380644.2874   20380649.2744
  21874250.774   -16034663.60749 -12482166.12449  21874249.9074   21874256.3104
  22134380.423   -18710522.33249 -14123450.48849  22134380.1124   22134385.4504
 96  7 12 18 31 29.9990000  0  5 24  4  5 16  6
  21192099.941     1715620.02549   1346698.73549  21192100.0804   21192105.3474
  24012156.105    17057058.72249  13287129.71649  24012155.8114   24012160.9094
  20387658.206    -5175052.63449  -4019512.11949  20387658.0404   20387662.3824
  21858018.275   -16119965.88849 -12548635.38949  21858017.8624   21858023.8914
  22119666.103   -18787844.29149 -14183701.33249  22119666.0414   22119671.6744
 96  7 12 18 31 59.9990000  0  5 24  4  5 16  6
  21202517.969     1770367.95449   1389359.45649  21202518.2914   21202523.1094
  24029307.457    17147192.68549  13357363.93249  24029308.0894   24029312.8674
  20394763.296    -5137714.48549  -3990417.45749  20394762.8674   20394767.4304
  21841849.719   -16204930.47749 -12614841.52349  21841848.8654   21841855.8944
  22104965.960   -18865094.66049 -14243896.39049  22104965.9474   22104971.4044
 96  7 12 18 32 29.9990000  0  5 24  4  5 16  6
  21212982.005     1825358.96349   1432209.58949  21212982.7714   21212987.9314
  24046461.576    17237338.31349  13427607.22749  24046462.6224   24046468.1964
  20401960.290    -5099893.08349  -3960946.24649  20401960.3104   20401964.4824
  21825749.899   -16289535.53649 -12680767.49949  21825749.7264   21825755.1284
  22090279.804   -18942272.19849 -14304034.68849  22090279.5514   22090284.8914
 96  7 12 18 32 59.9990000  0  5 24  4  5 16  6
  21223489.734     1880575.08549   1475235.13349  21223490.1284   21223494.8104
  24063615.191    17327480.22249  13497847.63249  24063616.1694   24063621.3734
  20409245.038    -5061612.73249  -3931117.42149  20409244.7834   20409249.1624
  21809715.500   -16373797.76749 -12746426.33749  21809715.1584   21809720.8684
  22075604.283   -19019391.44849 -14364127.57949  22075604.3424   22075609.1994
 96  7 12 18 33 29.9990000  0  5 24  4  5 16  6
  21234042.690     1936032.56449   1518448.74849  21234043.5514   21234048.2164
  24080770.468    17417628.52349  13568093.03749  24080769.8654   24080775.3144
  20416620.740    -5022852.62749  -3900914.75249  20416620.5724   20416624.9654
  21793753.783   -16457678.99949 -12811788.30049  21793753.1204   21793759.3904
  22060944.076   -19096431.32649 -14424158.61149  22060944.1234   22060949.2034
 96  7 12 18 33 59.9990000  0  5 24  4  5 16  6
  21244639.910     1991722.01749   1561843.11949  21244640.3994   21244645.4134
  24097925.862    17507780.32749  13638341.17049  24097926.7084   24097930.7874
  20424089.361    -4983603.27649  -3870330.85449  20424089.1494   20424093.9194
  21777864.906   -16541173.52749 -12876848.93649  21777864.5584   21777870.7734
  22046300.093   -19173384.41149 -14484122.02149  22046300.1054   22046305.1144
 96  7 12 18 34 29.9990000  0  5 24  4  5 16  6
  21255281.285     2047641.92149   1605417.05649  21255281.8334   21255286.7784
  24115082.508    17597938.51449  13708594.25449  24115082.9264   24115087.4804
  20431652.294    -4943860.94449  -3839362.82249  20431651.6714   20431656.6694
  21762049.256   -16624284.99449 -12941611.08449  21762048.6934   21762054.8264
  22031677.740   -19250225.20349 -14543997.92549  22031677.5464   22031683.0454
 96  7 12 18 34 59.9990000  0  5 24  4  5 16  6
  21265969.346     2103809.53449   1649184.01749  21265970.2974   21265975.1764
  24132238.116    17688094.28549  13778845.44349  24132237.9474   24132244.1384
  20439310.952    -4903613.92749  -3808001.51649  20439310.8434   20439315.7224
  21746307.286   -16707009.65549 -13006071.81749  21746306.6314   21746312.8614
  22017080.699   -19326935.18049 -14603771.89849  22017080.7394   22017085.7224
 96  7 12 18 35 29.9990000  0  5 24  4  5 16  6
  21276705.166     2160223.27049   1693142.75949  21276705.6424   21276710.5424
  24149390.394    17778231.01249  13849081.80249  24149391.4834   24149397.5254
  20447064.467    -4862869.36649  -3776252.51849  20447064.0804   20447069.1754
  21730636.543   -16789360.42149 -13070241.20249  21730635.6644   21730641.9704
  22002506.537   -19403521.21349 -14663449.29549  22002506.9594   22002511.6804
 96  7 12 18 35 59.9990000  0  5 24  4  5 16  6
  21287483.954     2216867.68449   1737281.25649  21287484.5974   21287489.4204
  24166539.975    17868346.94549  13919301.97449  24166539.6764   24166545.4244
  20454910.512    -4821638.33649  -3744124.45649  20454910.3354   20454915.0344
  21715034.148   -16871347.59349 -13134127.26449  21715034.3714   21715040.5094
  21987954.332   -19479993.62349 -14723038.15049  21987954.7424   21987959.7364
 96  7 12 18 36 29.9990000  0  5 24  4  5 16  6
  21298309.463     2273756.17749   1781609.94149  21298310.1434   21298314.7804
  24183683.303    17958442.92149  13989506.58549  24183684.5314   24183689.4984
  20462847.097    -4779931.07049  -3711625.30649  20462846.7344   20462851.7764
  21699506.891   -16952949.32249 -13197712.99149  21699506.1354   21699511.8244
  21973423.589   -19556353.59049 -14782539.39349  21973423.8104   21973428.6824
 96  7 12 18 36 59.9990000  0  5 24  4  5 16  6
  21309182.117     2330891.16649   1826130.70449  21309182.3994   21309187.3924
  24200825.347    18048522.11349  14059698.13249  24200826.0274   24200831.1494
  20470873.587    -4737748.82949  -3678756.04749  20470873.7004   20470878.4814
  21684053.500   -17034156.64049 -13260991.37749  21684052.7164   21684058.4914
  21958908.929   -19632627.37449 -14841973.47449  21958909.1234   21958914.3654
 96  7 12 18 37 29.9990000  0  5 24  4  5 16  6
  21320097.567     2388252.69749   1870827.99149  21320098.2364   21320103.2514
  24217964.393    18138587.79149  14129879.13249  24217965.0854   24217970.9284
  20478991.311    -4695091.55549  -3645516.64149  20478990.9574   20478996.1004
  21668675.429   -17114967.56649 -13323960.89549  21668674.9704   21668680.8654
  21944407.877   -19708832.04449 -14901353.70449  21944408.1354   21944412.8494
 96  7 12 18 37 59.9990000  0  5 24  4  5 16  6
  21331052.395     2445820.96849   1915686.37649  21331053.1014   21331058.0914
  24235099.556    18228630.83249  14200042.49649  24235099.7714   24235105.1334
  20487199.643    -4651956.52749  -3611904.96449  20487199.6324   20487204.7004
  21653375.741   -17195368.58749 -13386611.00049  21653375.1414   21653381.2704
  21929918.698   -19784972.79549 -14960684.12449  21929919.0534   21929923.7184
 96  7 12 18 38 29.9990000  0  5 24  4  5 16  6
  21342050.232     2503615.13249   1960720.77649  21342050.5244   21342055.5784
  24252232.450    18318665.52649  14270199.35749  24252232.1534   24252238.4294
  20495502.451    -4608326.45949  -3577907.54249  20495501.8804   20495507.0454
  21638159.224   -17275332.10149 -13448920.18949  21638158.6654   21638164.6084
  21915445.299   -19861032.01749 -15019951.01249  21915445.1344   21915449.9594
 96  7 12 18 38 59.9990000  0  5 24  4  5 16  6
  21353087.592     2561617.15149   2005917.14549  21353088.1844   21353093.2424
  24269364.428    18408699.60649  14340355.74149  24269365.9634   24269371.2394
  20503900.052    -4564195.48849  -3543519.80049  20503899.9384   20503905.0304
  21623024.065   -17354868.64749 -13510896.67849  21623023.0504   21623029.5154
  21900989.183   -19936999.35349 -15079146.31449  21900989.2364   21900993.8154
 96  7 12 18 39 29.9990000  0  5 24  4  5 16  6
  21364166.336     2619837.26349   2051283.46149  21364166.9934   21364171.9404
  24286497.567    18498734.13249  14410512.45649  24286498.3114   24286504.7844
  20512393.252    -4519564.45249  -3508742.39149  20512392.8774   20512398.2594
  21607969.997   -17433976.58449 -13572539.17949  21607969.5494   21607975.6864
  21886555.861   -20012847.58649 -15138248.80349  21886555.4744   21886560.1814
 96  7 12 18 39 59.9990000  0  5 24  4  5 16  6
  21375286.889     2678275.88349   2096820.04249  21375287.6944   21375292.6064
  24303631.007    18588765.26349  14480666.53649  24303631.3294   24303635.7154
  20520976.779    -4474456.47449  -3473593.33649  20520976.5774   20520981.9124
  21592996.063   -17512663.12749 -13633853.32749  21592995.8284   21593001.9184
  21872145.748   -20088569.72949 -15197253.04249  21872146.0234   21872150.7304
 96  7 12 18 40 29.9990000  0  5 24  4  5 16  6
  21386454.540     2736961.36249   2142548.97549  21386455.0234   21386459.8884
  24320766.793    18678818.24049  14550837.63249  24320768.0284   24320773.5984
  20529651.919    -4428869.25249  -3438070.84349  20529651.7234   20529656.9514
  21578103.663   -17590923.31049 -13694835.24849  21578103.2434   21578109.7334
  21857763.117   -20164154.28249 -15256150.06749  21857763.0924   21857767.8684
 96  7 12 18 40 59.9990000  0  5 24  4  5 16  6
  21397667.067     2795883.64149   2188462.43349  21397667.7804   21397672.4954
  24337905.712    18768879.67349  14621015.31449  24337904.7714   24337911.4074
  20538416.591    -4382808.74649  -3402179.55549  20538416.5884   20538422.0284
  21563288.719   -17668778.30549 -13755501.43549  21563287.9864   21563294.2474
  21843403.906   -20239610.00849 -15314946.70649  21843403.9434   21843409.0754
 96  7 12 18 41 29.9990000  0  6 24  4  5 16 25  6
  21408925.133     2855045.02449   2234562.20549  21408926.0714   21408930.7914
  24355041.984    18858937.06949  14691189.85649  24355043.0204   24355048.9584
  20547270.740    -4336282.26249  -3365925.16949  20547270.5714   20547275.7924
  21548551.354   -17746221.83649 -13815847.00849  21548551.0474   21548556.8024
  24410926.669    -7163238.06159  -5376242.36959  24410926.6354   24410931.9944
  21829067.491   -20314948.13049 -15373651.70849  21829067.5884   21829072.4224
 96  7 12 18 41 59.9990000  0  6 24  4  5 16 25  6
  21420219.823     2914396.96549   2280810.45849  21420220.0124   21420224.9614
  24372173.225    18948955.52749  14761334.07349  24372174.1164   24372178.9004
  20556205.777    -4289326.65749  -3329336.40249  20556205.9234   20556210.9884
  21533888.592   -17823273.79749 -13875887.45649  21533888.3434   21533894.5484
  24404729.748    -7195812.96849  -5401625.42549  24404727.1404   24404734.2294
  21814744.926   -20390211.90149 -15432298.77249  21814745.4824   21814749.9114
 96  7 12 18 42 29.9990000  0  6 24  4  5 16 25  6
  21431548.290     2973930.97449   2327200.58949  21431549.0914   21431553.9614
  24389295.080    19038930.65049  14831444.51049  24389294.8224   24389300.4134
  20565224.474    -4241933.94449  -3292407.04049  20565224.4244   20565229.6264
  21519301.565   -17899931.34349 -13935620.56849  21519301.2644   21519306.8924
  24398616.890    -7227922.83249  -5426646.08349  24398616.7254   24398623.6464
  21800435.537   -20465411.77749 -15490896.04549  21800435.4884   21800440.5844
 96  7 12 18 42 59.9990000  0  6 24  4  5 16 25  6
  21442912.316     3033647.90049   2373733.25149  21442912.5984   21442917.2144
  24406409.707    19128873.35149  14901529.67949  24406410.3854   24406416.7304
  20574332.054    -4194073.70349  -3255113.36849  20574331.8104   20574337.2864
  21504794.417   -17976165.92149 -13995024.09049  21504794.1164   21504800.2264
  24392600.381    -7259541.90249  -5451284.32949  24392599.9464   24392606.7134
  21786140.512   -20540530.31049 -15549429.93549  21786140.9074   21786145.8054
 96  7 12 18 43 29.9990000  0  6 24  4  5 16 25  6
  21454306.599     3093526.39949   2420391.81349  21454307.0044   21454312.3814
  24423516.660    19218770.31149  14971579.19449  24423516.6354   24423523.2104
  20583524.173    -4145768.29249  -3217472.80749  20583524.0324   20583529.4374
  21490367.759   -18051975.90249 -14054096.75549  21490367.7574   21490373.6204
  24386672.693    -7290686.85649  -5475553.12949  24386673.1884   24386679.6364
  21771859.416   -20615578.45749 -15607908.98849  21771859.4424   21771864.4954
 96  7 12 18 43 59.9990000  0  6 24  4  5 16 25  6
  21465736.598     3153591.70449   2467195.93649  21465737.2284   21465742.5494
  24440620.309    19308650.70849  15041615.80549  24440621.1514   24440626.8974
  20592806.979    -4096988.67449  -3179462.73849  20592806.7654   20592811.7064
  21476025.741   -18127347.83249 -14112828.09249  21476025.3384   21476030.8604
  24380840.660    -7321342.37849  -5499440.56749  24380840.4024   24380846.9244
  21757594.337   -20690540.18849 -15666320.69949  21757594.5004   21757599.8064
 96  7 12 18 44 29.9990000  0  6 24  4  5 16 25  6
  21477203.076     3213844.19749   2514145.92549  21477203.2434   21477208.0714
  24457721.068    19398512.22049  15111637.72149  24457721.5684   24457726.2884
  20602180.735    -4047728.81149  -3141078.43349  20602180.4904   20602185.7334
  21461765.295   -18202285.60749 -14171221.11449  21461764.8984   21461770.6884
  24375102.468    -7351493.99849  -5522935.35049  24375103.9614   24375108.9294
  21743346.795   -20765414.54149 -15724664.32249  21743346.8014   21743351.9704
 96  7 12 18 44 59.9990000  0  6 24  4  5 16 25  6
  21488708.122     3274306.94549   2561259.74649  21488708.7594   21488713.5904
  24474821.322    19488377.10349  15181662.25349  24474822.2134   24474826.5514
  20611649.987    -3997967.28849  -3102303.24849  20611649.7664   20611654.9824
  21447593.535   -18276758.89249 -14229252.21749  21447593.4614   21447598.9294
  24369466.063    -7381115.06449  -5546016.71149  24369466.0764   24369471.8364
  21729121.106   -20840169.27649 -15782914.73849  21729121.3274   21729126.3094
 96  7 12 18 45 29.9990000  0  6 24  4  5 16 25  6
  21500255.626     3334988.07649   2608543.73749  21500256.2024   21500261.1874
  24491920.859    19578236.81249  15251682.75749  24491921.2104   24491926.0344
  20621211.186    -3947722.67849  -3063151.61649  20621210.8664   20621216.3544
  21433508.877   -18350774.31549 -14286926.53149  21433508.2844   21433514.0834
  24363932.380    -7410209.60049  -5568687.79749  24363929.3054   24363935.2664
  21714919.432   -20914800.47349 -15841068.89249  21714919.3484   21714924.3834
 96  7 12 18 45 59.9990000  0  6 24  4  5 16 25  6
  21511844.037     3395885.15849   2655995.99949  21511844.6394   21511849.5884
  24509018.023    19668081.23649  15321691.36349  24509018.8274   24509024.0734
  20630864.643    -3896993.53949  -3023622.44049  20630864.4804   20630869.5224
  21419511.076   -18424331.06949 -14344243.44249  21419510.7284   21419516.6924
  24358491.875    -7438774.58249  -5590946.22049  24358493.1834   24358499.2244
  21700739.852   -20989313.49149 -15899130.95449  21700740.1744   21700744.9464
 96  7 12 18 46 29.9990000  0  6 24  4  5 16 25  6
  21523470.575     3456982.77249   2703604.51949  21523470.9614   21523476.3604
  24526106.247    19757884.17649  15391667.64849  24526106.6784   24526112.0134
  20640607.832    -3845792.40249  -2983725.47049  20640607.6514   20640612.9504
  21405602.287   -18497423.10649 -14401198.23949  21405602.1144   21405607.6714
  24353156.613    -7466819.55749  -5612799.44649  24353157.4754   24353162.0914
  21686583.190   -21063708.57249 -15957101.11849  21686583.0184   21686587.9744
 96  7 12 18 46 59.9990000  0  5 24  5 16 25  6
  21535135.999     3518284.81149   2751372.33749  21535136.4204   21535141.4374
  20650440.503    -3794122.16249  -2943462.96249  20650440.2014   20650445.5434
  21391779.475   -18570062.28049 -14457800.15149  21391778.9544   21391784.8554
  24347914.572    -7494357.17849  -5634257.34249  24347915.8494   24347922.6374
  21672448.244   -21137988.59549 -16014981.62649  21672448.0404   21672453.2404
 96  7 12 18 47 29.9990000  0  5 24  5 16 25  6
  21546840.528     3579795.01849   2799302.35749  21546841.2034   21546846.3234
  20660364.223    -3741974.36849  -2902828.34149  20660363.7884   20660369.0724
  21378042.534   -18642251.13449 -14514051.16749  21378042.1834   21378047.9634
  24342771.181    -7521387.32549  -5655319.78849  24342772.2714   24342778.1554
  21658333.665   -21212158.09149 -16072776.01149  21658334.1544   21658339.1834
 96  7 12 18 47 59.9990000  0  5 24  5 16 25  6
  21558585.466     3641513.41049   2847394.60349  21558585.7014   21558590.8094
  20670382.200    -3689328.24349  -2861805.40449  20670381.9794   20670387.0894
  21364392.595   -18713979.88449 -14569943.65849  21364392.2764   21364397.9754
  24337730.379    -7547894.38549  -5675974.65149  24337728.2254   24337734.3124
  21644243.308   -21286205.13449 -16130474.97449  21644243.2584   21644248.3234
 96  7 12 18 48 29.9990000  0  5 24  5 16 25  6
  21570370.329     3703444.93849   2895652.92549  21570370.9204   21570375.8634
  20680495.177    -3636182.96449  -2820393.52149  20680495.4474   20680500.4304
  21350829.510   -18785253.99949 -14625481.89449  21350829.1364   21350834.8894
  24332785.882    -7573873.53349  -5696218.13549  24332785.6284   24332791.1594
  21630177.865   -21360119.71549 -16188070.72749  21630177.8684   21630182.8484
 96  7 12 18 48 59.9990000  0  5 24  5 16 25  6
  21582193.934     3765578.08649   2944068.35749  21582194.7064   21582199.5904
  20690699.489    -3582560.37849  -2778609.70649  20690699.0314   20690704.4134
  21337349.830   -18856090.42549 -14680679.06849  21337349.8664   21337355.4884
  24327936.513    -7599345.03649  -5716066.03849  24327937.0554   24327944.1404
  21616134.568   -21433913.90849 -16245572.66849  21616135.2914   21616140.3374
 96  7 12 18 49 29.9990000  0  5 24  5 16 25  6
  21594055.560     3827909.70049   2992638.43949  21594056.1294   21594061.0724
  20700993.099    -3528466.22049  -2736458.43449  20700993.3304   20700998.3254
  21323957.748   -18926466.13949 -14735517.24749  21323957.7554   21323963.4964
  24323189.621    -7624302.88249  -5735513.72849  24323188.9984   24323194.3944
  21602117.366   -21507578.03249 -16302973.25749  21602117.4964   21602122.2694
 96  7 12 18 49 59.9990000  0  6 17 24  5 16 25  6
  24635673.883    -4404639.52059  -3150594.15559  24635675.0824   24635683.9614
  21605953.052     3890433.13749   3041357.99049  21605953.8444   21605959.0434
  20711373.125    -3473918.93649  -2693954.08149  20711373.0164   20711378.1934
  21310653.187   -18996381.25249 -14789996.52149  21310653.0904   21310659.0444
  24318537.469    -7648745.29149  -5754559.77449  24318538.2414   24318543.0364
  21588124.765   -21581111.53849 -16360272.06949  21588124.5894   21588129.2184
 96  7 12 18 50 29.9990000  0  6 17 24  5 16 25  6
  24614872.632    -4513954.88149  -3235774.93149  24614871.6424   24614880.3114
  21617893.059     3953177.07549   3090249.36549  21617893.3834   21617898.4194
  20721841.369    -3418907.82449  -2651088.29649  20721841.5634   20721846.4874
  21297441.986   -19065807.54249 -14844094.89349  21297441.6954   21297447.7774
  24313983.254    -7672667.65949  -5773200.57949  24313986.0674   24313991.3214
  21574158.978   -21654500.23749 -16417458.03349  21574159.0294   21574163.8424
 96  7 12 18 50 59.9990000  0  6 17 24  5 16 25  6
  24594085.945    -4623185.09249  -3320889.36249  24594087.4974   24594095.0334
  21629870.723     4016121.21549   3139296.74249  21629871.5874   21629876.6024
  20732396.155    -3363443.94749  -2607869.71449  20732395.9324   20732401.1774
  21284324.710   -19134740.20149 -14897808.61849  21284324.2934   21284329.9274
  24309530.953    -7696078.00149  -5791442.40849  24309530.6274   24309535.5074
  21560220.525   -21727746.48849 -16474533.00549  21560220.4244   21560225.2694
 96  7 12 18 51 29.9990000  0  6 17 24  5 16 25  6
  24573317.788    -4732322.20349  -3405931.25749  24573317.8204   24573327.5384
  21641886.670     4079264.71549   3188499.45349  21641887.4534   21641892.3844
  20743037.748    -3307521.05549  -2564293.45549  20743037.4894   20743042.6434
  21271304.388   -19203161.64849 -14951124.00149  21271304.2624   21271309.8444
  24305175.540    -7718961.00449  -5809273.33549  24305175.0414   24305182.0204
  21546311.509   -21800839.69649 -16531488.72649  21546311.6274   21546316.4014
 96  7 12 18 51 59.9990000  0  6 17 24  5 16 25  6
  24552567.428    -4841368.31549  -3490902.26749  24552567.9014   24552576.8584
  21653939.378     4142601.38249   3237852.69249  21653939.9194   21653945.0034
  20753765.010    -3251148.45749  -2520366.77449  20753765.0654   20753770.1024
  21258381.305   -19271073.88349 -15004042.58749  21258381.1434   21258386.6264
  24300917.458    -7741343.74349  -5826714.46149  24300916.1814   24300922.9474
  21532428.868   -21873791.23349 -16588334.05349  21532429.2904   21532433.8144
 96  7 12 18 52 29.9990000  0  6 17 24  5 16 25  6
  24531835.687    -4950312.24549  -3575793.58749  24531835.7254   24531845.1084
  21666025.135     4206112.95849   3287342.22249  21666025.4734   21666030.6644
  20764575.328    -3194338.89349  -2476099.60449  20764575.5104   20764580.6144
  21245555.635   -19338471.77949 -15056560.39349  21245555.4184   21245560.9654
  24296750.922    -7763238.93649  -5843775.66749  24296750.8944   24296757.5394
  21518572.636   -21946607.14049 -16645073.69449  21518572.6854   21518577.6114
 96  7 12 18 52 59.9990000  0  6 17 24  5 16 25  6
  24511126.054    -5059143.88449  -3660597.38849  24511126.2864   24511134.3794
  21678139.120     4269773.55849   3336947.87149  21678139.8544   21678144.8114
  20775466.547    -3137107.06249  -2431503.38949  20775466.3174   20775471.4514
  21232826.407   -19405364.89749 -15108684.86449  21232826.3594   21232831.8184
  24292676.879    -7784642.94949  -5860454.12949  24292677.1704   24292682.6104
  21504740.204   -22019295.59349 -16701714.01849  21504740.7884   21504745.3184
 96  7 12 18 53 29.9990000  0  6 17 24  5 16 25  6
  24490440.912    -5167844.05049  -3745298.75749  24490440.9434   24490449.9504
  21690287.098     4333612.16349   3386692.22649  21690287.9434   21690292.6894
  20786438.810    -3079447.02849  -2386573.51649  20786438.8814   20786443.8254
  21220192.727   -19471755.24249 -15160417.56449  21220192.3314   21220198.4334
  24288699.240    -7805548.10449  -5876743.90449  24288698.5414   24288705.3344
  21490930.836   -22091864.72649 -16758261.36849  21490931.0054   21490936.2124
 96  7 12 18 53 59.9990000  0  6 17 24  5 16 25  6
  24469789.354    -5276372.44749  -3829866.31849  24469789.8544   24469797.8104
  21702477.233     4397671.78249   3436608.79549  21702478.0274   21702482.8254
  20797502.423    -3021308.08849  -2341270.46749  20797502.1694   20797507.1954
  21207660.909   -19537607.57149 -15211731.03049  21207660.7814   21207666.9354
  24284827.863    -7825893.80449  -5892597.72949  24284827.8474   24284835.1324
  21477154.012   -22164262.41949 -16814675.13249  21477154.3414   21477158.9914
 96  7 12 18 54 29.9990000  0  6 17 24  5 16 25  6
  24449163.187    -5384760.32049  -3914324.37149  24449163.4014   24449172.2274
  21714702.681     4461916.64749   3486669.71549  21714703.3774   21714708.3484
  20808653.369    -2962708.61049  -2295608.55349  20808653.3844   20808658.4344
  21195225.228   -19602958.58049 -15262653.86449  21195225.1564   21195230.8664
  24281065.927    -7845667.61249  -5908005.89749  24281064.7514   24281071.5744
  21463407.618   -22236501.60149 -16870965.38049  21463407.7054   21463412.2264
 96  7 12 18 54 59.9990000  0  6 17 24  5 16 25  6
  24428560.939    -5493027.67449  -3998688.52449  24428561.5974   24428569.5794
  21726963.471     4526345.93349   3536874.34049  21726964.3174   21726969.1344
  20819893.325    -2903642.39249  -2249582.95849  20819893.4064   20819897.9034
  21182880.584   -19667829.85849 -15313202.87649  21182880.4924   21182886.2714
  24277410.573    -7864873.64049  -5922971.64949  24277409.0554   24277415.5254
  21449690.719   -22308583.67249 -16927133.19849  21449690.6234   21449695.0514
 96  7 12 18 55 29.9990000  0  6 17 24  5 16 25  6
  24407974.839    -5601207.88249  -4082984.76949  24407974.6914   24407983.8084
  21739255.244     4590939.73249   3587207.15849  21739255.4624   21739260.5824
  20831218.302    -2844128.96549  -2203208.88149  20831218.5064   20831223.1514
  21170622.407   -19732247.16649 -15363398.14749  21170622.1504   21170627.7754
  24273853.989    -7883551.38249  -5937525.73849  24273855.7874   24273861.1374
  21435998.893   -22380534.33749 -16983198.62449  21435999.0794   21436003.7034
 96  7 12 18 55 59.9980000  0  6 17 24  5 16 25  6
  24387414.826    -5709248.09049  -4167171.91349  24387415.7754   24387423.8194
  21751582.467     4655720.31949   3637685.52449  21751583.3114   21751587.8824
  20842637.215    -2784121.18949  -2156449.59849  20842637.4804   20842642.1534
  21158462.540   -19796149.73449 -15413192.32049  21158462.0574   21158467.8454
  24270409.147    -7901661.30549  -5951637.40749  24270409.3104   24270416.0134
  21422343.435   -22452293.35149 -17039114.71649  21422343.8364   21422348.5744
 96  7 12 18 56 29.9980000  0  6 17 24  5 16 25  6
  24366878.438    -5817172.49349  -4251268.83749  24366878.2454   24366885.9914
  21763942.173     4720669.82749   3688295.51949  21763942.9594   21763947.5284
  20854144.460    -2723650.66549  -2109329.72649  20854144.3264   20854149.0034
  21146394.069   -19859568.79749 -15462609.73949  21146393.7964   21146399.5364
  24267059.681    -7919266.73449  -5965355.98549  24267058.3564   24267064.4534
  21408714.842   -22523913.88349 -17094922.89849  21408714.7874   21408719.7894
 96  7 12 18 56 59.9980000  0  6 17 24  5 16 25  6
  24346362.293    -5924988.47449  -4335281.25549  24346361.5514   24346370.5284
  21776331.438     4785778.41349   3739029.46649  21776332.4554   21776337.4364
  20865734.778    -2662743.80149  -2061869.85749  20865734.3884   20865739.1094
  21134415.423   -19922516.15249 -15511659.59349  21134415.1834   21134420.8284
  24263796.126    -7936416.12949  -5978719.20149  24263795.6844   24263802.5844
  21395105.384   -22595431.48449 -17150650.87849  21395105.7814   21395110.1494
 96  7 12 18 57 29.9980000  0  6 17 24  5 16 25  6
  24325866.869    -6032686.71849  -4419201.97249  24325866.8824   24325876.5304
  21788753.845     4851054.56549   3789893.99049  21788754.0464   21788758.8804
  20877405.494    -2601413.41449  -2014079.96349  20877405.1804   20877410.1244
  21122533.134   -19984959.32349 -15560316.57749  21122532.5284   21122538.2374
  24260620.392    -7953106.32149  -5991724.54349  24260620.0144   24260625.5964
  21381516.497   -22666841.21749 -17206294.80449  21381516.4614   21381521.3504
 96  7 12 18 57 59.9980000  0  6 17 24  5 16 25  6
  24305395.429    -6140266.07349  -4503030.04449  24305396.3884   24305404.8114
  21801205.362     4916489.79849   3840882.47649  21801206.0904   21801210.9784
  20889153.341    -2539680.12649  -1965976.12049  20889153.0744   20889157.8204
  21110745.448   -20046900.97549 -15608582.76349  21110745.2474   21110751.3604
  24257534.247    -7969331.26349  -6004367.37249  24257533.1754   24257538.8804
  21367950.012   -22738132.07049 -17261846.09549  21367950.4264   21367955.3284
 96  7 12 18 58 29.9980000  0  6 17 24  5 16 25  6
  24284950.281    -6247711.38449  -4586753.69749  24284950.4604   24284958.5184
  21813689.327     4982093.57849   3892002.29649  21813690.2114   21813694.6814
  20900978.534    -2477537.41349  -1917553.25149  20900978.3754   20900983.2034
  21099054.974   -20108336.41449 -15656454.49249  21099054.6664   21099060.1474
  24254536.459    -7985072.64949  -6016633.40849  24254538.0384   24254541.1934
  21354408.922   -22809291.02849 -17317294.60849  21354409.0204   21354414.4594
 96  7 12 18 58 59.9980000  0  6 17 24  5 16 25  6
  24264529.645    -6355015.44849  -4670367.21949  24264530.1424   24264538.9574
  21826206.055     5047868.62649   3943255.56349  21826206.7614   21826211.5964
  20912881.914    -2414983.19949  -1868809.72149  20912881.8444   20912887.1094
  21087465.543   -20169239.41349 -15703911.34049  21087465.1674   21087470.6044
  24251640.094    -8000296.66249  -6028496.29449  24251640.9264   24251645.2414
  21340897.536   -22880293.14649 -17372620.90749  21340897.5464   21340903.0514
 96  7 12 18 59 29.9980000  0  6 17 24  5 16 25  6
  24244141.704    -6462166.17249  -4753861.27949  24244140.0574   24244148.2444
  21838755.157     5113814.58349   3994642.00549  21838755.9084   21838760.6894
  20924865.399    -2352009.89749  -1819739.64749  20924865.2344   20924870.3744
  21075979.210   -20229598.84049 -15750944.62849  21075979.0694   21075984.5154
  24248844.076    -8014980.33449  -6039938.15549  24248845.3024   24248851.4534
  21327420.815   -22951113.68349 -17427805.71449  21327420.9804   21327426.2934
 96  7 12 18 59 59.9980000  0  6 17 24  5 16 25  6
  24223784.090    -6569135.06049  -4837213.62149  24223784.8124   24223793.9374
  21851337.265     5179934.73249   4046164.18849  21851338.2044   21851342.7934
  20936935.508    -2288582.17649  -1770315.46849  20936935.5364   20936940.5004
  21064596.770   -20289414.08449 -15797553.87949  21064596.6074   21064602.0974
  24246155.204    -8029110.54049  -6050948.73249  24246157.3124   24246163.0904
  21313979.426   -23021748.09349 -17482845.48649  21313979.7904   21313984.6204
 96  7 12 19  0 29.9980000  0  6 17 24  5 16 25  6
  24203458.800    -6675945.03649  -4920442.16249  24203458.7224   24203467.9834
  21863949.300     5246209.71249   4097807.01349  21863949.7544   21863954.6764
  20949089.804    -2224710.46549  -1720545.32849  20949089.4734   20949094.5494
  21053317.205   -20348690.22149 -15843743.04749  21053316.8974   21053322.4774
  24243567.758    -8042714.58149  -6061549.27649  24243568.9204   24243572.9894
  21300565.539   -23092239.92149 -17537774.15949  21300565.4964   21300570.9314
 96  7 12 19  0 59.9980000  0  6 17 24  5 16 25  6
  24183163.144    -6782606.56549  -5003555.01449  24183163.6234   24183170.9064
  21876592.402     5312650.26049   4149578.85649  21876592.8194   21876597.3334
  20961328.713    -2160394.81849  -1670429.25949  20961328.5514   20961333.6064
  21042142.011   -20407416.52149 -15889503.77249  21042141.3304   21042147.1724
  24241078.702    -8055794.25849  -6071741.25749  24241079.9774   24241085.2424
  21287178.330   -23162590.53449 -17592592.79149  21287178.4884   21287183.6554
 96  7 12 19  1 29.9980000  0  6 17 24  5 16 25  6
  24162891.223    -6889132.89449  -5086562.52149  24162892.0724   24162899.5664
  21889263.262     5379237.70349   4201465.15249  21889264.1274   21889269.0044
  20973652.697    -2095633.73149  -1619966.09349  20973652.5394   20973657.2074
  21031065.118   -20465623.45349 -15934859.79649  21031064.8534   21031070.4404
  24238685.498    -8068379.27749  -6081547.76849  24238684.5034   24238691.4024
  21273814.952   -23232814.30449 -17647312.59949  21273815.3324   21273820.3454
 96  7 12 19  1 59.9980000  0  6 17 24  5 16 25  6
  24142644.136    -6995524.83849  -5169465.29849  24142644.4324   24142654.4274
  21901963.137     5445974.27349   4253467.66649  21901963.5094   21901968.7904
  20986060.067    -2030431.30749  -1569159.03249  20986060.0164   20986064.8824
  21020088.560   -20523307.18349 -15979808.13049  21020087.9944   21020093.8414
  24236384.273    -8080461.80649  -6090962.76849  24236385.6594   24236391.2824
  21260478.484   -23302897.34149 -17701922.73449  21260479.1754   21260483.9614
 96  7 12 19  2 29.9980000  0  6 17 24  5 16 25  6
  24122421.321    -7101806.72149  -5252282.32149  24122419.6014   24122428.4884
  21914690.521     5512857.27949   4305584.27949  21914691.0884   21914695.8364
  20998547.321    -1964810.43249  -1518025.91249  20998546.9674   20998552.3014
  21009208.581   -20580481.44849 -16024359.47749  21009208.3084   21009213.7754
  24234183.641    -8092040.30849  -6099984.98849  24234182.1164   24234187.5114
  21247172.075   -23372822.28449 -17756409.68449  21247172.5824   21247177.1654
 96  7 12 19  2 59.9980000  0  6 17 24  5 16 25  6
  24102218.682    -7207965.58749  -5335003.48849  24102219.3644   24102228.3314
  21927446.143     5579890.33449   4357817.81049  21927447.0094   21927451.6974
  21011117.230    -1898758.23549  -1466556.70249  21011116.9144   21011121.6134
  20998427.227   -20637138.46549 -16068507.77449  20998426.7654   20998432.0244
  24232077.376    -8103098.83249  -6108602.05849  24232078.1374   24232083.9014
  21233903.574   -23442549.41849 -17810742.49549  21233903.8804   21233908.3434
 96  7 12 19  3 29.9980000  0  6 17 24  5 16 25  6
  24082036.625    -7314014.01949  -5417638.59349  24082038.3384   24082046.9194
  21940224.274     5647040.74849   4410142.79549  21940225.1964   21940230.2504
  21023765.069    -1832292.27249  -1414765.06149  21023764.5514   21023769.6344
  20987741.522   -20693290.90749 -16112262.89549  20987741.3434   20987746.8374
  24230069.129    -8113656.76949  -6116829.05449  24230068.3664   24230074.6154
  21220668.847   -23512099.32649 -17864937.20349  21220669.1644   21220673.9334
 96  7 12 19  3 59.9980000  0  6 17 24  5 16 25  6
  24061879.464    -7419954.11649  -5500189.29949  24061879.2844   24061887.1624
  21953023.359     5714299.00549   4462551.81149  21953023.9434   21953029.0494
  21036488.099    -1765431.31649  -1362665.64149  21036488.1784   21036492.6934
  20977155.662   -20748918.36749 -16155608.94449  20977155.4564   20977161.0484
  24228155.129    -8123707.00049  -6124660.42549  24228156.2964   24228161.4324
  21207465.399   -23581484.43349 -17919003.50949  21207465.2974   21207469.8794
 96  7 12 19  4 29.9980000  0  6 17 24  5 16 25  6
  24041743.444    -7525768.85349  -5582642.34249  24041743.7234   24041750.5384
  21965845.081     5781676.02349   4515053.36549  21965845.4854   21965850.4914
  21049290.565    -1698153.67949  -1310241.53249  21049290.6864   21049295.5534
  20966675.308   -20803995.47349 -16198526.14549  20966674.8614   20966680.1714
  24226338.344    -8133259.75149  -6132104.16849  24226337.9294   24226344.7014
  21194290.626   -23650717.98249 -17972951.70849  21194290.3844   21194295.4534
 96  7 12 19  4 59.9980000  0  6 17 24  5 16 25  6
  24021632.586    -7631447.43149  -5664989.22349  24021633.3934   24021640.8194
  21978687.887     5849166.72049   4567643.50249  21978688.8834   21978693.9464
  21062173.555    -1630455.47649  -1257489.70849  21062172.9154   21062178.0134
  20956302.528   -20858503.31049 -16240999.75949  20956302.1814   20956307.6714
  24224613.526    -8142322.85449  -6139166.34049  24224614.3404   24224619.4984
  21181139.935   -23719825.23649 -18026801.49949  21181140.1074   21181145.0084
 96  7 12 19  5 29.9980000  0  6 17 24  5 16 25  6
  24001543.912    -7737019.04449  -5747252.77949  24001544.3154   24001551.8224
  21991547.256     5916743.43449   4620300.66949  21991548.2484   21991553.0654
  21075128.246    -1562376.91749  -1204441.50249  21075127.9584   21075132.9194
  20946031.589   -20912479.40549 -16283059.02649  20946030.9534   20946036.6994
  24222976.536    -8150928.51849  -6145872.06949  24222975.4814   24222982.0504
  21168005.322   -23788847.74749 -18080585.25849  21168005.5004   21168010.3664
 96  7 12 19  5 59.9980000  0  6 17 24  5 16 25  6
  23981479.101    -7842457.59249  -5829412.61649  23981478.9874   23981487.4524
  22004430.021     5984441.45549   4673052.35549  22004430.4134   22004435.6884
  21088159.218    -1493900.21449  -1151083.05949  21088158.5944   21088163.6064
  20935864.505   -20965907.33649 -16324691.16049  20935863.9284   20935869.3554
  24221430.858    -8159051.88549  -6152201.97749  24221430.7574   24221436.9204
  21154894.155   -23857748.14949 -18134273.87249  21154894.2864   21154898.7484
 96  7 12 19  6 29.9980000  0  6 17 24  5 16 25  6
  23961440.136    -7947766.12349  -5911471.14249  23961439.3884   23961447.7804
  22017337.712     6052270.49949   4725906.13849  22017338.2594   22017343.2764
  21101266.104    -1425020.41249  -1097410.50449  21101266.1014   21101271.3794
  20925798.028   -21018805.96249 -16365910.84449  20925797.8574   20925803.5374
  24219973.598    -8166700.19049  -6158161.71849  24219974.2414   24219981.4104
  21141807.591   -23926517.25049 -18187860.17049  21141808.0514   21141812.6314
 96  7 12 19  6 59.9980000  0  6 17 24  5 16 25  6
  23941425.435    -8052935.96449  -5993421.60649  23941426.9204   23941433.5664
  22030273.116     6120247.71749   4778875.38249  22030273.6584   22030279.2514
  21114449.457    -1355741.92749  -1043427.29849  21114449.0144   21114454.4554
  20915832.747   -21071173.16349 -16406716.42949  20915832.1834   20915838.2574
  24218615.164    -8173842.62049  -6163727.26549  24218617.3144   24218621.6884
  21128752.989   -23995120.34849 -18241317.10849  21128753.1154   21128757.8704
 96  7 12 19  7 29.9980000  0  6 17 24  5 16 25  6
  23921440.463    -8157956.64449  -6075255.82749  23921441.6154   23921447.5914
  22043237.849     6188378.23249   4831964.07349  22043238.3404   22043243.7664
  21127706.401    -1286075.27049   -989141.62249  21127706.5284   21127711.5974
  20905968.028   -21123010.94949 -16447109.49249  20905968.3254   20905973.8334
  24217352.789    -8180475.26549  -6168895.59249  24217353.9904   24217358.8554
  21115732.732   -24063540.41349 -18294631.42949  21115733.1544   21115737.9814
 96  7 12 19  7 59.9980000  0  6 17 24  5 16 25  6
  23901487.694    -8262815.26349  -6156963.76049  23901488.0244   23901496.2234
  22056234.394     6256675.02149   4885182.33949  22056235.0834   22056239.8524
  21141038.172    -1216018.22149   -934551.73949  21141037.7394   21141043.2674
  20896205.413   -21174317.50349 -16487088.60049  20896204.7594   20896210.6104
  24216188.709    -8186598.63749  -6173667.07049  24216187.7534   24216194.8544
  21102748.284   -24131776.23649 -18347802.18249  21102748.3784   21102753.0034
 96  7 12 19  8 29.9980000  0  6 17 24  5 16 25  6
  23881563.484    -8367516.22049  -6238548.83049  23881562.6984   23881571.7454
  22069260.645     6325126.98649   4938521.52149  22069261.3644   22069266.2694
  21154442.181    -1145579.03649   -879664.09849  21154442.2274   21154447.1504
  20886542.542   -21225094.58449 -16526655.12749  20886542.4574   20886548.1144
  24215120.018    -8192213.08649  -6178041.99249  24215121.1564   24215126.1084
  21089797.454   -24199833.89149 -18400834.10349  21089797.6664   21089802.4084
 96  7 12 19  8 59.9980000  0  6 17 24  5 16 25  6
  23861667.219    -8472072.69449  -6320021.33149  23861667.2294   23861675.5574
  22082310.960     6393708.24049   4991961.44549  22082311.4104   22082316.6374
  21167913.291    -1074791.63149   -824505.11349  21167912.4444   21167917.7414
  20876979.599   -21275348.93049 -16565814.33349  20876979.1834   20876984.8424
  24214144.022    -8197335.21149  -6182033.29649  24214144.9834   24214151.1854
  21076878.377   -24267723.06949 -18453734.74949  21076878.6854   21076883.4324
 96  7 12 19  9 29.9980000  0  6 17 24  5 16 25  6
  23841799.811    -8576476.80949  -6401375.09249  23841800.0144   23841806.9334
  22095384.328     6462409.84649   5045495.14649  22095384.6944   22095390.1294
  21181451.980    -1003643.00049   -769064.65749  21181451.7874   21181456.7234
  20867514.078   -21325089.21049 -16604572.96749  20867513.9194   20867519.6154
  24213263.512    -8201971.78549  -6185646.24749  24213264.2664   24213269.2814
  21063989.411   -24335455.49349 -18506513.24749  21063989.2164   21063994.2474
 96  7 12 19  9 59.9980000  0  6 17 24  5 16 25  6
  23821964.004    -8680712.16349  -6482597.35049  23821964.8834   23821972.0014
  22108483.633     6531246.72849   5099134.25949  22108484.4984   22108489.5794
  21195065.706     -932102.00349   -713318.45749  21195065.2114   21195070.6844
  20858152.388   -21374286.97049 -16642908.86349  20858151.8124   20858157.3734
  24212478.796    -8206088.04849  -6188853.76949  24212480.3034   24212485.7664
  21051134.460   -24403008.04049 -18559151.57649  21051134.6004   21051139.2954
 96  7 12 19 10 29.9980000  0  6 17 24  5 16 25  6
  23802153.135    -8784821.36449  -6563721.31449  23802153.5564   23802160.0414
  22121598.326     6600163.28249   5152835.45749  22121598.9634   22121603.9804
  21208747.292     -860203.33949   -657293.56649  21208747.1954   21208752.7864
  20848889.937   -21422958.23249 -16680834.51049  20848889.8904   20848895.6314
  24211787.706    -8209716.08849  -6191680.85649  24211788.2944   24211795.3854
  21038307.145   -24470415.27649 -18611676.67849  21038307.4804   21038312.2184
 96  7 12 19 10 59.9980000  0  6 17 24  5 16 25  6
  23782367.076    -8888797.78149  -6644741.80549  23782367.9144   23782374.2484
  22134728.042     6669159.39649   5206598.64049  22134728.3854   22134733.3194
  21222499.137     -787937.96949   -600982.92549  21222499.0204   21222503.8054
  20839727.576   -21471107.71749 -16718353.56449  20839727.0424   20839733.1104
  24211191.497    -8212856.03049  -6194127.61449  24211191.9384   24211197.8014
  21025505.699   -24537688.18349 -18664097.11049  21025505.4714   21025510.1804
 96  7 12 19 11 29.9980000  0  6 17 24  5 16 25  6
  23762608.265    -8992626.91249  -6725647.55249  23762608.4924   23762615.1814
  22147873.216     6738239.75949   5260427.48249  22147873.7814   22147879.0804
  21236324.845     -715286.20449   -544371.21149  21236324.2204   21236329.4764
  20830665.977   -21518725.34249 -16755458.18149  20830665.7004   20830671.6944
  24210688.954    -8215504.08849  -6196191.05549  24210687.7894   24210695.4414
  21012728.767   -24604830.15149 -18716415.50449  21012729.0674   21012733.9124
 96  7 12 19 11 59.9980000  0  6 17 24  5 16 25  6
  23742872.430    -9096336.20449  -6806459.89549  23742874.5544   23742879.6464
  22161033.846     6807398.24249   5314317.19749  22161034.6824   22161039.0634
  21250220.485     -642266.91449   -487473.08649  21250219.4694   21250224.2744
  20821706.788   -21565803.07549 -16792142.10449  20821707.0834   20821712.9784
  24210273.425    -8217684.36649  -6197890.01649  24210272.3714   24210279.6934
  20999976.555   -24671843.18549 -18768633.43349  20999976.6724   20999981.5734
 96  7 12 19 12 29.9980000  0  6 17 24  5 16 25  6
  23723168.410    -9199892.85349  -6887153.31549  23723167.3924   23723174.0644
  22174216.559     6876674.26049   5368298.49649  22174216.9984   22174221.7634
  21264190.475     -568847.90449   -430263.51249  21264190.7174   21264196.1094
  20812854.547   -21612326.89849 -16828394.42249  20812854.1644   20812859.6824
  24209950.782    -8219387.05749  -6199216.83149  24209949.3924   24209955.5894
  20987255.878   -24738691.51449 -18820723.02549  20987255.9314   20987260.9634
 96  7 12 19 12 59.9980000  0  6 17 24  5 16 25  6
  23703488.400    -9303304.92049  -6967734.06549  23703488.3264   23703495.1584
  22187421.836     6946065.19749   5422369.34149  22187421.7904   22187426.8414
  21278233.211     -495055.33449   -372762.84849  21278232.8044   21278238.3294
  20804100.983   -21658327.42149 -16864238.95749  20804100.4294   20804106.1184
  24209708.251    -8220649.68549  -6200200.71049  24209708.6484   24209714.6154
  20974564.171   -24805386.71249 -18872693.28849  20974564.5264   20974569.2504
 96  7 12 19 13 29.9980000  0  6 17 24  5 16 25  6
  23683841.393    -9406547.95149  -7048183.09549  23683841.3914   23683848.5144
  22200652.206     7015594.91449   5476548.32649  22200652.6654   22200658.2374
  21292349.040     -420875.43049   -314960.35649  21292349.0004   21292354.0374
  20795456.377   -21703755.16249 -16899637.17849  20795456.2184   20795461.4404
  24209552.746    -8221463.84049  -6200835.15349  24209554.3954   24209559.4154
  20961908.613   -24871893.85449 -18924517.01249  20961908.5004   20961913.2334
 96  7 12 19 13 59.9980000  0  6 17 24  5 16 25  6
  23664222.983    -9509643.34249  -7128517.09249  23664223.3984   23664230.6884
  22213905.573     7085240.87449   5530817.88249  22213905.8764   22213911.0744
  21306533.461     -346337.75049   -256879.07649  21306533.0354   21306538.0804
  20786918.999   -21748620.65549 -16934597.27749  20786918.6774   20786924.0514
  24209480.772    -8221845.36549  -6201132.47349  24209481.4144   24209487.2034
  20949287.480   -24938217.26649 -18976197.57349  20949287.7624   20949292.3094
 96  7 12 19 14 29.9980000  0  6 17 24  5 16 25  6
  23644634.641    -9612580.93849  -7208728.10949  23644635.8604   23644641.2674
  22227175.503     7154975.19949   5585156.30249  22227175.7784   22227180.8244
  21320779.742     -271472.68049   -198542.69849  21320779.1814   21320784.3834
  20778486.700   -21792930.55449 -16969124.45049  20778486.6924   20778491.9564
  24209489.883    -8221800.71849  -6201097.70649  24209489.3324   24209496.0644
  20936698.124   -25004374.90849 -19027748.97049  20936698.0124   20936702.6684
 96  7 12 19 14 59.9980000  0  6 17 24  5 16 25  6
  23625076.194    -9715367.50849  -7288821.45649  23625074.6264   23625083.1914
  22240458.872     7224780.41049   5639549.95349  22240459.7024   22240464.5124
  21335085.653     -196293.71149   -139961.72549  21335085.6044   21335090.1814
  20770166.092   -21836655.22049 -17003195.60049  20770165.9474   20770171.5534
  24209582.035    -8221318.52349  -6200722.02849  24209581.6414   24209587.3584
  20924137.839   -25070378.81049 -19079180.56249  20924138.0104   20924142.6994
 96  7 12 19 15 29.9980000  0  6 17 24  5 16 25  6
  23605539.786    -9818022.72449  -7368812.45649  23605541.1384   23605548.0594
  22253752.429     7294637.91849   5693984.35649  22253752.5704   22253757.9764
  21349450.835     -120803.77049    -81138.43649  21349450.5404   21349456.0304
  20761957.282   -21879793.37849 -17036809.72749  20761956.9574   20761962.5104
  24209759.849    -8220376.44049  -6199987.96749  24209760.8144   24209766.9634
  20911606.838   -25136230.24149 -19130493.34849  20911606.8534   20911611.6004
 96  7 12 19 15 59.9980000  0  6 17 24  5 16 25  6
  23586029.646    -9920552.90449  -7448706.02749  23586029.6774   23586036.9594
  22267055.846     7364548.24949   5748459.92249  22267056.4004   22267061.6954
  21363876.492      -44999.22849    -22070.00549  21363875.9654   21363881.4224
  20753854.917   -21922373.25649 -17069988.83549  20753854.3624   20753860.0014
  24210031.147    -8218957.08349  -6198882.00549  24210031.7694   24210038.5434
  20899104.415   -25201931.93649 -19181689.45949  20899104.3824   20899108.9174
 96  7 12 19 16 29.9980000  0  6 17 24  5 16 25  6
  23566542.772   -10022958.06649  -7528502.16649  23566541.7394   23566549.8544
  22280373.701     7434533.21849   5802993.64949  22280374.6444   22280379.2564
  21378365.018       31140.80249     37259.85449  21378364.6444   21378370.1884
  20745857.409   -21964399.86449 -17102736.81949  20745857.0154   20745862.3924
  24210392.968    -8217050.21249  -6197396.17749  24210393.7194   24210400.3214
  20886628.796   -25267490.65449 -19232774.15949  20886628.7764   20886633.5184
 96  7 12 19 16 59.9980000  0  6 17 24  5 16 25  6
  23547077.627   -10125242.83749  -7608204.49649  23547078.4484   23547085.3944
  22293709.821     7504614.33949   5857602.29349  22293710.3164   22293715.4964
  21392922.419      107639.62549     96869.28749  21392922.2194   21392927.5784
  20737964.945   -22005875.94449 -17135055.82249  20737964.3384   20737969.8294
  24210851.212    -8214643.13149  -6195520.56249  24210851.9044   24210857.1704
  20874182.526   -25332896.99149 -19283740.12249  20874182.6284   20874187.3444
 96  7 12 19 17 29.9980000  0  6 17 24  5 16 25  6
  23527636.788   -10227407.46649  -7687813.20249  23527637.3474   23527644.5314
  22307064.172     7574792.73749   5912286.73749  22307064.2444   22307069.6964
  21407546.560      184489.01749    156751.88349  21407546.0414   21407551.6684
  20730172.260   -22046825.59849 -17166964.62649  20730171.7504   20730177.2654
  24211403.510    -8211739.03649  -6193257.67349  24211404.6054   24211411.0084
  20861765.207   -25398148.16749 -19334585.17849  20861765.2844   20861770.1934
 96  7 12 19 17 59.9980000  0  6 17 24  5 16 25  6
  23508218.900   -10329450.40249  -7767327.11149  23508219.3414   23508225.3064
  22320434.858     7645055.54949   5967036.96249  22320435.0984   22320439.9974
  21422235.031      261678.23849    216899.29649  21422234.5184   21422240.2534
  20722478.447   -22087254.97949 -17198468.01949  20722478.5024   20722483.8454
  24212046.663    -8208365.95249  -6190629.32749  24212047.1424   24212055.1234
  20849376.412   -25463251.67349 -19385315.17049  20849376.8454   20849381.5764
 96  7 12 19 18 29.9980000  0  6 17 24  5 16 25  6
  23488823.941   -10431367.61249  -7846743.03449  23488824.8954   23488832.4864
  22333819.653     7715394.73649   6021846.70149  22333820.3254   22333825.3584
  21436985.430      339192.40049    277299.91149  21436985.5694   21436990.3514
  20714886.625   -22127151.18449 -17229555.95649  20714886.3474   20714892.0114
  24212775.519    -8204534.35149  -6187643.71949  24212775.9164   24212782.4904
  20837018.232   -25528195.24249 -19435920.53449  20837018.2284   20837023.0104
 96  7 12 19 18 59.9980000  0  6 17 24  5 16 25  6
  23469459.568   -10533133.61049  -7926041.12849  23469459.3374   23469465.8824
  22347220.387     7785815.49549   6076720.00349  22347220.8804   22347226.2924
  21451798.984      417038.01749    337958.80349  21451798.5974   21451804.0234
  20707401.457   -22166485.33049 -17260205.92049  20707401.1294   20707406.8964
  24213595.045    -8200229.58049  -6184289.39049  24213595.1654   24213601.3774
  20824698.371   -25592936.24149 -19486368.04949  20824698.6014   20824703.1744
 96  7 12 19 19 29.9980000  0  6 17 24  5 16 25  6
  23450120.585   -10634757.12949  -8005228.20849  23450121.4064   23450128.1364
  22360634.434     7856306.31649   6131647.88949  22360634.5674   22360639.8854
  21466673.625      495202.78049    398866.36949  21466672.9444   21466678.5854
  20700022.471   -22205263.94949 -17290423.01349  20700021.7914   20700027.2084
  24214501.267    -8195471.99049  -6180582.21249  24214500.2894   24214506.2674
  20812418.201   -25657469.43849 -19536653.63749  20812418.3794   20812423.0204
 96  7 12 19 19 59.9980000  0  6 17 24  5 16 25  6
  23430809.981   -10736233.56149  -8084300.66849  23430810.6464   23430818.4004
  22374061.352     7926864.82949   6186628.52349  22374062.3864   22374066.9374
  21481610.271      573697.11049    460030.74649  21481609.7994   21481615.5684
  20692749.584   -22243482.36049 -17320203.57149  20692749.1474   20692754.6084
  24215487.818    -8190284.56949  -6176540.10649  24215487.5034   24215494.5104
  20800178.398   -25721789.80149 -19586773.38249  20800178.3804   20800183.0494
 96  7 12 19 20 29.9980000  0  6 17 24  5 16 25  6
  23411530.501   -10837546.73249  -8163245.90549  23411530.4534   23411537.4714
  22387504.674     7997508.95249   6241675.86849  22387505.1404   22387510.7024
  21496610.649      652523.53049    521453.90049  21496609.9674   21496615.5944
  20685585.135   -22281132.75449 -17349541.51949  20685584.6484   20685589.8014
  24216560.308    -8184645.25849  -6172145.89849  24216560.0994   24216567.0454
  20787978.454   -25785901.35649 -19636730.42949  20787978.3544   20787983.5664
 96  7 12 19 20 59.9980000  0  6 17 24  5 16 25  6
  23392282.443   -10938699.39849  -8242066.08449  23392282.8764   23392289.1084
  22400960.776     8068222.85649   6296777.58849  22400961.1444   22400967.0124
  21511674.121      731683.23749    583136.74749  21511673.8734   21511679.5674
  20678526.938   -22318221.56049 -17378441.86649  20678526.5744   20678532.0544
  24217720.485    -8178550.08349  -6167396.45049  24217720.5894   24217726.0554
  20775813.155   -25849828.84149 -19686544.03049  20775813.4494   20775818.3144
 96  7 12 19 21 29.9980000  0  5 17 24  5 16  6
  23373066.446   -11039678.54049  -8320751.05349  23373066.0634   23373073.4884
  22414430.707     8139005.89849   6351933.17949  22414430.5974   22414436.1514
  21526800.108      811171.23149    645075.39749  21526799.9464   21526805.7824
  20671574.810   -22354754.39149 -17406908.98849  20671574.6574   20671580.1294
  20763679.457   -25913593.52349 -19736230.78049  20763679.3364   20763684.4104
 96  7 12 19 21 59.9980000  0  5 17 24  5 16  6
  23353887.994   -11140467.07149  -8399287.48949  23353887.3944   23353894.6774
  22427911.111     8209844.93449   6407132.40149  22427911.6114   22427916.4904
  21541988.053      890983.46849    707266.72149  21541987.3744   21541993.2744
  20664728.632   -22390733.94949 -17434944.98449  20664728.0614   20664733.2454
  20751574.348   -25977204.51249 -19785797.76449  20751574.6204   20751579.5554
 96  7 12 19 22 29.9980000  0  5 17 24  5 16  6
  23334742.588   -11241074.15249  -8477682.54749  23334742.4654   23334748.9554
  22441401.168     8280738.13549   6462373.83149  22441401.2434   22441407.3074
  21557232.866      971098.22949    769693.76149  21557232.7964   21557238.4724
  20657987.876   -22426156.84549 -17462547.22349  20657987.2994   20657992.4684
  20739498.332   -26040664.67749 -19835247.22749  20739498.4574   20739503.2804
 96  7 12 19 22 59.9980000  0  5 17 24  5 16  6
  23315629.641   -11341512.61549  -8555946.22049  23315629.9064   23315636.6224
  22454903.371     8351688.93849   6517660.14549  22454903.0764   22454908.8264
  21572538.342     1051525.65749    832364.44849  21572537.7434   21572543.3404
  20651355.960   -22461007.45349 -17489703.52249  20651355.4084   20651360.6864
  20727456.947   -26103943.31249 -19884555.24349  20727456.9974   20727461.8654
 96  7 12 19 23 29.9980000  0  5 17 24  5 16  6
  23296543.656   -11441808.25749  -8634098.60949  23296543.8444   23296551.0624
  22468414.557     8422692.54949   6572987.61049  22468415.3974   22468420.4954
  21587898.085     1132241.45549    895259.83449  21587897.2914   21587902.6374
  20644831.954   -22495290.95349 -17516417.92249  20644831.6714   20644836.9514
  20715448.955   -26167044.87149 -19933725.27649  20715449.0704   20715453.7304
 96  7 12 19 23 59.9980000  0  5 17 24  5 16  6
  23277481.954   -11541975.25849  -8712150.74549  23277481.5444   23277489.2704
  22481937.613     8493755.70549   6628361.47849  22481937.8254   22481943.6534
  21603313.479     1213251.43949    958384.46249  21603313.0664   21603319.0344
  20638418.482   -22528993.80549 -17542679.86349  20638418.3154   20638423.4314
  20703476.459   -26229961.16349 -19982750.94449  20703476.4334   20703481.2994
 96  7 12 19 24 29.9980000  0  5 17 24  5 16  6
  23258442.640   -11642024.09749  -8790110.81849  23258442.7604   23258451.0794
  22495474.300     8564892.80249   6683792.95849  22495474.8214   22495480.2344
  21618785.743     1294556.35049   1021738.90049  21618785.1784   21618791.3274
  20632117.424   -22562106.50649 -17568481.95149  20632116.8454   20632122.3234
  20691538.361   -26292696.82349 -20031635.86349  20691538.4264   20691542.8694
 96  7 12 19 24 59.9980000  0  5 17 24  5 16  6
  23239431.968   -11741930.42449  -8867959.83749  23239431.7884   23239439.6634
  22509030.090     8636125.89849   6739299.23849  22509030.6264   22509035.2904
  21634319.427     1376188.44949   1085348.29349  21634319.2954   21634324.8794
  20625930.517   -22594618.41649 -17593815.89049  20625930.1294   20625935.5144
  20679636.290   -26355241.24649 -20080371.76449  20679636.4604   20679641.3804
 96  7 12 19 25 29.9980000  0  5 17 24  5 16  6
  23220449.755   -11841684.01449  -8945689.84349  23220449.4154   23220457.0584
  22522600.922     8707444.69549   6794872.31649  22522601.4494   22522607.0364
  21649913.437     1458131.91149   1149200.30649  21649912.7344   21649918.1224
  20619854.465   -22626548.14149 -17618696.17749  20619854.1214   20619859.4454
  20667766.464   -26417619.48949 -20128978.17349  20667766.4004   20667771.0004
 96  7 12 19 25 59.9980000  0  5 17 24  5 16  6
  23201494.824   -11941287.41249  -9023302.83049  23201496.3814   23201503.1634
  22536186.349     8778836.31049   6850502.12149  22536187.6624   22536192.3364
  21665562.902     1540372.88349   1213284.14849  21665562.2674   21665568.2964
  20613885.120   -22657917.47949 -17643139.80049  20613884.6614   20613889.8044
  20655926.053   -26479840.66549 -20177462.19149  20655926.0494   20655930.7134
 96  7 12 19 26 29.9980000  0  5 17 24  5 16  6
  23182571.221   -12040732.77749  -9100792.66649  23182571.8594   23182578.8764
  22549784.255     8850292.62249   6906182.34549  22549784.3154   22549790.1894
  21681269.620     1622912.83949   1277600.97249  21681269.8744   21681275.0544
  20608022.838   -22688723.00749 -17667144.08949  20608022.8484   20608027.9084
  20644118.923   -26541885.45849 -20225808.77249  20644119.2384   20644123.4684
 96  7 12 19 26 59.9980000  0  5 17 24  5 16  6
  23163677.320   -12140021.78849  -9178160.68249  23163677.3754   23163684.5834
  22563390.440     8921794.50449   6961898.07849  22563391.4154   22563396.5164
  21697031.206     1705739.08749   1342140.88049  21697030.4484   21697036.3954
  20602266.785   -22718973.33849 -17690715.75849  20602266.1634   20602271.4224
  20632347.348   -26603747.00349 -20274012.56249  20632347.8064   20632352.1314
 96  7 12 19 27 29.9980000  0  5 17 24  5 16  6
  23144817.296   -12239132.58949  -9255389.83849  23144818.3734   23144824.4294
  22577006.025     8993343.94149   7017650.85549  22577006.4424   22577012.1464
  21712847.031     1788853.92949   1406905.65049  21712847.4514   21712852.3004
  20596619.308   -22748650.68949 -17713840.95349  20596618.9374   20596624.1214
  20620617.484   -26665388.87449 -20322045.17749  20620617.5244   20620621.8784
 96  7 12 19 27 59.9980000  0  5 17 24  5 16  6
  23125988.164   -12338079.94249  -9332491.61749  23125988.2764   23125995.5934
  22590625.945     9064917.04749   7073422.08749  22590626.3214   22590632.3594
  21728715.084     1872240.01549   1471881.78949  21728715.1154   21728720.8544
  20591076.861   -22777775.31449 -17736535.45249  20591076.4094   20591081.6524
  20608926.033   -26726825.99249 -20369918.24549  20608926.2964   20608930.4914
 96  7 12 19 28 29.9980000  0  5 17 24  5 16  6
  23107190.385   -12436862.59049  -9409465.04649  23107190.4454   23107197.5574
  22604248.162     9136503.18449   7129203.46849  22604248.7214   22604254.3814
  21744635.095     1955899.78349   1537071.17749  21744634.9044   21744640.2614
  20585638.959   -22806352.22949 -17758803.17049  20585638.5354   20585643.5114
  20597275.814   -26788050.44749 -20417625.60249  20597275.6344   20597280.2024
 96  7 12 19 28 59.9980000  0  5 17 24  5 16  6
  23088425.416   -12535471.06649  -9486302.76149  23088426.4234   23088432.9724
  22617876.920     9208122.13249   7185010.41849  22617877.6014   22617883.5144
  21760605.687     2039823.00049   1602465.86049  21760604.9924   21760610.7864
  20580305.832   -22834377.83949 -17780641.29349  20580305.3014   20580310.5614
  20585664.161   -26849068.98549 -20465172.50549  20585664.1534   20585668.7324
 96  7 12 19 29 29.9980000  0  5 17 24  5 16  6
  23069692.537   -12633916.36349  -9563013.33349  23069692.9744   23069700.1514
  22631511.868     9279774.33049   7240843.27949  22631512.4254   22631517.7974
  21776623.749     2123998.46649   1668057.09049  21776622.9534   21776628.9624
  20575078.707   -22861846.27349 -17802045.24949  20575078.2304   20575083.2654
  20574088.850   -26909897.98049 -20512571.70349  20574089.0694   20574093.1624
 96  7 12 19 29 59.9980000  0  5 17 24  5 16  6
  23050986.651   -12732211.53349  -9639606.91149  23050987.6584   23050994.8094
  22645155.255     9351469.56649   7296709.67449  22645155.6924   22645160.8024
  21792691.104     2208435.75849   1733852.35249  21792691.1514   21792697.3204
  20569959.578   -22888747.80049 -17823007.47049  20569958.9634   20569964.2094
  20562547.921   -26970545.57749 -20559829.55449  20562548.0474   20562552.6674
 96  7 12 19 30 29.9980000  0  5 17 24  5 16  6
  23032310.002   -12830360.70349  -9716086.73249  23032310.2334   23032318.0604
  22658808.389     9423218.88149   7352618.20849  22658808.9124   22658814.8164
  21808811.228     2293145.14449   1799859.62349  21808810.8254   21808816.6574
  20564953.278   -22915055.22849 -17843506.75149  20564953.1574   20564958.2854
  20551043.937   -27031000.58749 -20606937.34549  20551043.9144   20551048.2104
 96  7 12 19 30 59.9980000  0  5 17 24  5 16  6
  23013662.563   -12928353.15149  -9792444.42449  23013662.6794   23013670.2104
  22672476.298     9495043.28449   7408585.24749  22672476.4864   22672482.5314
  21824984.544     2378136.57549   1866086.67249  21824984.8194   21824990.1144
  20560065.420   -22940740.94449 -17863521.57849  20560065.1904   20560070.3584
  20539576.643   -27091259.89449 -20653892.63349  20539576.7494   20539581.4034
 96  7 12 19 31 29.9980000  0  5 17 24  5 16  6
  22995042.033   -13026208.63249  -9868695.39549  22995042.2844   22995049.3744
  22686150.476     9566902.10549   7464579.10949  22686150.9324   22686156.8864
  21841210.041     2463402.23249   1932527.39749  21841209.5204   21841215.7444
  20555290.076   -22965835.56449 -17883075.80449  20555289.8354   20555295.2384
  20528145.735   -27151329.86849 -20700700.39449  20528145.8164   20528150.4444
 96  7 12 19 31 59.9980000  0  5 17 24  5 16  6
  22976451.866   -13123899.63249  -9944818.20549  22976451.5154   22976458.1694
  22699833.632     9638808.21949   7520609.82149  22699833.4884   22699839.4084
  21857491.721     2548962.61849   1999197.79349  21857490.7974   21857496.5704
  20550628.261   -22990333.10049 -17902164.78049  20550627.9034   20550633.3604
  20516756.399   -27211180.73849 -20747337.42749  20516756.5854   20516761.1554
 96  7 12 19 32 29.9980000  0  5 17 24  5 16  6
  22957893.011   -13221427.79349 -10020814.09549  22957891.8194   22957899.6484
  22713522.302     9710741.37949   7576661.61149  22713522.5784   22713528.1384
  21873822.520     2634779.45349   2066068.01949  21873821.7334   21873827.4814
  20546075.183   -23014259.41149 -17920808.63749  20546074.9874   20546080.1954
  20505404.416   -27270836.36549 -20793822.31549  20505404.5614   20505408.8114
 96  7 12 19 32 59.9980000  0  5 17 24  5 16  6
  22939368.844   -13318769.60949 -10096664.79349  22939369.5874   22939375.0954
  22727214.818     9782695.75949   7632729.92849  22727215.7474   22727220.7424
  21890199.244     2720841.97449   2133129.68649  21890199.5804   21890204.1904
  20541627.181   -23037634.46849 -17939022.95549  20541626.6284   20541632.3354
  20494092.190   -27330283.72249 -20840144.91849  20494092.0524   20494096.5144
 96  7 12 19 33 29.9980000  0  5 17 24  5 16  6
  22920883.003   -13415913.18549 -10172361.03749  22920883.1004   22920889.1574
  22740911.671     9854674.21749   7688817.01049  22740912.0504   22740918.0414
  21906625.242     2807160.54349   2200390.86949  21906624.6504   21906630.3754
  20537282.944   -23060463.30349 -17956811.63749  20537282.6134   20537287.8414
  20482821.808   -27389509.37249 -20886294.75349  20482821.8284   20482826.1964
 96  7 12 19 33 59.9980000  0  5 17 24  5 16  6
  22902432.939   -13512864.24149 -10247907.26549  22902433.2894   22902440.7254
  22754615.492     9926689.90249   7744933.10149  22754616.7884   22754621.8864
  21923099.508     2893733.08949   2267849.94849  21923099.6314   21923104.7384
  20533044.474   -23082736.61049 -17974167.44949  20533044.1744   20533049.5124
  20471590.477   -27448529.54549 -20932284.48649  20471590.6994   20471595.0434
 96  7 12 19 34 29.9980000  0  5 17 24  5 16  6
  22884019.815   -13609628.30549 -10323307.79549  22884020.6004   22884026.7804
  22768324.886     9998730.64149   7801068.71549  22768325.0734   22768331.1754
  21939621.477     2980557.55749   2335505.33749  21939621.5594   21939626.5244
  20528911.689   -23104454.30249 -17991090.31549  20528911.4434   20528916.6054
  20460397.821   -27507347.03449 -20978116.27549  20460398.1754   20460402.5604
 96  7 12 19 34 59.9980000  0  5 17 24  5 16  6
  22865640.854   -13706215.63349 -10398570.60349  22865640.2994   22865646.6164
  22782040.695    10070809.70149   7857234.19049  22782041.3204   22782046.9924
  21956195.821     3067655.78749   2403374.04849  21956195.3994   21956200.4334
  20524888.266   -23125598.40649 -18007566.23149  20524887.8684   20524893.0804
  20449246.144   -27565950.29249 -21023781.13549  20449246.1714   20449250.7774
 96  7 12 19 35 29.9980000  0  5 17 24  5 16  6
  22847290.520   -13802646.58749 -10473711.55849  22847290.6174   22847296.3814
  22795767.151    10142940.31449   7913439.82749  22795767.4324   22795772.8334
  21972822.106     3155029.31849   2471457.27349  21972822.2674   21972827.7354
  20520977.866   -23146146.37449 -18023577.61849  20520977.4554   20520982.7604
  20438132.923   -27624349.81949 -21069287.24549  20438132.9654   20438137.5324
 96  7 12 19 35 59.9980000  0  5 17 24  5 16  6
  22828967.819   -13898929.97749 -10548737.52249  22828968.3074   22828974.9064
  22809501.190    10215114.21349   7969679.21149  22809501.8254   22809506.2854
  21989499.034     3242662.71749   2539742.99749  21989498.2744   21989503.9104
  20517184.292   -23166083.22149 -18039112.80849  20517183.7934   20517189.0604
  20427059.381   -27682544.06049 -21114633.39249  20427059.5444   20427063.6454
 96  7 12 19 36 29.9980000  0  5 17 24  5 16  6
  22810674.199   -13995062.56249 -10623645.96849  22810674.4714   22810681.4934
  22823242.471    10287325.22149   8025947.51549  22823243.6844   22823248.9844
  22006220.864     3330535.49649   2608215.24849  22006220.3314   22006224.8884
  20513505.589   -23185414.85049 -18054176.40249  20513505.2804   20513510.3714
  20416026.461   -27740521.10349 -21159810.29549  20416026.4894   20416030.9964
 96  7 12 19 36 59.9980000  0  5 17 24  5 16  6
  22792410.545   -14091039.05949 -10698432.78949  22792410.2894   22792416.9034
  22836992.954    10359583.04449   8082252.29649  22836994.0374   22836998.8054
  22022984.830     3418632.07149   2676861.89449  22022984.8354   22022989.3764
  20509941.505   -23204142.28649 -18068769.19249  20509941.0704   20509946.5714
  20405035.067   -27798281.35649 -21204818.26449  20405034.9584   20405039.5114
 96  7 12 19 37 29.9980000  0  5 17 24  5 16  6
  22774181.770   -14186831.88749 -10773076.50949  22774181.9244   22774188.0014
  22850749.530    10431876.27749   8138584.66549  22850750.7584   22850756.0764
  22039792.337     3506956.25149   2745685.89049  22039792.0674   22039797.2034
  20506490.418   -23222279.02349 -18082901.69449  20506489.9754   20506495.0054
  20394087.876   -27855809.22849 -21249645.16149  20394087.9604   20394092.1654
 96  7 12 19 37 59.9980000  0  5 17 24  5 16  6
  22755992.785   -14282415.21249 -10847556.97149  22755993.0704   22755999.3684
  22864514.275    10504208.05849   8194947.07149  22864515.1754   22864520.7324
  22056644.788     3595517.42849   2814694.55849  22056644.3524   22056649.3364
  20503150.052   -23239832.88749 -18096580.01049  20503149.5014   20503154.8004
  20383188.180   -27913088.49249 -21294278.33949  20383187.8754   20383192.1734
 96  7 12 19 38 29.9980000  0  5 17 24  5 16  6
  22737843.790   -14377788.08849 -10921873.46549  22737843.7354   22737850.2714
  22878286.979    10576582.96549   8251343.07949  22878287.4154   22878292.7474
  22073540.916     3684307.26049   2883881.40449  22073541.0544   22073546.0334
  20499916.956   -23256822.16649 -18109818.39249  20499916.7744   20499921.7164
  20372333.589   -27970127.99049 -21338724.68149  20372333.6424   20372337.9414
 96  7 12 19 38 59.9980000  0  5 17 24  5 16  6
  22719732.555   -14472964.78449 -10996037.07949  22719732.8654   22719738.8354
  22892064.323    10648982.74049   8307758.46349  22892064.6414   22892070.0544
  22090480.071     3773325.10549   2953245.92549  22090480.4774   22090485.6534
  20496790.036   -23273255.51149 -18122623.57349  20496789.5954   20496794.5274
  20361522.390   -28026939.75649 -21382993.57149  20361522.6784   20361527.1004
 96  7 12 19 39 29.9980000  0  5 17 24  5 16  6
  22701656.656   -14567950.32349 -11070051.73649  22701656.8154   22701663.6284
  22905847.881    10721418.68649   8364202.03149  22905848.2084   22905854.3504
  22107465.649     3862585.51849   3022799.45949  22107465.3134   22107470.9854
  20493772.630   -23289111.86949 -18134979.15549  20493772.3184   20493777.0354
  20350757.623   -28083510.65149 -21427074.77349  20350757.7734   20350762.3014
 96  7 12 19 39 59.9980000  0  5 17 24  5 16  6
  22683615.702   -14662761.12649 -11143930.23649  22683615.5364   22683622.2514
  22919640.036    10793895.80049   8420677.68949  22919640.8574   22919645.9334
  22124494.285     3952068.44249   3092526.37749  22124494.0334   22124499.9744
  20490868.906   -23304370.34549 -18146868.85849  20490868.6574   20490873.6974
  20340037.772   -28139843.43849 -21470970.43749  20340037.8244   20340042.1664
 96  7 12 19 40 29.9980000  0  5 17 24  5 16  6
  22665609.706   -14757377.80849 -11217657.47749  22665610.6734   22665617.4574
  22933439.382    10866413.08249   8477184.64549  22933439.7844   22933445.6294
  22141568.594     4041797.66949   3162445.20649  22141568.8244   22141575.0444
  20488083.024   -23319009.54249 -18158276.00349  20488082.8664   20488087.9444
  20329368.576   -28195909.62649 -21514658.35949  20329368.7914   20329373.0044
 96  7 12 19 40 59.9980000  0  5 17 24  5 16  6
  22647634.288   -14851842.49549 -11291266.27949  22647634.8064   22647641.0864
  22947235.608    10938910.11049   8533675.82049  22947235.6724   22947241.6034
  22158681.359     4131720.81749   3232515.14949  22158680.2624   22158687.0254
  20485407.190   -23333072.20949 -18169233.90549  20485406.7184   20485411.6424
  20318742.842   -28251749.05749 -21558169.58949  20318742.7384   20318747.1474
 96  7 12 19 41 29.9980000  0  5 17 24  5 16  6
  22629685.885   -14946158.68849 -11364759.36149  22629686.8064   22629693.2454
  22961024.832    11011374.99049   8590141.94749  22961025.4244   22961031.0164
  22175827.325     4221826.16949   3302727.05849  22175825.6624   22175833.3254
  20482839.429   -23346566.20949 -18179748.69049  20482838.9114   20482843.7384
  20308157.439   -28307376.10249 -21601515.32149  20308157.1914   20308161.6694
 96  7 12 19 41 59.9980000  0  5 17 24  5 16  6
  22611774.686   -15040284.61149 -11438104.18749  22611775.3414   22611781.7484
  22974811.734    11083825.60349   8646596.94349  22974812.5754   22974818.5434
  22193013.566     4312141.84749   3373102.86049  22193013.4364   22193019.5614
  20480381.408   -23359484.01749 -18189814.49949  20480380.9094   20480385.7544
  20297617.894   -28362760.90149 -21644672.29349  20297618.0034   20297622.4604
 96  7 12 19 42 29.9980000  0  5 17 24  5 16  6
  22593901.025   -15134208.91149 -11511291.89849  22593901.4404   22593908.5094
  22988598.197    11156273.39949   8703049.74049  22988598.9404   22988605.2404
  22210241.085     4402674.50149   3443647.74049  22210241.4864   22210247.5214
  20478032.481   -23371826.64749 -18199432.10949  20478031.8994   20478037.1294
  20287123.046   -28417911.07349 -21687646.43549  20287123.0754   20287127.6624
 96  7 12 19 42 59.9980000  0  5 17 24  5 16  6
  22576068.350   -15227924.53049 -11584317.00349  22576068.5284   22576075.1914
  23002396.364    11228779.86549   8759548.25749  23002395.9494   23002401.9294
  22227515.314     4493445.22349   3514378.12249  22227514.2904   22227520.4394
  20475802.516   -23383544.92049 -18208563.21449  20475802.2164   20475807.1994
  20276675.519   -28472812.45349 -21730426.71849  20276675.6754   20276680.3054
 96  7 12 19 43 29.9980000  0  5 17 24  5 16  6
  22558269.169   -15321458.04549 -11657200.21449  22558269.0784   22558276.3454
  23016202.334    11301333.42049   8816083.47049  23016203.0644   23016208.7384
  22244830.900     4584440.91349   3585283.81149  22244830.5334   22244836.9954
  20473683.799   -23394678.19749 -18217238.47449  20473683.6434   20473688.3784
  20266268.745   -28527499.79949 -21773040.21849  20266269.1444   20266273.7004
 96  7 12 19 43 59.9980000  0  5 17 24  5 16  6
  22540505.801   -15414806.81049 -11729939.45849  22540505.2304   22540512.5324
  23030018.811    11373943.43149   8872662.65949  23030019.4474   23030025.4914
  22262189.123     4675656.31049   3656360.68849  22262188.1834   22262194.3914
  20471676.990   -23405224.94049 -18225456.70449  20471676.6144   20471681.6284
  20255904.395   -28581966.40549 -21815481.71849  20255904.4804   20255909.0564
 96  7 12 19 44 29.9980000  0  5 17 24  5 16  6
  22522776.733   -15507969.99149 -11802534.08849  22522777.2984   22522784.3484
  23043847.891    11446612.90649   8929288.20149  23043848.6544   23043854.6884
  22279587.939     4767088.59249   3727606.57049  22279587.7314   22279592.7484
  20469784.986   -23415167.02849 -18233203.76649  20469784.7624   20469789.5064
  20245583.528   -28636203.03249 -21857744.00949  20245583.7134   20245588.2174
 96  7 12 19 44 59.9980000  0  5 17 24  5 16  6
  22505085.313   -15600942.51949 -11874980.16249  22505085.3014   22505092.2834
  23057684.158    11519326.39349   8985948.02549  23057685.7364   23057691.4484
  22297029.126     4858745.70249   3799027.63149  22297029.2154   22297035.4774
  20468004.437   -23424523.39749 -18240494.43249  20468004.0494   20468008.7574
  20235310.067   -28690189.33449 -21899811.25349  20235310.2784   20235314.7334
 96  7 12 19 45 29.9980000  0  5 17 24  5 16  6
  22487431.867   -15693711.78149 -11947267.83449  22487431.8374   22487438.2444
  23071524.509    11592051.27949   9042616.72749  23071524.6054   23071530.4234
  22314511.375     4950612.46049   3870612.07349  22314511.3394   22314517.0644
  20466329.237   -23433327.39649 -18247354.67949  20466328.8814   20466333.7234
  20225084.994   -28743923.47249 -21941681.99949  20225085.1874   20225089.6474
 96  7 12 19 45 59.9980000  0  5 17 24  5 16  6
  22469811.612   -15786302.26149 -12019416.20749  22469812.1984   22469818.8854
  23085359.039    11664754.79849   9099268.78849  23085359.4134   23085365.5484
  22332026.174     5042655.33749   3942333.74549  22332026.3104   22332032.0014
  20464761.028   -23441567.35349 -18253775.40949  20464760.6724   20464765.5664
  20214909.257   -28797398.91749 -21983351.16649  20214909.1444   20214913.6094
 96  7 12 19 46 29.9980000  0  5 17 24  5 16  6
  22452229.412   -15878700.52949 -12091414.79949  22452229.4624   22452236.1534
  23099191.514    11737447.07949   9155912.07349  23099192.5954   23099198.4004
  22349577.750     5134889.51149   4014204.47949  22349578.0544   22349584.0774
  20463303.785   -23449226.67249 -18259743.69949  20463303.0624   20463308.4284
  20204784.387   -28850604.42749 -22024809.99349  20204784.0844   20204788.8864
 96  7 12 19 46 59.9980000  0  5 17 24  5 16  6
  22434680.921   -15970915.93549 -12163270.90849  22434681.4634   22434688.2464
  23113023.001    11810128.80649   9212547.15949  23113023.3234   23113029.6724
  22367164.296     5227305.25649   4086216.68949  22367163.9464   22367169.6554
  20461953.645   -23456320.60849 -18265271.43149  20461953.2564   20461958.3414
  20194706.373   -28903562.87749 -22066076.30849  20194706.7404   20194711.2864
 96  7 12 19 47 29.9980000  0  5 17 24  5 16  6
  22417167.551   -16062951.98749 -12234987.24249  22417167.0704   22417173.5224
  23126853.162    11882809.68249   9269181.57049  23126854.3654   23126860.3034
  22384784.443     5319898.86649   4158367.50849  22384784.4394   22384790.6004
  20460718.540   -23462812.91649 -18270330.36249  20460717.8744   20460722.7614
  20184675.710   -28956275.95549 -22107151.42249  20184675.7864   20184680.2894
 96  7 12 19 47 59.9980000  0  5 17 24  5 16  6
  22399688.838   -16154799.98349 -12306557.05349  22399689.3404   22399695.6014
  23140688.266    11955510.97449   9325831.90249  23140689.2964   23140695.1614
  22402439.857     5412677.64749   4230662.61049  22402438.5994   22402445.1534
  20459601.444   -23468681.45349 -18274903.23849  20459600.9794   20459606.1384
  20174693.014   -29008737.72349 -22148030.70949  20174692.6664   20174696.9194
 96  7 12 19 48 29.9980000  0  5 17 24  5 16  6
  22382253.083   -16246428.99249 -12377956.22349  22382252.6594   22382259.4144
  23154532.855    12028267.02249   9382524.88849  23154533.2624   23154539.5814
  22420134.559     5505665.76549   4303120.82549  22420134.1974   22420139.9094
  20458602.667   -23473929.04049 -18278992.26549  20458602.4774   20458607.2424
  20164758.564   -29060941.10549 -22188708.66649  20164758.6024   20164762.8484
 96  7 12 19 48 59.9980000  0  5 17 24  5 16  6
  22364852.077   -16337869.19149 -12449208.26449  22364852.3184   22364858.8274
  23168382.547    12101042.72749   9439233.19949  23168381.6504   23168388.6244
  22437863.274     5598827.39149   4375714.24749  22437862.2234   22437867.1974
  20457716.037   -23478589.87849 -18282624.07849  20457715.5604   20457720.3104
  20154870.363   -29112905.57349 -22229200.44449  20154870.3124   20154874.5844
 96  7 12 19 49 29.9980000  0  5 17 24  5 16  6
  22347491.096   -16429103.91249 -12520300.19249  22347490.6174   22347497.2434
  23182235.303    12173839.30649   9495957.77549  23182235.3594   23182240.2194
  22455627.224     5692179.30149   4448455.92849  22455627.0784   22455631.9724
  20456943.243   -23482651.33049 -18285788.83949  20456942.5004   20456947.5124
  20145032.631   -29164602.98549 -22269484.13149  20145032.5204   20145036.9594
 96  7 12 19 49 59.9980000  0  5 17 24  5 16  6
  22330170.031   -16520124.60149 -12591225.34849  22330169.9974   22330176.9214
  23196090.050    12246647.30949   9552691.25149  23196089.9304   23196096.8634
  22473428.805     5785728.40049   4521351.26949  22473428.5904   22473435.2714
  20456279.315   -23486139.01949 -18288506.51249  20456279.0344   20456284.1434
  20135247.373   -29216024.42149 -22309552.76649  20135247.3674   20135251.8004
 96  7 12 19 50 29.9980000  0  5 17 24  5 16  6
  22312888.399   -16610942.93949 -12661992.82849  22312888.3484   22312895.0104
  23209942.417    12319443.55149   9609415.55749  23209943.3244   23209948.8664
  22491268.511     5879477.53049   4594402.49149  22491268.3524   22491274.7664
  20455722.142   -23489067.68749 -18290788.57849  20455721.8204   20455726.7454
  20125513.537   -29267174.85649 -22349410.23449  20125513.7694   20125518.1754
 96  7 12 19 50 59.9980000  0  5 17 24  5 16  6
  22295642.444   -16701569.68349 -12732611.00349  22295642.2134   22295648.6824
  23223789.773    12392215.15949   9666120.66649  23223790.7774   23223797.6694
  22509146.686     5973427.04249   4667609.83849  22509146.7054   22509152.0274
  20455273.049   -23491426.88049 -18292626.90449  20455272.7594   20455277.5554
  20115831.651   -29318053.87849 -22389056.20849  20115831.6494   20115835.7384
 96  7 12 19 51 29.9980000  0  5 17 24  5 16  6
  22278431.171   -16792014.00649 -12803087.03649  22278431.3654   22278437.3804
  23237633.384    12464962.65549   9722806.98049  23237634.9634   23237640.0164
  22527060.703     6067565.54049   4740964.44149  22527060.6594   22527067.0094
  20454931.511   -23493222.13749 -18294025.79749  20454931.0924   20454936.2244
  20106199.856   -29368669.17049 -22428496.68049  20106199.7654   20106204.4234
 96  7 12 19 51 59.9980000  0  5 17 24  5 16  6
  22261256.600   -16882264.95749 -12873412.39749  22261256.8904   22261263.3384
  23251478.893    12537715.51549   9779497.48549  23251478.5134   23251484.5644
  22545011.185     6161896.33249   4814468.87849  22545011.7754   22545016.9494
  20454701.405   -23494432.13149 -18294968.64149  20454701.0734   20454705.8424
  20096621.865   -29419000.64749 -22467715.99949  20096622.1924   20096626.5004
 96  7 12 19 52 29.9980000  0  5 17 24  5 16  6
  22244120.015   -16972321.70049 -12943586.41949  22244120.4244   22244125.5684
  23265329.700    12610502.70449   9836214.73549  23265329.9304   23265335.6094
  22562994.710     6256397.19249   4888105.86049  22562995.3784   22562999.9864
  20454585.929   -23495039.12449 -18295441.61549  20454585.2424   20454590.1904
  20087098.178   -29469048.20349 -22506714.08249  20087098.4554   20087102.9914
 96  7 12 19 52 59.9980000  0  5 17 24  5 16  6
  22227017.827   -17062187.09149 -13013611.34149  22227019.1254   22227025.2084
  23279189.074    12683334.25349   9892966.57549  23279189.6304   23279194.7324
  22581004.899     6351045.99049   4961858.10049  22581005.6474   22581010.6434
  20454583.709   -23495049.77149 -18295449.90549  20454583.5534   20454588.1984
  20077628.741   -29518811.69349 -22545490.82049  20077628.6364   20077632.7624
 96  7 12 19 53 29.9980000  0  5 17 24  5 16  6
  22209957.413   -17151843.47949 -13083473.41349  22209957.6254   22209963.7484
  23293059.887    12756226.40149   9949765.60649  23293059.7924   23293064.7654
  22599044.086     6445839.44949   5035723.06049  22599043.3924   22599050.9284
  20454694.901   -23494464.08049 -18294993.51349  20454694.5314   20454699.4144
  20068216.001   -29568273.97749 -22584032.85049  20068216.3654   20068220.6434
 96  7 12 19 53 59.9980000  0  5 17 24  5 16  6
  22192934.616   -17241300.26249 -13153179.93649  22192934.7794   22192940.8974
  23306937.283    12829152.37149  10006591.00249  23306937.0514   23306942.4234
  22617105.218     6540753.62649   5109682.09949  22617105.5494   22617112.6424
  20454916.827   -23493297.14149 -18294084.20349  20454916.4934   20454921.6874
  20058857.057   -29617457.04849 -22622357.31049  20058857.2514   20058861.2974
 96  7 12 19 54 29.9980000  0  5 17 24  5 16  6
  22175949.414   -17330557.47349 -13222730.94649  22175949.4234   22175956.2244
  23320819.054    12902101.02549  10063434.08249  23320819.4874   23320824.9064
  22635190.992     6635791.93649   5183737.85049  22635190.5254   22635196.4414
  20455250.210   -23491546.82149 -18292720.30549  20455249.8244   20455254.7734
  20049550.557   -29666362.84349 -22660465.70749  20049550.6584   20049554.8524
 96  7 12 19 54 59.9980000  0  5 17 24  5 16  6
  22159001.839   -17419614.58349 -13292126.04149  22159002.8594   22159008.4374
  23334700.435    12975045.10249  10120273.57849  23334700.5054   23334704.7394
  22653303.435     6730970.96549   5257903.26149  22653302.6634   22653309.3294
  20455692.691   -23489221.46749 -18290908.33449  20455692.2854   20455696.9234
  20040295.874   -29714995.12049 -22698360.98049  20040296.1714   20040300.3934
 96  7 12 19 55 29.9980000  0  5 17 24  5 16  6
  22142092.324   -17508476.52549 -13361369.05249  22142091.8204   22142098.6824
  23348576.446    13047966.17149  10177095.13549  23348576.0684   23348582.9114
  22671441.538     6826290.08249   5332177.83149  22671441.2174   22671447.6174
  20456245.593   -23486315.06249 -18288643.59649  20456245.2694   20456250.1154
  20031093.846   -29763354.04749 -22736043.25349  20031094.0724   20031097.8364
 96  7 12 19 55 59.9980000  0  5 17 24  5 16  6
  22125220.094   -17597141.11949 -13430458.29849  22125220.1464   22125225.9774
  23362446.884    13120857.20949  10233893.30649  23362447.6514   23362452.2644
  22689608.975     6921762.05849   5406571.50749  22689608.4854   22689615.3814
  20456910.931   -23482821.10249 -18285921.01949  20456910.4484   20456914.9854
  20021943.021   -29811441.48449 -22773513.97549  20021943.1804   20021947.5964
 96  7 12 19 56 29.9980000  0  5 17 24  5 16  6
  22108388.248   -17685592.02549 -13499381.02349  22108388.6264   22108395.0494
  23376313.185    13193723.84249  10290672.44749  23376313.3484   23376319.3884
  22707811.288     7017412.71149   5481104.41249  22707811.4674   22707818.3754
  20457686.898   -23478742.37749 -18282742.78649  20457686.4154   20457691.2464
  20012847.748   -29859237.29749 -22810757.45949  20012847.7404   20012852.3534
 96  7 12 19 56 59.9980000  0  5 17 24  5 16  6
  22091600.593   -17773814.03449 -13568125.40149  22091600.4394   22091606.8104
  23390173.340    13266559.20049  10347427.22749  23390173.6414   23390178.7184
  22726045.498     7113234.26549   5555770.47749  22726045.8584   22726052.8114
  20458571.251   -23474093.66849 -18279120.40649  20458570.9644   20458575.8304
  20003805.619   -29906753.16049 -22847782.80149  20003805.7934   20003809.9524
 96  7 12 19 57 29.9980000  0  5 17 24  5 16  6
  22074857.652   -17861798.28249 -13636684.49749  22074857.9424   22074863.8444
  23404029.813    13339375.78049  10404167.36749  23404030.3004   23404036.3754
  22744310.344     7209218.26249   5630563.11849  22744309.8584   22744317.4004
  20459565.275   -23468870.84149 -18275050.66249  20459564.9354   20459569.7024
  19994818.063   -29953983.52349 -22884585.67649  19994818.2594   19994822.8364
 96  7 12 19 57 59.9980000  0  5 17 24  5 16  6
  22058161.327   -17949536.74249 -13705052.07149  22058161.2824   22058167.8894
  23417883.862    13412175.55449  10460894.41749  23417883.9784   23417889.2154
  22762606.243     7305356.74549   5705476.13249  22762604.3804   22762611.4314
  20460666.292   -23463084.40149 -18270541.74149  20460665.9854   20460670.7584
  19985882.567   -30000939.19349 -22921174.49749  19985882.8974   19985887.0324
 96  7 12 19 58 29.9980000  0  5 17 24  5 16  6
  22041512.570   -18037023.64349 -13773223.62549  22041513.2794   22041519.4554
  23431735.212    13484970.53249  10517617.72949  23431736.0484   23431742.2414
  22780928.598     7401642.60149   5780504.00149  22780928.3884   22780934.4554
  20461874.728   -23456734.71449 -18265593.92249  20461874.1924   20461879.3654
  19976999.651   -30047621.04049 -22957549.95149  19976999.4064   19977004.1624
 96  7 12 19 58 59.9980000  0  5 17 24  5 16  6
  22024897.823   -18124337.35549 -13841260.22749  22024897.8044   22024904.8944
  23445578.788    13557718.44249  10574304.35949  23445579.2524   23445585.7244
  22799262.739     7497989.19849   5855579.18549  22799262.2334   22799268.6144
  20463181.405   -23449867.36249 -18260242.72949  20463180.9874   20463186.0544
  19968156.134   -30094094.02149 -22993762.65349  19968156.0524   19968160.3384
 96  7 12 19 59 29.9980000  0  5 17 24  5 16  6
  22008323.477   -18211437.95949 -13909130.77949  22008322.9474   22008329.4624
  23459426.328    13630488.81549  10631008.50749  23459428.1174   23459433.3354
  22817620.136     7594460.24649   5930751.34849  22817619.8004   22817625.8594
  20464598.862   -23442420.49349 -18254439.96649  20464598.2444   20464603.2804
  19959368.292   -30140273.24949 -23029746.45749  19959368.5014   19959372.6934
 96  7 12 19 59 59.9980000  0  5 17 24  5 16  6
  21991783.182   -18298354.09849 -13976857.58449  21991783.2724   21991789.7384
  23473277.034    13703266.82749  10687718.59849  23473277.0274   23473282.3974
  22835999.785     7691045.38749   6006012.41149  22836000.3434   22836005.2514
  20466121.851   -23434416.44449 -18248203.03849  20466121.1664   20466126.2854
  19950636.245   -30186159.85249 -23065502.24349  19950636.4514   19950640.4504
 96  7 12 20  0 29.9980000  0  5 17 24  5 16  6
  21975275.822   -18385102.88049 -14044453.98449  21975276.2814   21975281.6154
  23487126.990    13776051.62049  10744433.97049  23487126.4114   23487133.1974
  22854399.312     7787739.99949   6081358.78649  22854399.2874   22854405.1564
  20467750.328   -23425857.39349 -18241533.64949  20467749.9884   20467755.1584
  19941962.809   -30231738.55749 -23101018.10649  19941963.2474   19941967.4944
 96  7 12 20  0 59.9980000  0  5 17 24  5 16  6
  21958801.702   -18471669.71949 -14111908.61449  21958802.6584   21958808.6404
  23500981.845    13848860.31149  10801167.96749  23500982.8054   23500987.8844
  22872825.680     7884567.66949   6156808.85949  22872824.5544   22872832.0574
  20469489.698   -23416716.36449 -18234410.76649  20469489.5704   20469494.5824
  19933357.779   -30276960.04749 -23136255.62049  19933357.8564   19933362.0054
 96  7 12 20  1 29.9980000  0  5 17 24  5 16  6
  21942362.841   -18558060.25049 -14179225.86049  21942363.0914   21942369.0414
  23514834.625    13921654.97949  10857891.03649  23514834.0124   23514840.3524
  22891275.639     7981521.41349   6232357.15549  22891275.6074   22891281.6844
  20471337.591   -23407006.61749 -18226844.72949  20471337.2624   20471342.1244
  19924818.375   -30321836.13249 -23171223.99049  19924818.3434   19924822.3464
 96  7 12 20  1 59.9980000  0  5 17 24  5 16  6
  21925960.592   -18644253.14849 -14246389.11149  21925960.8664   21925966.9404
  23528683.052    13994428.60449  10914597.72249  23528683.0554   23528688.9704
  22909747.251     8078589.79649   6307994.76849  22909746.2104   22909753.9214
  20473296.144   -23396713.87649 -18218824.41149  20473295.6514   20473301.0894
  19916341.812   -30366378.24049 -23205932.11749  19916342.2514   19916346.2744
 96  7 12 20  2 29.9980000  0  5 17 24  5 16  6
  21909599.483   -18730230.43949 -14313384.35449  21909600.0264   21909605.6294
  23542526.834    14067179.60049  10971286.74949  23542527.7264   23542532.6254
  22928237.798     8175761.88049   6383713.20549  22928237.0224   22928244.3034
  20475366.638   -23385834.98849 -18210347.35649  20475366.2674   20475371.3224
  19907926.404   -30410600.80449 -23240391.24949  19907926.7634   19907930.9824
 96  7 12 20  2 59.9980000  0  5 17 24  5 16  6
  21893283.752   -18815970.40649 -14380194.66949  21893284.1624   21893290.0144
  23556368.739    14139919.76249  11027967.37449  23556369.1784   23556374.9914
  22946750.863     8273047.06949   6459519.75849  22946751.0574   22946756.7864
  20477549.448   -23374364.40549 -18201409.24049  20477548.9394   20477553.7524
  19899570.897   -30454509.20949 -23274605.58049  19899571.1794   19899575.3194
 96  7 12 20  3 29.9980000  0  5 17 24  5 16  6
  21877013.992   -18901469.65049 -14446817.40549  21877014.4064   21877020.3054
  23570206.726    14212639.07049  11084631.69749  23570207.0664   23570212.4374
  22965282.647     8370432.34049   6535404.28149  22965282.6234   22965289.4504
  20479840.411   -23362323.34649 -18192026.59849  20479840.0574   20479845.0344
  19891269.909   -30498131.22249 -23308596.74249  19891270.4244   19891274.3894
 96  7 12 20  3 59.9980000  0  5 17 24  5 16  6
  21860787.677   -18986737.32549 -14513259.70449  21860788.1164   21860793.9264
  23584041.122    14285340.58249  11141282.17349  23584041.4464   23584047.9514
  22983834.118     8467921.94449   6611370.13049  22983833.1924   22983840.0504
  20482236.605   -23349733.05649 -18182215.98449  20482235.9754   20482241.0064
  19883021.822   -30541477.52249 -23342373.07449  19883021.9464   19883025.9264
 96  7 12 20  4 29.9980000  0  5 17 24  5 16  6
  21844606.080   -19071774.00749 -14579522.01649  21844606.4974   21844612.1394
  23597876.469    14358045.72149  11197935.47149  23597877.1844   23597882.8474
  23002411.063     8565542.55049   6687438.03749  23002409.8644   23002417.7624
  20484738.400   -23336586.28749 -18171971.75449  20484737.7864   20484742.6644
  19874829.447   -30584527.14749 -23375918.22549  19874829.8444   19874833.7024
 96  7 12 20  4 59.9980000  0  5 17 24  5 16  6
  21828466.623   -19156588.07749 -14645610.85749  21828466.3614   21828472.7954
  23611714.258    14430762.76849  11254598.05449  23611715.2364   23611721.2144
  23021012.606     8663297.98149   6763610.99349  23021012.7784   23021019.7444
  20487348.208   -23322870.67549 -18161284.26749  20487347.9464   20487352.8324
  19866698.067   -30627255.92449 -23409213.35949  19866698.4354   19866702.9044
 96  7 12 20  5 29.9980000  0  5 17 24  5 16  6
  21812366.156   -19241195.84749 -14711538.94349  21812366.1674   21812372.3794
  23625549.974    14503472.13549  11311254.63849  23625550.1914   23625556.0814
  23039638.574     8761174.30649   6839878.17249  23039637.7234   23039644.3504
  20490066.415   -23308585.71749 -18150153.13949  20490066.2344   20490071.0924
  19858628.601   -30669662.62649 -23442257.53649  19858628.7544   19858632.5654
 96  7 12 20  5 59.9980000  0  5 17 24  5 16  6
  21796301.822   -19325613.81549 -14777319.13549  21796302.1214   21796308.0714
  23639385.552    14576175.85949  11367906.84949  23639385.2454   23639392.8954
  23058285.357     8859164.34849   6916233.95049  23058284.9894   23058291.9854
  20492893.773   -23293728.53249 -18138576.11749  20492893.5254   20492898.4374
  19850620.159   -30711748.55949 -23475051.75549  19850620.1154   19850623.9724
 96  7 12 20  6 29.9980000  0  6 17 24 23  5 16  6
  21780274.809   -19409839.18949 -14842949.25249  21780274.6414   21780280.6804
  23653218.635    14648866.98949  11424549.23949  23653218.8144   23653225.0434
  24153245.978    -4074873.85459  -2589518.40059  24153244.3994   24153252.2064
  23076948.880     8957239.49449   6992656.03749  23076948.4724   23076955.4644
  20495828.760   -23278304.24349 -18126557.20049  20495828.4134   20495833.3544
  19842672.973   -30753509.71249 -23507592.90749  19842673.1684   19842677.2044
 96  7 12 20  6 59.9980000  0  6 17 24 23  5 16  6
  21764285.787   -19493860.72949 -14908420.52549  21764286.0594   21764291.7954
  23667048.205    14721544.14749  11481180.75349  23667049.6594   23667055.7314
  24130491.822    -4194437.50549  -2682684.76349  24130491.8434   24130499.3644
  23095627.336     9055391.83449   7069138.28749  23095626.7754   23095633.0264
  20498871.363   -23262316.17249 -18114098.96449  20498870.8424   20498875.9344
  19834787.633   -30794947.97149 -23539882.44949  19834787.6554   19834792.0124
 96  7 12 20  7 29.9980000  0  6 17 24 23  5 16  6
  21748337.999   -19577664.25149 -14973721.93049  21748338.4484   21748344.1924
  23680876.607    14794211.65749  11537804.73649  23680876.9574   23680882.3334
  24107750.375    -4313950.01049  -2775811.26249  24107748.5004   24107758.2824
  23114323.457     9153641.05449   7145696.03249  23114323.2224   23114329.5324
  20502021.653   -23245759.72949 -18101197.83949  20502021.6004   20502026.4534
  19826962.252   -30836070.49949 -23571925.96749  19826962.2134   19826966.4504
 96  7 12 20  7 59.9980000  0  6 17 24 23  5 16  6
  21732450.942   -19661151.76349 -15038777.08249  21732451.3554   21732456.5884
  23694719.485    14866955.34149  11594488.07149  23694719.8314   23694726.1314
  24085029.177    -4433355.09349  -2868854.05849  24085028.1844   24085035.6674
  23133053.010     9252060.94849   7222386.77049  23133051.7494   23133058.2234
  20505293.082   -23228569.53249 -18087802.88649  20505292.5794   20505297.5744
  19819210.303   -30876806.62349 -23603668.39149  19819210.7804   19819214.7184
 96  7 12 20  8 29.9980000  0  6 17 24 23  5 16  6
  21716610.964   -19744391.74149 -15103639.35649  21716611.1044   21716617.0214
  23708561.010    14939692.88949  11651166.63549  23708560.3574   23708567.2084
  24062310.163    -4552740.19249  -2961881.31149  24062309.2914   24062316.9234
  23151798.184     9350568.70449   7299145.97549  23151798.4834   23151804.0314
  20508669.876   -23210824.89049 -18073975.89449  20508669.3354   20508674.4024
  19811518.681   -30917226.63849 -23635164.49749  19811518.6404   19811522.8604
 96  7 12 20  8 59.9980000  0  6 17 24 23  5 16  6
  21700815.270   -19827397.86649 -15168319.40649  21700815.8124   21700821.6244
  23722399.377    15012416.14349  11707834.06549  23722400.6594   23722406.7134
  24039593.497    -4672115.94249  -3054901.26049  24039592.8784   24039599.9814
  23170559.167     9449157.66249   7375968.44049  23170558.4804   23170564.7714
  20512150.172   -23192536.40749 -18059725.13849  20512149.6974   20512154.6224
  19803888.139   -30957327.08149 -23666411.59049  19803888.0924   19803892.3384
 96  7 12 20  9 29.9980000  0  6 17 24 23  5 16  6
  21685062.560   -19910179.57849 -15232824.58749  21685062.4984   21685068.6084
  23736233.454    15085111.02849  11764479.36849  23736233.5994   23736239.8444
  24016879.462    -4791476.64949  -3147909.51149  24016879.4804   24016886.8244
  23189331.529     9547810.85749   7452840.96049  23189331.5364   23189339.0474
  20515731.962   -23173713.21049 -18045057.71849  20515731.5894   20515736.5914
  19796319.352   -30997101.46849 -23697404.60949  19796319.3454   19796323.6134
 96  7 12 20  9 59.9980000  0  6 17 24 23  5 16  6
  21669353.487   -19992732.29949 -15297151.34049  21669353.3994   21669359.6004
  23750062.774    15157785.45449  11821108.76049  23750063.6424   23750069.1614
  23994172.236    -4910806.50049  -3240893.71249  23994170.9644   23994178.6874
  23208114.979     9646511.96949   7529750.82149  23208113.6174   23208119.7664
  20519415.431   -23154357.40249 -18029975.27149  20519415.0104   20519419.7234
  19788816.638   -31036527.53649 -23728126.21449  19788816.7324   19788821.1654
 96  7 12 20 10 29.9980000  0  6 17 24 23  5 16  6
  21653687.854   -20075054.23049 -15361298.24449  21653687.4804   21653693.7614
  23763893.117    15230463.39349  11877740.88549  23763893.4374   23763898.7054
  23971478.726    -5030056.80249  -3333815.93449  23971478.6154   23971486.1904
  23226911.156     9745287.40049   7606718.61049  23226910.9784   23226917.6794
  20523204.305   -23134447.08049 -18014460.73649  20523203.9304   20523208.6424
  19781389.495   -31075557.40049 -23758539.08649  19781389.6644   19781393.7764
 96  7 12 20 10 59.9980000  0  6 17 24 23  5 16  6
  21638065.623   -20157148.44549 -15425267.71249  21638066.0184   21638071.9724
  23777723.352    15303142.60449  11934373.98949  23777723.6984   23777729.7094
  23948804.774    -5149210.97049  -3426663.25049  23948803.8164   23948811.6824
  23245721.511     9844140.78949   7683747.13049  23245720.9334   23245728.6754
  20527098.385   -23113979.88349 -17998512.27349  20527098.2454   20527103.2814
  19774036.197   -31114200.39049 -23788650.50049  19774036.0174   19774040.3674
 96  7 12 20 11 29.9980000  0  6 17 24 23  5 16  6
  21622486.060   -20239018.29949 -15489062.35449  21622486.5204   21622492.5254
  23791555.537    15375829.85949  11991013.38049  23791555.6414   23791562.7684
  23926149.911    -5268264.81149  -3519432.38449  23926149.6964   23926156.3524
  23264549.942     9943083.75149   7760845.45749  23264550.0354   23264555.9064
  20531101.636   -23092944.44549 -17982121.02549  20531101.7334   20531106.7184
  19766752.215   -31152476.25949 -23818475.84549  19766752.7544   19766756.9694
 96  7 12 20 11 59.9980000  0  6 17 24 23  5 16  6
  21606954.401   -20320638.70349 -15552662.61649  21606954.5074   21606960.1544
  23805395.323    15448561.49149  12047687.31249  23805395.9134   23805402.0024
  23903515.223    -5387208.17149  -3612115.42849  23903514.6904   23903522.3714
  23283402.236    10042155.26649   7838043.95649  23283401.6034   23283408.7644
  20535218.602   -23071310.86049 -17965263.68549  20535218.2574   20535223.1474
  19759541.172   -31190371.82849 -23848004.85049  19759540.9694   19759545.1934
 96  7 12 20 12 29.9970000  0  6 17 24 23  5 16  6
  21591465.438   -20402034.41549 -15616087.80249  21591465.4224   21591471.5094
  23819236.708    15521297.05949  12104364.33349  23819237.9774   23819242.4824
  23880898.726    -5506062.01249  -3704728.71449  23880897.9014   23880905.3684
  23302277.659    10141343.51549   7915333.39949  23302277.7974   23302283.6274
  20539446.645   -23049091.54349 -17947949.93149  20539446.2134   20539451.1804
  19752395.758   -31227921.16649 -23877264.06149  19752395.7434   19752399.8194
 96  7 12 20 12 59.9970000  0  6 17 24 23  5 16  6
  21576017.106   -20483214.96949 -15679345.32649  21576017.2074   21576023.4574
  23833076.409    15594026.56849  12161036.63549  23833076.9554   23833083.2784
  23858293.306    -5624854.31149  -3797294.03249  23858292.4974   23858299.6354
  23321171.273    10240632.80149   7992701.57749  23321171.0174   23321178.1524
  20543785.496   -23026290.99949 -17930183.27249  20543785.0334   20543789.8994
  19745308.714   -31265163.02449 -23906283.67749  19745308.7654   19745313.1684
 96  7 12 20 13 29.9970000  0  6 17 24 23  5 16  6
  21560611.663   -20564170.49149 -15742427.50349  21560611.9224   21560618.2474
  23846913.293    15666737.54849  12217694.50749  23846914.1334   23846919.7784
  23835698.380    -5743592.34949  -3889817.08649  23835696.6484   23835704.7094
  23340083.516    10340012.72849   8070140.37449  23340083.4754   23340089.0264
  20548231.549   -23002927.12649 -17911977.65449  20548231.1404   20548235.8054
  19738283.112   -31302082.44249 -23935052.04949  19738283.2804   19738287.3284
 96  7 12 20 13 59.9970000  0  6 17 24 23  5 16  6
  21545254.190   -20644874.12849 -15805313.40449  21545254.5504   21545260.5324
  23860744.930    15739426.61449  12274335.28949  23860746.6954   23860753.0614
  23813115.749    -5862257.15549  -3982283.04749  23813115.4144   23813123.3114
  23359009.803    10439475.75449   8147643.91949  23359010.3584   23359017.0324
  20552784.703   -22978998.95349 -17893332.32149  20552784.2974   20552788.9724
  19731323.437   -31338656.73449 -23963551.49749  19731323.5094   19731327.5174
 96  7 12 20 14 29.9970000  0  7 17 24 26 23  5 16  6
  21529942.173   -20725340.67849 -15868014.56449  21529942.3704   21529948.0324
  23874568.039    15812063.70749  12330935.56849  23874567.6744   23874574.4394
  23845350.850    -4198749.68559  -3018423.69559  23845349.7674   23845357.3664
  23790548.064    -5980851.69349  -4074694.26349  23790546.7974   23790555.1204
  23377946.909    10538987.02449   8225185.05949  23377947.6484   23377954.5574
  20557438.695   -22954542.44549 -17874275.29449  20557438.1674   20557442.8304
  19724427.648   -31374894.21449 -23991788.48649  19724427.6004   19724431.7284
 96  7 12 20 14 59.9970000  0  7 17 24 26 23  5 16  6
  21514676.322   -20805564.24749 -15930526.38649  21514676.1664   21514682.2114
  23888382.594    15884656.54649  12387501.38149  23888381.8304   23888388.0764
  23826744.815    -4296522.01949  -3094609.72349  23826745.3834   23826752.7904
  23767993.216    -6099377.66449  -4167052.04649  23767992.3394   23768001.3354
  23396889.747    10638530.59649   8302751.37349  23396889.0584   23396897.3284
  20562188.121   -22929583.01649 -17854826.38449  20562187.6864   20562192.5104
  19717598.467   -31410783.88549 -24019754.45149  19717598.3454   19717601.9494
 96  7 12 20 15 29.9970000  0  7 17 24 26 23  5 16  6
  21499460.176   -20885524.15949 -15992832.76449  21499460.4634   21499465.9804
  23902191.787    15957225.85749  12444048.86149  23902191.3024   23902197.9964
  23808148.632    -4394244.65849  -3170757.03649  23808148.4664   23808156.5204
  23745455.955    -6217812.88249  -4259339.09049  23745455.9964   23745462.7254
  23415842.974    10738131.11849   8380362.06949  23415843.4974   23415850.9224
  20567036.983   -22904102.53849 -17834971.46449  20567036.6814   20567041.3504
  19710841.747   -31446288.21249 -24047420.15349  19710842.0824   19710845.8604
 96  7 12 20 15 59.9970000  0  7 17 24 26 23  5 16  6
  21484288.901   -20965249.12849 -16054956.07249  21484289.1094   21484294.7504
  23915997.641    16029775.61649  12500581.10549  23915998.0994   23916004.6974
  23789561.637    -4491917.33849  -3246865.42549  23789561.8134   23789569.3434
  23722932.935    -6336168.99849  -4351564.48249  23722932.4884   23722940.0024
  23434803.856    10837771.42749   8458003.75349  23434803.3934   23434811.0604
  20571984.802   -22878101.48149 -17814710.89649  20571984.5374   20571989.0314
  19704155.220   -31481427.49949 -24074801.40749  19704155.0574   19704159.1184
 96  7 12 20 16 29.9970000  0  7 17 24 26 23  5 16  6
  21469161.887   -21044743.29649 -16116899.53449  21469161.9614   21469167.5584
  23929803.521    16102323.85449  12557112.14849  23929801.8164   23929809.6734
  23770982.071    -4589547.95849  -3322941.05349  23770983.6004   23770991.3034
  23700426.615    -6454438.82149  -4443722.61749  23700426.7214   23700434.5834
  23453772.290    10937453.70649   8535678.14649  23453773.0884   23453780.0644
  20577033.179   -22851572.42149 -17794038.89649  20577032.6864   20577037.3864
  19697539.438   -31516193.03449 -24101891.42749  19697539.6024   19697542.9814
 96  7 12 20 16 59.9970000  0  7 17 24 26 23  5 16  6
  21454076.138   -21124017.97949 -16178671.96749  21454076.2394   21454082.0414
  23943609.094    16174875.37749  12613645.75549  23943609.2634   23943615.9614
  23752409.246    -4687154.22649  -3398997.70449  23752409.8334   23752416.8174
  23677935.957    -6572626.44849  -4535816.73949  23677936.1394   23677943.2904
  23472747.304    11037166.13149   8613376.01649  23472747.4684   23472754.9144
  20582184.449   -22824502.51449 -17772945.45649  20582184.1924   20582188.7784
  19690991.431   -31550604.13249 -24128705.26149  19690991.4394   19690995.1954
 96  7 12 20 17 29.9970000  0  7 17 24 26 23  5 16  6
  21439033.932   -21203065.20949 -16240267.16349  21439034.2034   21439040.0504
  23957417.303    16247434.99649  12670185.67449  23957417.9244   23957423.5514
  23733842.263    -4784721.68849  -3475024.12649  23733842.6744   23733850.1414
  23655465.057    -6690717.55049  -4627835.63249  23655464.8124   23655471.1274
  23491728.954    11136912.92849   8691100.67949  23491728.5824   23491735.3154
  20587443.388   -22796867.52449 -17751411.69149  20587442.9494   20587447.4704
  19684510.694   -31584658.72149 -24155241.30849  19684510.8364   19684514.8174
 96  7 12 20 17 59.9970000  0  7 17 24 26 23  5 16  6
  21424032.470   -21281897.09749 -16301694.56149  21424033.3064   21424038.2524
  23971222.463    16319987.55849  12726720.10049  23971223.3174   23971230.0834
  23715281.961    -4882258.53749  -3551026.70049  23715282.0054   23715289.6434
  23633012.656    -6808709.21649  -4719777.05449  23633011.4694   23633018.5994
  23510714.043    11236679.28949   8768840.59649  23510713.9484   23510722.0864
  20592806.511   -22768682.22349 -17729449.11649  20592806.5964   20592811.2424
  19678095.641   -31618371.22749 -24181510.79349  19678095.7174   19678099.3804
 96  7 12 20 18 29.9970000  0  7 17 24 26 23  5 16  6
  21409076.859   -21360491.43249 -16362936.85349  21409076.9364   21409082.3494
  23985025.901    16392524.64449  12783242.46349  23985026.2934   23985033.2514
  23696731.231    -4979742.84449  -3626988.34049  23696731.3284   23696739.3284
  23610580.001    -6926584.19649  -4811627.55849  23610581.0474   23610586.7984
  23529704.204    11336472.80649   8846601.66949  23529704.2584   23529710.3204
  20598273.484   -22739952.94549 -17707062.66349  20598273.1084   20598278.2664
  19671745.715   -31651741.87249 -24207513.89449  19671745.2844   19671748.8974
 96  7 12 20 18 59.9970000  0  7 17 24 26 23  5 16  6
  21394165.693   -21438849.34449 -16423994.92249  21394165.9984   21394171.4684
  23998824.120    16465030.03849  12839740.12549  23998824.7404   23998829.8724
  23678195.196    -5077152.36549  -3702891.72049  23678194.6524   23678201.7324
  23588169.529    -7044357.07149  -4903398.49949  23588168.2484   23588175.3474
  23548701.003    11436299.38049   8924388.50549  23548700.6744   23548708.4104
  20603844.116   -22710680.90649 -17684253.28049  20603843.7264   20603848.6764
  19665458.469   -31684778.34049 -24233256.59349  19665458.9634   19665462.5804
 96  7 12 20 19 29.9970000  0  7 17 24 26 23  5 16  6
  21379297.993   -21516979.76349 -16484875.72249  21379298.1444   21379304.3504
  24012610.049    16537480.22049  12896194.77549  24012611.4334   24012616.5214
  23659674.888    -5174469.47249  -3778723.09049  23659675.9384   23659683.4684
  23565773.705    -7162043.48049  -4995102.07149  23565773.5484   23565780.0204
  23567703.175    11536158.70849   9002200.84949  23567703.1994   23567710.3094
  20609512.770   -22680890.44949 -17661039.93749  20609512.5584   20609517.7004
  19659237.303   -31717471.43549 -24258731.72749  19659237.3624   19659240.9854
 96  7 12 20 19 59.9970000  0  7 17 24 26 23  5 16  6
  21364472.192   -21594890.37549 -16545585.24549  21364472.4104   21364478.1164
  24026387.769    16609881.73649  12952611.50049  24026388.9724   24026394.7784
  23641174.469    -5271693.38949  -3854481.84349  23641175.3824   23641181.9964
  23543394.600    -7279650.18249  -5086743.53649  23543393.3194   23543401.5484
  23586711.528    11636049.68249   9080037.86049  23586712.3264   23586719.1884
  20615278.945   -22650589.21749 -17637428.58249  20615278.5564   20615283.1524
  19653081.525   -31749821.71849 -24283939.74049  19653081.4604   19653084.9794
 96  7 12 20 20 29.9970000  0  7 17 24 26 23  5 16  6
  21349689.717   -21672570.58249 -16606115.23849  21349690.0954   21349695.6954
  24040157.524    16682239.51449  13008994.14049  24040157.9144   24040163.7084
  23622689.520    -5368828.26849  -3930171.23749  23622690.4994   23622698.4744
  23521028.982    -7397177.14949  -5178322.86549  23521028.1714   23521035.5034
  23605728.211    11735978.50349   9157904.33549  23605727.9734   23605735.7794
  20621145.312   -22619761.13149 -17613406.69649  20621144.8504   20621149.9474
  19646993.399   -31781811.02149 -24308866.46949  19646993.9224   19646998.1744
 96  7 12 20 20 59.9970000  0  7 17 24 26 23  5 16  6
  21334950.229   -21750027.68849 -16666471.37449  21334950.5974   21334956.2154
  24053921.830    16754577.21249  13065361.15049  24053923.5874   24053929.4164
  23604222.474    -5465876.67449  -4005793.22949  23604223.7674   23604229.6434
  23498681.175    -7514616.23049  -5269833.71849  23498679.7124   23498688.4154
  23624753.067    11835956.47749   9235809.12849  23624751.6324   23624760.6994
  20627115.274   -22588389.88549 -17588961.56949  20627115.0124   20627119.9974
  19640980.271   -31813412.93549 -24333491.33749  19640980.2054   19640984.4674
 96  7 12 20 21 29.9970000  0  7 17 24 26 23  5 16  6
  21320250.392   -21827277.10549 -16726665.68649  21320250.3574   21320256.3124
  24067684.062    16826897.03549  13121714.24149  24067685.0374   24067691.1784
  23585768.220    -5562855.94449  -4081361.36049  23585767.9114   23585775.0304
  23476351.264    -7631956.56949  -5361267.64349  23476351.1664   23476358.4414
  23643785.532    11935970.44649   9313741.97449  23643784.4944   23643793.2734
  20633184.554   -22556494.67849 -17564108.16549  20633184.1464   20633189.3894
  19635038.044   -31844639.59349 -24357823.79749  19635037.9404   19635041.9824
 96  7 12 20 21 59.9970000  0  6 17 26 23  5 16  6
  21305588.827   -21904323.04749 -16786701.43849  21305589.2774   21305594.5794
  23567322.657    -5659787.03349  -4156891.93949  23567322.8984   23567329.1984
  23454042.739    -7749193.62949  -5452621.07749  23454041.2204   23454048.9424
  23662822.621    12036010.29949   9391694.99849  23662821.8534   23662830.0084
  20639352.994   -22524080.99549 -17538850.75049  20639352.6684   20639357.3834
  19629165.224   -31875501.97149 -24381872.40249  19629165.3094   19629169.0544
 96  7 12 20 22 29.9970000  0  6 17 26 23  5 16  6
  21290965.381   -21981170.13749 -16846582.24349  21290965.4554   21290970.9244
  23548886.154    -5756666.20749  -4232382.07849  23548886.8154   23548893.6414
  23431753.556    -7866322.46949  -5543890.19449  23431753.3594   23431760.1954
  23681864.248    12136072.92449   9469665.74149  23681862.6174   23681871.1234
  20645615.694   -22491167.89949 -17513204.17849  20645615.4214   20645620.4184
  19623360.540   -31906003.83149 -24405640.08549  19623361.0144   19623364.9144
 96  7 12 20 22 59.9970000  0  6 17 26 23  5 16  6
  21276381.133   -22057810.09749 -16906301.64649  21276381.4064   21276387.1684
  23530466.359    -5853460.29549  -4307805.90649  23530467.3744   23530474.0554
  23409487.021    -7983331.52449  -5635065.98849  23409485.9094   23409493.1384
  23700909.248    12236160.73649   9547656.11449  23700908.9384   23700915.8184
  20651972.647   -22457762.85649 -17487174.27449  20651972.1704   20651977.0984
  19617625.598   -31936142.02449 -24429124.39049  19617625.8664   19617629.6674
 96  7 12 20 23 29.9970000  0  6 17 26 23  5 16  6
  21261838.538   -22134231.58249 -16965850.80849  21261838.8954   21261844.1564
  23512064.935    -5950168.99049  -4383163.21549  23512064.2544   23512070.7004
  23387243.406    -8100220.00449  -5726147.80649  23387243.3754   23387250.9584
  23719958.180    12336261.41749   9625656.52749  23719959.3854   23719964.6254
  20658420.507   -22423878.51949 -17460770.89149  20658420.2264   20658425.1724
  19611961.098   -31965908.22449 -24452318.82249  19611961.4364   19611965.8334
 96  7 12 20 23 59.9970000  0  6 17 26 23  5 16  6
  21247338.345   -22210428.98649 -17025225.36649  21247338.9134   21247344.4074
  23493676.560    -6046795.26449  -4458456.29349  23493677.4894   23493683.1114
  23365023.003    -8216989.47649  -5817136.91649  23365022.7004   23365028.7024
  23739006.224    12436360.30949   9703655.52349  23739005.1264   23739013.6504
  20664960.355   -22389510.87849 -17433990.91149  20664960.3184   20664965.0054
  19606371.694   -31995281.47849 -24475207.06249  19606371.8984   19606375.8844
 96  7 12 20 24 29.9970000  0  6 17 26 23  5 16  6
  21232884.487   -22286385.52749 -17084412.23749  21232884.4154   21232890.3304
  23475308.644    -6143322.51249  -4533672.20449  23475309.0104   23475314.5314
  23342824.898    -8333638.47549  -5908032.12549  23342825.3844   23342832.3594
  23758052.646    12536449.86349   9781647.24649  23758052.9414   23758058.7944
  20671594.309   -22354651.80249 -17406827.99549  20671593.8504   20671598.5244
  19600856.701   -32024262.65749 -24497789.79749  19600857.1184   19600860.8024
 96  7 12 20 24 59.9970000  0  7 17 26 23 22  5 16  6
  21218478.351   -22362089.91849 -17143402.62349  21218478.5364   21218484.0914
  23456956.897    -6239758.77249  -4608817.22449  23456956.5664   23456963.7614
  23320650.440    -8450169.10949  -5998835.10549  23320649.9694   23320656.7004
  23909047.969    -5385627.45759  -4173274.67859  23909048.2334   23909054.0694
  23777097.172    12636521.84249   9859625.28649  23777097.0644   23777103.9584
  20678323.414   -22319288.88549 -17379272.47449  20678323.0664   20678327.6414
  19595415.400   -32052859.22949 -24520072.84549  19595415.2264   19595418.9074
 96  7 12 20 25 29.9970000  0  7 17 26 23 22  5 16  6
  21204123.409   -22437523.96249 -17202182.35649  21204123.9774   21204129.1244
  23438623.786    -6336096.10249  -4683885.16649  23438625.1204   23438630.4544
  23298501.717    -8566562.36249  -6089531.05649  23298501.2694   23298507.8304
  23891371.606    -5478515.76449  -4245655.12949  23891370.7764   23891377.9514
  23796139.194    12736595.07049   9937604.29449  23796140.9824   23796147.8884
  20685153.098   -22283399.65949 -17351306.84349  20685152.5154   20685157.3154
  19590049.020   -32081058.31249 -24542046.15349  19590049.3034   19590053.0154
 96  7 12 20 25 59.9970000  0  7 17 26 23 22  5 16  6
  21189818.318   -22512697.90949 -17260759.41549  21189818.6474   21189824.3244
  23420310.574    -6432335.51349  -4758876.79349  23420311.4074   23420317.6424
  23276375.984    -8682832.76849  -6180131.28649  23276375.3944   23276383.1644
  23873753.286    -5571106.65349  -4317803.83249  23873751.4574   23873758.0324
  23815179.308    12836650.93549  10015569.76049  23815179.7644   23815187.3574
  20692080.023   -22246997.54949 -17322941.56049  20692079.9094   20692084.1764
  19584750.842   -32108899.65949 -24563740.69149  19584751.1284   19584754.6434
 96  7 12 20 26 29.9970000  0  7 17 26 23 22  5 16  6
  21175564.589   -22587602.79049 -17319126.81549  21175564.8474   21175570.3624
  23402020.701    -6528449.41949  -4833770.62449  23402020.7544   23402027.3244
  23254273.970    -8798977.81949  -6270633.82949  23254273.3804   23254280.8754
  23856195.150    -5663369.24049  -4389696.70749  23856193.5344   23856200.5764
  23834219.957    12936705.46849  10093534.19849  23834220.3244   23834226.8634
  20699103.691   -22210088.74449 -17294181.45349  20699103.0624   20699107.6924
  19579518.531   -32136394.38349 -24585165.13749  19579518.8534   19579522.8654
 96  7 12 20 26 59.9970000  0  7 17 26 23 22  5 16  6
  21161354.701   -22662274.79849 -17377312.75149  21161355.2234   21161360.6634
  23383752.545    -6624448.58649  -4908575.04149  23383753.0744   23383758.1094
  23232194.236    -8915009.14749  -6361047.77449  23232193.9764   23232201.1194
  23838701.150    -5755301.29149  -4461332.03649  23838700.9074   23838706.8074
  23853258.449    13036749.14749  10171490.16849  23853257.1844   23853264.6754
  20706220.648   -22172688.65049 -17265038.52149  20706220.0124   20706224.7504
  19574352.762   -32163541.29949 -24606318.56249  19574352.8724   19574357.0154
 96  7 12 20 27 29.9970000  0  7 17 26 23 22  5 16  6
  21147188.421   -22736718.99549 -17435321.17849  21147189.1604   21147194.7034
  23365507.967    -6720325.92149  -4983284.52549  23365508.1344   23365513.0474
  23210137.002    -9030919.39249  -6451367.37549  23210137.4434   23210144.6074
  23821272.307    -5846895.43149  -4532704.04649  23821271.8014   23821275.7544
  23872292.787    13136774.87849  10249432.15749  23872291.7044   23872299.7954
  20713429.158   -22134807.95549 -17235521.09749  20713428.7764   20713433.4384
  19569256.979   -32190318.86949 -24627184.19449  19569257.3814   19569261.5304
 96  7 12 20 27 59.9970000  0  7 17 26 23 22  5 16  6
  21133064.351   -22810942.18149 -17493157.38549  21133064.6434   21133070.3844
  23347284.822    -6816089.97749  -5057905.72449  23347284.9044   23347290.4774
  23188102.519    -9146710.96449  -6541594.49149  23188101.7684   23188109.5654
  23803903.664    -5938163.97349  -4603822.35849  23803901.5204   23803908.1014
  23891318.016    13236760.97749  10327343.25349  23891318.8514   23891325.9224
  20720726.227   -22096462.28549 -17205641.35049  20720725.8194   20720730.3754
  19564233.037   -32216721.23749 -24647757.45949  19564233.0264   19564237.2634
 96  7 12 20 28 29.9970000  0  7 17 26 23 22  5 16  6
  21118979.801   -22884954.96249 -17550829.65249  21118980.0884   21118985.9334
  23329080.474    -6911750.09049  -5132445.93249  23329080.2504   23329086.4654
  23166089.927    -9262389.21949  -6631733.30149  23166088.6324   23166096.6664
  23786595.072    -6029116.16949  -4674694.15449  23786593.2584   23786600.5634
  23910338.271    13336707.44049  10405223.45549  23910337.9314   23910345.9374
  20728111.623   -22057650.50149 -17175398.40049  20728111.1904   20728115.9494
  19559284.457   -32242727.75249 -24668022.27349  19559284.4414   19559288.3584
 96  7 12 20 28 59.9970000  0  7 17 26 23 22  5 16  6
  21104938.148   -22958744.01849 -17608327.57449  21104938.7794   21104944.6224
  23310894.369    -7007316.59649  -5206913.19249  23310895.3924   23310900.8784
  23144101.278    -9377938.85249  -6721771.88149  23144100.8034   23144107.2754
  23769348.312    -6119753.00249  -4745320.19749  23769348.6084   23769353.4894
  23929350.602    13436618.33749  10483075.94649  23929349.9764   23929359.1294
  20735587.548   -22018363.44449 -17144785.10449  20735587.2964   20735592.1094
  19554415.684   -32268313.51249 -24687959.21649  19554415.4554   19554419.6454
 96  7 12 20 29 29.9970000  0  7 17 26 23 22  5 16  6
  21090945.790   -23032275.68449 -17665624.93849  21090946.0294   21090951.8494
  23292728.933    -7102777.27649  -5281297.99049  23292729.5464   23292735.0254
  23122143.500    -9493330.44649  -6811687.32049  23122142.7554   23122149.2144
  23752167.036    -6210041.02749  -4815674.46349  23752165.5094   23752173.6304
  23948360.137    13536511.79449  10560914.82449  23948359.7064   23948368.3264
  20743155.829   -21978592.15249 -17113794.48449  20743155.5844   20743160.2974
  19549629.949   -32293459.26049 -24707553.29149  19549630.6694   19549634.2914
 96  7 12 20 29 59.9970000  0  7 17 26 23 22  5 16  6
  21076996.766   -23105578.85349 -17722744.25449  21076996.8714   21077002.6414
  23274581.649    -7198139.75449  -5355606.25849  23274582.1914   23274588.6044
  23100211.006    -9608584.63749  -6901495.68349  23100210.3254   23100217.9964
  23735050.358    -6299984.77349  -4885760.44949  23735051.1284   23735055.2354
  23967365.074    13636384.73949  10638737.72749  23967364.7664   23967372.6924
  20750813.960   -21938347.81049 -17082435.25549  20750813.7614   20750818.3344
  19544922.318   -32318199.26749 -24726831.21249  19544922.5224   19544926.5424
 96  7 12 20 30 29.9970000  0  6 17 26 23 22 16  6
  21063088.247   -23178669.96249 -17779698.32949  21063088.1944   21063093.9374
  23256455.069    -7293395.20949  -5429831.14549  23256456.2094   23256461.6074
  23078306.005    -9723696.95249  -6991193.50149  23078305.3424   23078311.6614
  23718003.933    -6389570.08749  -4955567.14349  23718002.8934   23718008.8264
  20758564.049   -21897622.38249 -17050701.15549  20758563.5404   20758568.0294
  19540289.326   -32342548.00549 -24745804.24549  19540289.1274   19540293.0864
 96  7 12 20 30 59.9970000  0  6 17 26 23 22 16  6
  21049219.808   -23251549.11649 -17836487.24049  21049219.7824   21049225.6264
  23238351.493    -7388532.96749  -5503964.31249  23238350.9414   23238358.6424
  23056429.723    -9838655.80049  -7080771.74149  23056429.3934   23056437.2474
  23701024.477    -6478791.87849  -5025090.55249  23701022.3984   23701031.5634
  20766405.696   -21856413.10249 -17018590.03049  20766405.5244   20766409.7434
  19535728.381   -32366515.29449 -24764480.03649  19535728.4594   19535732.4684
 96  7 12 20 31 29.9970000  0  6 17 26 23 22 16  6
  21035391.892   -23324213.24749 -17893108.60449  21035392.6484   21035397.3004
  23220273.665    -7483525.72949  -5577984.50649  23220273.9564   23220281.4774
  23034584.357    -9953452.54849  -7170223.67249  23034584.2674   23034590.8854
  23684115.833    -6567652.83549  -5094332.81449  23684114.7154   23684119.5464
  20774342.976   -21814703.04949 -16986088.69049  20774342.7874   20774347.0464
  19531239.273   -32390105.40049 -24782861.93349  19531239.5304   19531243.4294
 96  7 12 20 31 59.9970000  0  6 17 26 23 22 16  6
  21021605.438   -23396662.14649 -17949562.25249  21021605.6374   21021611.0044
  23202227.760    -7578358.06649  -5651879.69549  23202228.4594   23202234.6854
  23012766.413   -10068099.05649  -7259558.52449  23012767.9214   23012775.1034
  23667271.543    -6656163.52449  -5163302.13949  23667270.8254   23667278.0784
  20782377.630   -21772479.48649 -16953187.21449  20782377.4514   20782382.0704
  19526820.429   -32413325.77549 -24800955.72249  19526820.5194   19526824.7544
 96  7 12 20 32 29.9970000  0  6 17 26 23 22 16  6
  21007862.561   -23468880.22149 -18005836.04049  21007862.8784   21007868.1924
  23184212.154    -7673031.33349  -5725650.93549  23184212.5634   23184218.4034
  22990978.393   -10182600.40749  -7348780.27849  22990977.9684   22990985.9694
  23650494.280    -6744331.86549  -5232004.67949  23650493.2004   23650500.2564
  20790510.161   -21729744.05549 -16919886.88049  20790509.4554   20790514.3554
  19522475.258   -32436160.38849 -24818748.92749  19522475.1754   19522479.4804
 96  7 12 20 32 59.9970000  0  6 17 26 23 22 16  6
  20994166.937   -23540852.54749 -18061918.33449  20994167.1524   20994172.6584
  23166226.144    -7767546.80349  -5799299.22449  23166226.8564   23166233.3624
  22969216.104   -10296964.54049  -7437895.10449  22969215.2504   22969221.9684
  23633779.829    -6832170.74349  -5300450.52549  23633778.9984   23633784.8584
  20798735.963   -21686515.97949 -16886202.66749  20798735.3724   20798740.4604
  19518203.904   -32458603.62749 -24836237.16549  19518204.2904   19518208.8084
 96  7 12 20 33 29.9970000  0  6 17 26 23 22 16  6
  20980522.189   -23612554.50449 -18117789.95949  20980522.8304   20980528.0634
  23148277.430    -7861873.85749  -5872800.69449  23148277.1984   23148283.2304
  22947484.371   -10411164.28549  -7526881.83949  22947483.5354   22947491.1264
  23617135.330    -6919643.37449  -5368610.95449  23617133.1764   23617139.8474
  20807057.896   -21642784.90049 -16852126.51149  20807057.4094   20807062.1964
  19514013.823   -32480625.03849 -24853396.70149  19514014.2014   19514018.2034
 96  7 12 20 33 59.9970000  0  6 17 26 23 22 16  6
  20966928.716   -23683989.16249 -18173453.29349  20966928.8614   20966934.6924
  23130362.619    -7956012.11749  -5946155.07649  23130362.1964   23130369.4104
  22925784.799   -10525196.50249  -7615738.03349  22925784.4034   22925791.4044
  23600560.955    -7006736.02249  -5436475.30549  23600559.4294   23600566.0004
  20815472.411   -21598565.22049 -16817669.62449  20815471.8904   20815477.1384
  19509904.955   -32502217.74949 -24870222.18149  19509905.2044   19509909.4824
 96  7 12 20 34 29.9970000  0  6 17 26 23 22 16  6
  20953385.023   -23755161.08649 -18228911.90749  20953385.4564   20953390.8164
  23112485.207    -8049962.89049  -6019363.37149  23112485.6564   23112490.7014
  22904120.088   -10639045.98849  -7704451.85549  22904119.7104   22904125.4764
  23584059.656    -7093453.18049  -5504047.07149  23584058.1814   23584063.9974
  20823974.529   -21553887.35249 -16782855.70849  20823973.9004   20823978.8274
  19505878.135   -32523379.14049 -24886711.57149  19505878.1394   19505882.3354
 96  7 12 20 34 59.9970000  0  6 17 26 23 22 16  6
  20939890.460   -23826074.96749 -18284169.44849  20939890.6664   20939896.3344
  23094641.793    -8143726.32649  -6092425.69249  23094642.1204   23094647.8674
  22882492.659   -10752699.10649  -7793012.64749  22882491.7274   22882497.8274
  23567630.091    -7179784.47849  -5571318.15649  23567629.9944   23567636.0864
  20832560.332   -21508767.14449 -16747697.11449  20832560.0674   20832565.1454
  19501931.995   -32544115.91749 -24902870.09949  19501932.0844   19501936.1384
 96  7 12 20 35 29.9970000  0  6 17 26 23 22 16  6
  20926442.202   -23896748.40949 -18339239.63549  20926441.9604   20926447.2534
  23076831.135    -8237320.75849  -6165356.32749  23076831.5714   23076837.5834
  22860897.731   -10866182.74249  -7881441.38849  22860897.1144   22860903.5794
  23551274.733    -7265735.45049  -5638292.89349  23551273.1284   23551279.1874
  20841227.357   -21463221.90749 -16712207.32649  20841226.7364   20841232.0914
  19498062.352   -32564449.61849 -24918714.53649  19498062.3064   19498067.1404
 96  7 12 20 35 59.9970000  0  6 17 26 23 22 16  6
  20913042.630   -23967161.65849 -18394107.07649  20913042.8714   20913048.4794
  23059056.092    -8330730.58849  -6238143.13149  23059056.9864   23059062.0174
  22839338.473   -10979474.27149  -7969720.43949  22839337.3324   22839344.3694
  23534995.595    -7351283.73449  -5704953.85549  23534994.2454   23534999.8824
  20849981.173   -21417220.29249 -16676361.92449  20849980.8424   20849986.1404
  19494274.474   -32584357.16349 -24934226.90749  19494274.7064   19494278.1724
 96  7 12 20 36 29.9970000  0  6 17 26 23 22 16  6
  20899690.457   -24037329.73449 -18448783.46849  20899690.4034   20899695.7724
  23041311.895    -8423972.23249  -6310798.87649  23041312.1474   23041318.4054
  22817813.534   -11092588.58649  -8057861.40749  22817813.1934   22817819.2504
  23518790.599    -7436438.88549  -5771308.46549  23518790.1984   23518796.0034
  20858821.916   -21370760.97549 -16640159.86749  20858821.8144   20858826.8624
  19490564.455   -32603853.16149 -24949418.59349  19490564.4134   19490568.2624
 96  7 12 20 36 59.9970000  0  6 17 26 23 22 16  6
  20886384.749   -24107248.19849 -18503265.35549  20886385.1944   20886390.4654
  23023602.119    -8517038.65949  -6383318.09449  23023602.8844   23023608.4574
  22796320.955   -11205530.22049  -8145867.81149  22796320.1384   22796327.9004
  23502664.832    -7521182.15749  -5837342.14349  23502663.8824   23502670.1364
  20867756.925   -21323808.71949 -16603573.70149  20867756.5134   20867761.7594
  19486934.168   -32622931.56449 -24964284.87849  19486934.0664   19486938.0064
 96  7 12 20 37 29.9970000  0  6 17 26 23 22 16  6
  20873123.882   -24176936.62749 -18557567.99949  20873123.8814   20873129.4464
  23005926.152    -8609926.49949  -6455698.15449  23005927.2244   23005933.0264
  22774860.508   -11318306.29149  -8233745.19449  22774860.5584   22774865.8444
  23486613.467    -7605526.74849  -5903065.15849  23486613.9414   23486619.2244
  20876784.547   -21276367.85649 -16566606.80349  20876784.0714   20876789.0454
  19483383.114   -32641591.55249 -24978825.12449  19483383.4914   19483386.8394
 96  7 12 20 37 59.9970000  0  6 17 26 23 22 16  6
  20859904.193   -24246405.12349 -18611699.26449  20859904.5174   20859909.7004
  22988285.024    -8702632.41949  -6527936.46549  22988285.9834   22988291.5944
  22753436.670   -11430894.08349  -8321475.89149  22753436.1914   22753442.6534
  23470637.418    -7689482.87949  -5968485.47149  23470637.2664   23470642.5474
  20885903.799   -21228446.03249 -16529265.12549  20885903.5444   20885908.1454
  19479912.319   -32659830.87449 -24993037.58449  19479912.4214   19479916.0844
 96  7 12 20 38 29.9970000  0  6 17 26 23 22 16  6
  20846733.622   -24315616.73649 -18665630.36149  20846733.9454   20846739.5694
  22970683.520    -8795127.12949  -6600010.19149  22970683.5154   22970690.2824
  22732048.540   -11543282.13049  -8409050.91249  22732048.8624   22732054.7744
  23454739.707    -7773030.35849  -6033587.35949  23454738.4394   23454744.6714
  20895115.920   -21180037.77349 -16491544.41049  20895115.5284   20895120.2134
  19476525.080   -32677630.93249 -25006907.75749  19476525.0534   19476528.8444
 96  7 12 20 38 59.9970000  0  7 17 26 23 22 28 16  6
  20833612.232   -24384570.18649 -18719360.29649  20833612.4944   20833617.6874
  22953123.143    -8887408.67149  -6671917.82149  22953123.3734   22953129.1054
  22710698.285   -11655477.94449  -8496476.16949  22710698.6244   22710704.7084
  23438916.331    -7856182.73549  -6098381.36649  23438915.3584   23438919.6164
  23986872.792    -6150034.75519  -4772092.77619  23986872.869    23986878.022
  20904413.286   -21131178.89949 -16453472.57049  20904412.9254   20904417.8004
  19473221.029   -32694995.15349 -25020438.31949  19473220.6424   19473224.5704
 96  7 12 20 39 29.9970000  0  7 17 26 23 22 28 16  6
  20820541.669   -24453257.46549 -18772882.81749  20820541.7584   20820547.0974
  22935602.369    -8979478.59149  -6743660.55749  22935603.5894   22935608.3434
  22689388.215   -11767468.65449  -8583741.58749  22689387.6924   22689393.9404
  23423165.629    -7938951.30349  -6162876.29749  23423165.0474   23423170.2834
  23965489.051    -6262410.645 9  -4859658.321 9  23965488.750    23965493.554
  20913791.804   -21081894.06949 -16415068.81849  20913791.3084   20913796.1214
  19469999.536   -32711922.29749 -25033628.29949  19469999.8414   19470003.3854
 96  7 12 20 39 59.9970000  0  7 17 26 23 22 28 16  6
  20807524.849   -24521659.49049 -18826183.06849  20807525.2624   20807530.7054
  22918122.639    -9071335.25649  -6815237.11849  22918122.7544   22918129.9154
  22668115.102   -11879256.59949  -8670849.03949  22668114.2224   22668121.1764
  23407489.815    -8021322.61249  -6227061.68949  23407490.0424   23407495.5264
  23944101.457    -6374800.027 9  -4947234.374 9  23944101.068    23944106.537
  20923253.772   -21032170.98949 -16376323.56949  20923253.3234   20923258.2114
  19466859.452   -32728422.58449 -25046485.67049  19466859.8644   19466863.5754
 96  7 12 20 40 29.9970000  0  7 17 26 23 22 28 16  6
  20794561.041   -24589783.73049 -18879266.86749  20794561.5714   20794567.0884
  22900686.039    -9162966.94749  -6886638.37749  22900687.1744   22900692.1114
  22646880.090   -11990848.95849  -8757804.06749  22646879.0234   22646886.5004
  23391892.811    -8103287.29549  -6290930.21849  23391892.6544   23391898.3904
  23922712.049    -6487202.394 9  -5034820.554 9  23922711.594    23922717.321
  20932800.634   -20982002.03149 -16337230.89049  20932800.3044   20932805.2174
  19463802.822   -32744486.58449 -25059003.07149  19463802.9324   19463806.7644
 96  7 12 20 40 59.9970000  0  7 17 26 23 22 28 16  6
  20781649.404   -24657636.48249 -18932139.10849  20781649.7344   20781655.3534
  22883295.108    -9254359.18749  -6957853.05649  22883295.5164   22883301.2464
  22625687.813   -12102213.25849  -8844581.36249  22625686.9094   22625694.0924
  23376376.044    -8184835.73549  -6354474.40049  23376374.5234   23376380.8034
  23901323.661    -6599599.162 9  -5122402.365 9  23901323.332    23901328.920
  20942437.450   -20931360.22549 -16297769.75249  20942437.0084   20942441.9104
  19460833.997   -32760087.06249 -25071159.28449  19460834.0584   19460838.0794
 96  7 12 20 41 29.9970000  0  7 17 26 23 22 28 16  6
  20768782.642   -24725252.11749 -18984826.59349  20768783.2044   20768788.2374
  22865944.419    -9345538.26249  -7028901.62749  22865944.6534   22865949.9234
  22604535.466   -12213366.86649  -8931194.48349  22604535.8954   22604540.9964
  23360935.885    -8265970.86949  -6417696.53749  23360934.8264   23360940.7744
  23879932.894    -6712010.193 9  -5209995.293 9  23879931.636    23879937.463
  20952163.528   -20880249.49249 -16257943.22249  20952163.2154   20952168.0794
  19457948.616   -32775248.80049 -25082973.62249  19457948.9404   19457952.5964
 96  7 12 20 41 59.9970000  0  7 17 26 23 22 28 16  6
  20755954.865   -24792662.74049 -19037354.32549  20755954.7294   20755960.2634
  22848632.105    -9436511.52949  -7099789.83249  22848632.8964   22848638.7314
  22583418.013   -12324341.39649  -9017668.06849  22583417.5074   22583424.1644
  23345574.872    -8346695.17349  -6480598.53749  23345573.1994   23345580.5334
  23858534.920    -6824452.958 9  -5297612.952 9  23858534.515    23858539.961
  20961976.168   -20828683.85649 -16217762.22149  20961975.9444   20961980.5804
  19455143.635   -32789990.80249 -25094460.89349  19455143.7804   19455147.4304
 96  7 12 20 42 29.9970000  0  7 17 26 23 22 28 16  6
  20743166.944   -24859863.93949 -19089718.87249  20743166.8744   20743172.1354
  22831359.525    -9527282.61049  -7170520.48349  22831359.5954   22831365.0244
  22562333.318   -12435142.58349  -9104006.59149  22562332.7864   22562339.3894
  23330286.502    -8427027.12549  -6543194.85049  23330287.7224   23330291.8814
  23837131.915    -6936923.776 9  -5385252.462 9  23837131.782    23837137.214
  20971872.213   -20776680.61549 -16177240.22849  20971871.7824   20971876.6524
  19452418.784   -32804310.52549 -25105619.11749  19452418.7434   19452422.5964
 96  7 12 20 42 59.9970000  0  7 17 26 23 22 28 16  6
  20730422.880   -24926833.90249 -19141903.23649  20730423.2594   20730428.2114
  22814123.249    -9617853.44349  -7241095.09649  22814124.0834   22814130.4524
  22541280.639   -12545774.35149  -9190213.09549  22541280.4864   22541287.2594
  23315074.553    -8506966.44549  -6605485.18149  23315075.8644   23315080.5684
  23815726.794    -7049411.958 9  -5472905.540 9  23815726.359    23815731.227
  20981851.592   -20724238.74549 -16136376.44449  20981850.9174   20981855.6604
  19449771.781   -32818219.35049 -25116457.15849  19449771.8254   19449775.8574
 96  7 12 20 43 29.9970000  0  7 17 26 23 22 28 16  6
  20717727.370   -24993547.32349 -19193887.69849  20717728.1384   20717733.4184
  22796932.182    -9708200.62149  -7311495.41649  22796932.3344   22796938.1734
  22520260.997   -12656231.35349  -9276283.43249  22520261.6484   22520267.5444
  23299942.291    -8586499.74349  -6667459.14549  23299941.0544   23299945.1734
  23794320.453    -7161901.760 9  -5560559.855 9  23794319.836    23794326.028
  20991911.824   -20671372.51749 -16095181.99649  20991911.1934   20991916.0554
  19447202.396   -32831720.68549 -25126977.67649  19447202.7324   19447206.4484
 96  7 12 20 43 59.9970000  0  7 17 26 23 22 28 16  6
  20705080.042   -25060011.48049 -19245677.92549  20705080.0194   20705085.6124
  22779777.992    -9798339.56449  -7381733.46849  22779778.7614   22779784.2054
  22499274.886   -12766516.95349  -9362220.20449  22499274.3404   22499280.7934
  23284875.012    -8665666.53749  -6729147.51949  23284875.4634   23284879.7834
  23772911.036    -7274406.786 9  -5648226.036 9  23772910.722    23772916.674
  21002046.500   -20618113.41149 -16053681.40149  21002046.3324   21002050.8474
  19444709.482   -32844823.04549 -25137187.30249  19444709.1874   19444713.3674
 96  7 12 20 44 29.9970000  0  7 17 26 23 22 28 16  6
  20692482.464   -25126212.54449 -19297263.13949  20692482.5294   20692488.0754
  22762667.423    -9888265.10049  -7451805.24449  22762666.9524   22762671.9104
  22478327.489   -12876598.39349  -9447997.88449  22478326.8514   22478332.4574
  23269882.447    -8744458.26149  -6790543.63449  23269881.9034   23269887.9314
  23751502.469    -7386913.143 9  -5735893.259 9  23751502.002    23751506.635
  21012257.748   -20564452.50249 -16011867.71649  21012257.4894   21012262.4814
  19442295.403   -32857508.26149 -25147071.88349  19442295.7764   19442299.2324
 96  7 12 20 44 59.9970000  0  7 17 26 23 22 28 16  6
  20679933.586   -25192155.56249 -19348647.28849  20679934.0844   20679939.3044
  22745599.204    -9977951.03049  -7521690.30149  22745600.1394   22745604.8284
  22457426.564   -12986430.84849  -9533581.54649  22457426.3784   22457433.0954
  23254967.945    -8822833.64649  -6851615.33249  23254968.9934   23254972.8354
  23730095.039    -7499406.820 9  -5823550.587 9  23730094.662    23730100.369
  21022548.676   -20510375.28349 -15969729.63749  21022548.0074   21022552.7334
  19439966.295   -32869746.20649 -25156607.94249  19439966.4944   19439970.6504
 96  7 12 20 45 29.9970000  0  7 17 26 23 22 28 16  6
  20667430.468   -25257860.54649 -19399845.94949  20667431.1304   20667436.4334
  22728579.051   -10067396.02349  -7591387.62049  22728578.9104   22728585.2964
  22436575.691   -13095999.62649  -9618959.73949  22436575.7744   22436581.7924
  23240135.518    -8900782.04149  -6912354.31349  23240133.8334   23240139.2514
  23708689.492    -7611896.140 9  -5911204.535 9  23708688.691    23708694.740
  21032915.893   -20455893.18349 -15927276.06749  21032915.7804   21032920.2734
  19437723.012   -32881534.95649 -25165793.97449  19437723.6124   19437727.5664
 96  7 12 20 45 59.9970000  0  7 17 26 23 22 28 16  6
  20654968.237   -25323348.62249 -19450875.59449  20654968.8284   20654974.3644
  22711600.058   -10156616.06549  -7660909.64749  22711601.4204   22711606.8064
  22415772.531   -13205323.26349  -9704146.92349  22415772.5404   22415778.0774
  23225381.992    -8978306.25849  -6972762.76549  23225381.3744   23225387.8134
  23687280.611    -7724393.706 9  -5998864.905 9  23687280.823    23687286.781
  21043362.315   -20400999.51449 -15884501.79549  21043361.5294   21043366.6434
  19435563.733   -32892885.34549 -25174638.43749  19435563.5094   19435567.6294
 96  7 12 20 46 29.9970000  0  7 17 26 23 22 28 16  6
  20642548.395   -25388617.97149 -19501734.80149  20642548.4994   20642553.7634
  22694667.571   -10245600.62649  -7730248.17449  22694667.6314   22694673.8154
  22395010.051   -13314430.99549  -9789165.86049  22395009.1594   22395016.7834
  23210714.419    -9055385.59849  -7032824.55249  23210714.0424   23210717.9954
  23665871.822    -7836899.504 9  -6086531.679 9  23665872.108    23665877.643
  21053886.247   -20345692.89449 -15841405.74149  21053886.1164   21053890.9144
  19433485.484   -32903805.07949 -25183147.31949  19433485.7914   19433489.6254
 96  7 12 20 46 59.9970000  0  7 17 26 23 22 28 16  6
  20630168.358   -25453672.85049 -19552426.88449  20630168.8684   20630174.1994
  22677779.440   -10334345.12149  -7799399.63149  22677780.5564   22677785.1534
  22374283.858   -13423346.91149  -9874035.34249  22374283.7484   22374290.1924
  23196130.329    -9132032.34649  -7092549.26849  23196128.6384   23196135.2994
  23644459.886    -7949423.919 9  -6174212.959 9  23644459.366    23644465.056
  21064487.129   -20289986.96749 -15797998.54449  21064486.5274   21064491.2094
  19431485.501   -32914315.95549 -25191337.61149  19431485.5624   19431489.3704
 96  7 12 20 47 29.9970000  0  7 17 26 23 22 28 16  6
  20617836.017   -25518480.72349 -19602926.50049  20617836.1234   20617841.4784
  22660936.687   -10422854.35549  -7868367.77549  22660937.1384   22660942.5374
  22353592.469   -13532081.47449  -9958763.50449  22353592.0104   22353597.7514
  23181625.743    -9208245.79749  -7151936.33449  23181626.7524   23181631.5164
  23623046.386    -8061953.047 9  -6261897.919 9  23623045.499    23623051.672
  21075166.731   -20233864.66249 -15754266.89249  21075166.5834   21075171.1594
  19429563.020   -32924417.26549 -25199208.76349  19429563.2704   19429567.1894
 96  7 12 20 47 59.9970000  0  7 17 26 23 22 28 16  6
  20605554.985   -25583018.50149 -19653215.64849  20605555.0274   20605560.6454
  22644137.850   -10511130.39149  -7937154.20749  22644138.5044   22644144.4474
  22332934.256   -13640638.67849 -10043353.46549  22332934.7434   22332940.3964
  23167204.832    -9284029.03749  -7210988.15449  23167204.5874   23167209.4624
  23601633.913    -8174476.265 9  -6349578.265 9  23601633.002    23601639.054
  21085926.794   -20177319.53549 -15710205.76549  21085926.4314   21085931.1464
  19427721.751   -32934093.18549 -25206748.44449  19427721.8764   19427725.7254
 96  7 12 20 48 29.9970000  0  7 17 26 23 22 28 16  6
  20593324.595   -25647289.26649 -19703296.73849  20593324.6214   20593330.3564
  22627382.467   -10599186.49949  -8005769.26649  22627382.0334   22627387.8604
  22312313.070   -13749003.66049 -10127793.64149  22312312.5554   22312319.5084
  23152864.889    -9359396.40849  -7269715.93849  23152862.4124   23152868.1244
  23580221.172    -8287000.115 9  -6437259.116 9  23580220.335    23580226.246
  21096764.287   -20120369.22949 -15665828.91849  21096763.9394   21096768.6444
  19425960.985   -32943345.25549 -25213957.84949  19425961.5454   19425965.2984
 96  7 12 20 48 59.9970000  0  7 17 26 23 22 28 16  6
  20581142.799   -25711304.71549 -19753178.87449  20581142.9594   20581148.4174
  22610664.451   -10687033.31549  -8074221.23549  22610665.1574   22610671.6184
  22291736.199   -13857137.90749 -10212054.03349  22291735.3114   22291742.0594
  23138600.649    -9434353.22149  -7328123.81549  23138598.5564   23138605.6354
  23558808.427    -8399521.297 9  -6524937.894 9  23558808.610    23558813.890
  21107678.241   -20063014.39449 -15621136.85049  21107677.9914   21107682.6324
  19424283.285   -32952162.46549 -25220828.39849  19424283.4844   19424287.3194
 96  7 12 20 49 29.9970000  0  7 17 26 23 22 28 16  6
  20569008.595   -25775069.60249 -19802865.76549  20569009.0784   20569014.0474
  22593988.716   -10774670.44449  -8142509.81049  22593988.2184   22593994.6044
  22271203.878   -13965033.04449 -10296128.09049  22271204.6314   22271209.9684
  23124412.941    -9508900.77449  -7386212.77049  23124412.3894   23124418.2004
  23537398.036    -8512035.348 9  -6612611.105 9  23537397.609    23537403.680
  21118668.308   -20005260.82149 -15576134.08049  21118668.0974   21118672.8604
  19422692.294   -32960523.71349 -25227343.65849  19422692.2484   19422696.1474
 96  7 12 20 49 59.9970000  0  7 17 26 23 22 28 16  6
  20556920.345   -25838594.79549 -19852365.88749  20556920.6694   20556925.7774
  22577359.483   -10862056.17549  -8210602.49549  22577359.5254   22577364.6924
  22250720.706   -14072673.22149 -10380003.46849  22250720.2424   22250727.3534
  23110305.403    -9583034.73149  -7443979.45749  23110305.1044   23110311.5654
  23515989.849    -8624537.152 9  -6700274.776 9  23515989.328    23515994.849
  21129731.837   -19947122.69049 -15530831.64849  21129731.5254   21129736.1574
  19421189.987   -32968415.95449 -25233493.45249  19421190.0494   19421194.3884
 96  7 12 20 50 29.9970000  0  7 17 26 23 22 28 16  6
  20544873.951   -25901900.15149 -19901694.71449  20544873.9804   20544878.9404
  22560778.656   -10949183.88449  -8278494.11649  22560779.4304   22560785.1834
  22230284.305   -14180065.59649 -10463685.76049  22230284.5174   22230290.9444
  23096275.613    -9656764.38349  -7501431.09049  23096274.7484   23096281.0764
  23494581.636    -8737039.489 9  -6787938.870 9  23494580.607    23494586.209
  21140865.007   -19888615.24749 -15485241.45549  21140865.1684   21140870.2144
  19419776.011   -32975848.21149 -25239284.82249  19419775.8614   19419780.4424
 96  7 12 20 50 59.9970000  0  7 17 26 23 22 28 16  6
  20532870.349   -25964978.47149 -19950846.62849  20532870.4664   20532875.5374
  22544253.034   -11036027.03649  -8346164.01449  22544254.5254   22544259.2344
  22209891.817   -14287231.96849 -10547191.96249  22209891.3294   22209897.0244
  23082324.381    -9730076.87649  -7558557.67949  23082323.9074   23082330.2304
  23473172.358    -8849540.737 9  -6875602.106 9  23473172.450    23473177.778
  21152070.116   -19829734.23449 -15439360.16549  21152069.8604   21152074.6664
  19418450.620   -32982813.10249 -25244712.01649  19418450.9054   19418454.7404
 96  7 12 20 51 29.9970000  0  7 17 26 23 22 28 16  6
  20520914.510   -26027804.26449 -19999801.76449  20520915.1394   20520920.2824
  22527787.423   -11122553.08949  -8413586.81749  22527788.9584   22527793.8894
  22189537.862   -14394192.69549 -10630537.90249  22189537.1654   22189543.8674
  23068454.553    -9802964.30349  -7615353.04549  23068454.7504   23068460.9404
  23451766.367    -8962032.218 9  -6963257.741 9  23451765.815    23451771.242
  21163347.831   -19770467.37049 -15393178.20749  21163347.8654   21163352.5854
  19417213.164   -32989313.67549 -25249777.40049  19417213.7164   19417217.5304
 96  7 12 20 51 59.9970000  0  7 17 26 23 22 28 16  6
  20509009.682   -26090366.60849 -20048551.62049  20509009.9314   20509014.9894
  22511382.918   -11208759.28349  -8480760.38649  22511383.4374   22511388.6994
  22169221.548   -14500952.34649 -10713727.17049  22169221.2054   22169227.5024
  23054668.941    -9875410.10549  -7671804.28949  23054668.7114   23054672.5624
  23430362.194    -9074510.139 9  -7050902.810 9  23430362.062    23430367.274
  21174701.590   -19710804.78849 -15346687.90449  21174701.5004   21174706.2764
  19416061.535   -32995368.55849 -25254495.49249  19416061.7464   19416065.4614
 96  7 12 20 52 29.9970000  0  7 17 26 23 22 28 16  6
  20497154.541   -26152664.12149 -20097095.11049  20497155.1594   20497160.1964
  22495034.409   -11294674.45049  -8547707.16349  22495034.9564   22495040.1254
  22148942.179   -14607521.41949 -10796767.93249  22148941.1884   22148948.2014
  23040969.251    -9947411.38249  -7727909.15349  23040966.6444   23040971.2104
  23408959.647    -9186980.471 9  -7138541.957 9  23408959.651    23408965.173
  21186131.313   -19650739.87649 -15299884.09349  21186131.2194   21186136.0434
  19414990.085   -33000997.71449 -25258881.85449  19414990.2534   19414994.4414
 96  7 12 20 52 59.9970000  0  7 17 26 23 22 28 16  6
  20485348.526   -26214706.36849 -20145439.69249  20485348.8904   20485354.1814
  22478738.309   -11380307.12149  -8614433.82549  22478739.0834   22478744.7594
  22128698.797   -14713901.54049 -10879661.45949  22128698.6044   22128704.3514
  23027351.959   -10018965.40549  -7783665.49949  23027350.5624   23027354.8954
  23387559.586    -9299440.027 9  -7226172.723 9  23387558.975    23387564.642
  21197635.340   -19590285.66149 -15252776.93149  21197634.8614   21197640.1784
  19413996.496   -33006217.09949 -25262948.91649  19413996.9854   19414001.4084
 96  7 12 20 53 29.9970000  0  7 17 26 23 22 28 16  6
  20473586.723   -26276512.42349 -20193600.22749  20473587.5154   20473592.7734
  22462492.589   -11465680.34449  -8680958.32349  22462493.6104   22462498.6294
  22108496.052   -14820066.98049 -10962387.69049  22108495.1564   22108501.7834
  23013819.862   -10090075.66449  -7839076.06449  23013819.4034   23013823.5804
  23366162.292    -9411885.068 9  -7313792.174 9  23366161.975    23366167.114
  21209209.395   -19529463.95049 -15205383.40749  21209209.2454   21209214.2324
  19413080.810   -33011030.50249 -25266699.62449  19413081.1004   19413085.1954
 96  7 12 20 53 59.9970000  0  7 17 26 23 22 28 16  6
  20461867.226   -26338099.75349 -20241590.33149  20461867.6634   20461872.9184
  22446295.169   -11550800.42149  -8747285.57149  22446294.7384   22446300.9824
  22088340.511   -14925982.71149 -11044919.34549  22088340.7424   22088346.5624
  23000374.802   -10160725.34249  -7894127.73749  23000373.8404   23000380.1034
  23344768.733    -9524306.409 9  -7401393.157 9  23344768.463    23344774.003
  21220851.622   -19468285.24549 -15157711.70549  21220851.1764   21220856.1004
  19412244.513   -33015424.82949 -25270123.77449  19412244.7554   19412248.9504
 96  7 12 20 54 29.9970000  0  7 17 26 23 22 28 16  6
  20450182.698   -26399502.33449 -20289436.47349  20450182.9964   20450188.5774
  22430142.026   -11635684.38949  -8813428.84149  22430143.1174   22430147.1214
  22068232.467   -15031654.06349 -11127260.58149  22068232.5524   22068238.2614
  22987013.742   -10230940.00449  -7948840.42749  22987013.8604   22987019.1044
  23323376.691    -9636721.356 9  -7488989.162 9  23323376.535    23323382.286
  21232556.115   -19406777.11349 -15109783.30749  21232555.7184   21232560.8394
  19411487.869   -33019400.60049 -25273221.78049  19411488.3394   19411492.2994
 96  7 12 20 54 59.9970000  0  7 17 26 23 22 28 16  6
  20438531.870   -26460726.47249 -20337143.57349  20438532.7244   20438537.9304
  22414036.448   -11720317.31849  -8879376.49949  22414037.3424   22414042.9354
  22048172.322   -15137069.84549 -11209402.68949  22048171.7814   22048177.3574
  22973735.530   -10300718.95449  -8003213.60349  22973734.7994   22973740.6534
  23301987.862    -9749119.798 9  -7576572.304 9  23301987.687    23301993.419
  21244323.275   -19344939.34749 -15061598.05349  21244323.4764   21244328.3254
  19410814.474   -33022939.32349 -25275979.22949  19410814.8354   19410818.8944
 96  7 12 20 55 29.9970000  0  7 17 26 23 22 28 16  6
  20426919.314   -26521752.91549 -20384696.61949  20426919.6434   20426924.9024
  22397981.877   -11804684.72149  -8945117.24949  22397982.8974   22397987.4874
  22028165.564   -15242204.19049 -11291325.48449  22028165.5904   22028171.1624
  22960539.911   -10370058.88849  -8057244.67949  22960538.6764   22960545.2124
  23280603.906    -9861494.150 9  -7664136.668 9  23280603.346    23280609.267
  21256157.868   -19282748.62549 -15013137.77049  21256157.8124   21256162.5214
  19410228.141   -33026022.06949 -25278381.37249  19410228.2104   19410232.4524
 96  7 12 20 55 59.9970000  0  7 17 26 23 22 28 16  6
  20415345.498   -26582574.60649 -20432090.12449  20415345.7694   20415350.8904
  22381980.799   -11888770.50349  -9010638.56149  22381981.5244   22381986.2284
  22008207.684   -15347084.95849 -11373050.70149  22008207.5084   22008213.4204
  22947427.845   -10438967.72549  -8110939.86249  22947425.6514   22947431.8664
  23259222.629    -9973852.397 9  -7751688.477 9  23259222.270    23259227.967
  21268063.092   -19220185.88449 -14964387.60149  21268063.2234   21268067.6874
  19409725.602   -33028664.34749 -25280440.29749  19409725.7404   19409729.4214
 96  7 12 20 56 29.9970000  0  7 17 26 23 22 28 16  6
  20403815.739   -26643162.33549 -20479301.31949  20403816.2294   20403821.1524
  22366035.351   -11972562.55549  -9075930.98949  22366035.9214   22366041.2154
  21988294.914   -15451725.39149 -11454588.64149  21988294.6364   21988300.7394
  22934395.931   -10507445.91749  -8164299.45749  22934395.1074   22934400.5614
  23237846.535   -10086189.012 9  -7839223.440 9  23237845.151    23237850.551
  21280043.109   -19157231.96749 -14915332.62049  21280043.0604   21280047.5214
  19409307.033   -33030862.29449 -25282152.98349  19409307.3294   19409311.2914
 96  7 12 20 56 59.9970000  0  7 17 26 23 22 28 16  6
  20392333.638   -26703501.45749 -20526318.79549  20392333.9024   20392338.9314
  22350148.683   -12056049.00949  -9140985.29849  22350149.6654   22350154.6674
  21968428.727   -15556122.24049 -11535936.77249  21968428.9024   21968435.0934
  22921447.232   -10575488.79149  -8217319.85649  22921446.8104   22921453.3474
  23216472.349   -10198506.217 9  -7926743.275 9  23216471.770    23216477.555
  21292095.693   -19093895.91249 -14865979.87149  21292095.4864   21292099.8574
  19408972.799   -33032619.66649 -25283522.35949  19408972.9854   19408976.7344
 96  7 12 20 57 29.9970000  0  7 17 26 23 22 28 16  6
  20380906.604   -26763550.85549 -20573110.51249  20380906.9034   20380911.7384
  22334327.404   -12139190.30849  -9205770.66549  22334328.1174   22334332.5554
  21948613.186   -15660252.32749 -11617077.03249  21948613.3964   21948619.5324
  22908589.893   -10643062.77049  -8269974.87749  22908588.1274   22908594.6594
  23195107.590   -10310776.597 9  -8014226.622 9  23195107.755    23195112.998
  21304224.899   -19030157.87549 -14816313.89049  21304224.3854   21304228.9774
  19408727.407   -33033908.80449 -25284526.88549  19408727.6294   19408731.4824
 96  7 12 20 57 59.9970000  0  7 17 26 23 22 28 16  6
  20369528.613   -26823341.73649 -20619700.78049  20369529.3824   20369534.3234
  22318567.861   -12222007.15649  -9270303.20849  22318568.9404   22318573.0654
  21928839.260   -15764166.70749 -11698049.21649  21928838.8404   21928845.1354
  22895817.567   -10710180.20849  -8322274.14649  22895815.7054   22895822.6334
  23173747.836   -10423025.123 9  -8101692.950 9  23173747.355    23173752.921
  21316421.720   -18966061.29249 -14766368.51749  21316421.4344   21316426.5124
  19408565.574   -33034759.69549 -25285189.91849  19408565.6364   19408569.8064
 96  7 12 20 58 29.9970000  0  7 17 26 23 22 28 16  6
  20358201.507   -26882864.76449 -20666082.33649  20358202.1264   20358207.1594
  22302870.397   -12304498.41549  -9334582.03949  22302870.3764   22302875.3754
  21909108.811   -15867850.21749 -11778841.48649  21909108.6074   21909114.2244
  22883137.333   -10776822.44749  -8374203.14549  22883134.9294   22883140.4304
  23152393.828   -10535238.988 9  -8189132.274 9  23152393.746    23152398.824
  21328681.411   -18901636.74549 -14716167.59349  21328681.3484   21328686.0854
  19408491.416   -33035147.65749 -25285492.22349  19408491.8274   19408496.2424
 96  7 12 20 58 59.9970000  0  7 17 26 23 22 28 16  6
  20346922.226   -26942138.47949 -20712269.62249  20346922.6164   20346928.0264
  22287233.976   -12386665.81149  -9398608.51249  22287234.7474   22287239.6284
  21889423.888   -15971296.97549 -11859449.28949  21889423.5804   21889429.3974
  22870541.879   -10842994.83249  -8425765.99749  22870542.2754   22870548.4344
  23131046.719   -10647418.863 9  -8276545.104 9  23131046.482    23131051.614
  21340999.291   -18836906.97549 -14665728.83049  21340998.6864   21341003.5084
  19408506.995   -33035065.93049 -25285428.54149  19408507.4234   19408511.5104
 96  7 12 20 59 29.9970000  0  7 17 26 23 22 28 16  6
  20335685.590   -27001187.18549 -20758281.58449  20335685.9764   20335691.2704
  22271653.307   -12468543.20249  -9462409.00549  22271654.3354   22271659.1624
  21869778.674   -16074530.77549 -11939891.14949  21869778.7134   21869784.8224
  22858037.581   -10908715.03149  -8476976.53449  22858037.0204   22858042.1644
  23109703.616   -10759576.382 9  -8363940.538 9  23109703.705    23109708.702
  21353372.218   -18771886.04649 -14615063.19249  21353371.6054   21353376.4894
  19408607.376   -33034539.17449 -25285018.08449  19408607.5484   19408611.8644
 96  7 12 20 59 59.9970000  0  7 17 26 23 22 28 16  6
  20324482.791   -27060059.19249 -20804155.85249  20324483.0294   20324488.3114
  22256117.392   -12550187.40249  -9526027.79349  22256118.1564   22256123.2044
  21850167.798   -16177589.81449 -12020196.82149  21850167.0854   21850173.1344
  22845608.179   -10974031.77549  -8527872.68049  22845607.1904   22845612.4624
  23088356.869   -10871756.150 9  -8451353.292 9  23088356.563    23088361.831
  21365793.102   -18706614.27249 -14564202.09349  21365792.6004   21365797.1484
  19408781.854   -33033622.34249 -25284303.67049  19408781.8404   19408786.1804
 96  7 12 21  0 29.9970000  0  7 17 26 23 22 28 16  6
  20313329.064   -27118672.85149 -20849828.81349  20313329.0574   20313334.4574
  22240639.297   -12631524.22349  -9589407.05349  22240638.9884   22240644.1914
  21830609.237   -16280367.00249 -12100282.87249  21830609.4564   21830615.3814
  22833267.315   -11038884.67849  -8578407.39049  22833267.4584   22833272.1044
  23067020.051   -10983878.903 9  -8538721.625 9  23067020.020    23067025.259
  21378277.860   -18641005.73049 -14513078.57749  21378277.7364   21378282.2704
  19409046.437   -33032234.77049 -25283222.45349  19409046.3094   19409050.2404
 96  7 12 21  0 59.9970000  0  7 17 26 23 22 28 16  6
  20302225.701   -27177019.34249 -20895293.59749  20302226.1964   20302231.5094
  22225222.005   -12712541.77849  -9652537.53349  22225222.8984   22225228.1704
  21811112.692   -16382822.70149 -12180118.42049  21811112.6214   21811118.3764
  22821014.634   -11103270.96749  -8628578.50549  22821013.9184   22821019.9564
  23045697.482   -11095932.854 9  -8626036.342 9  23045697.131    23045702.387
  21390834.307   -18575022.23849 -14461662.89949  21390833.7654   21390839.1414
  19409399.648   -33030377.18949 -25281774.99249  19409399.6914   19409404.0984
 96  7 12 21  1 29.9970000  0  7 17 26 23 22 28 16  6
  20291167.632   -27235129.98749 -20940574.60049  20291167.8564   20291173.4014
  22209859.079   -12793274.60649  -9715446.15749  22209859.6654   22209864.5054
  21791670.864   -16484991.40549 -12259730.33349  21791671.0444   21791675.9664
  22808843.808   -11167224.88749  -8678412.70249  22808843.6054   22808848.5724
  23024379.879   -11207959.600 9  -8713329.852 9  23024378.937    23024384.046
  21403455.583   -18508695.65349 -14409979.87049  21403455.1324   21403460.3304
  19409831.883   -33028104.55349 -25280004.11149  19409832.3574   19409836.6614
 96  7 12 21  1 59.9970000  0  7 17 26 23 22 28 16  6
  20280158.088   -27292986.39949 -20985657.50349  20280158.2544   20280163.5734
  22194556.786   -12873687.50549  -9778105.46749  22194557.4254   22194562.8574
  21772286.515   -16586856.68149 -12339105.80949  21772285.5774   21772291.8054
  22796761.050   -11230722.11249  -8727891.04349  22796760.5884   22796765.3594
  23003070.506   -11319939.511 9  -8800586.873 9  23003069.987    23003075.430
  21416146.098   -18442007.80049 -14358015.34049  21416145.8944   21416150.7984
  19410349.981   -33025381.62049 -25277882.35649  19410349.8924   19410354.4414
 96  7 12 21  2 29.9970000  0  7 17 26 23 22 28 16  6
  20269196.401   -27350590.23449 -21030543.59349  20269196.5944   20269201.4984
  22179317.498   -12953770.14649  -9840507.44649  22179317.7874   22179323.5534
  21752961.080   -16688413.01249 -12418240.56149  21752960.4104   21752966.1384
  22784768.240   -11293744.10149  -8776999.07349  22784768.1314   22784772.9924
  22981771.271   -11431866.619 9  -8887802.741 9  22981770.788    22981776.107
  21428903.590   -18374965.14649 -14305774.33849  21428903.4234   21428908.6444
  19410956.605   -33022194.53549 -25275398.92949  19410956.8414   19410960.5894
 96  7 12 21  2 59.9970000  0  7 17 26 23 22 28 16  6
  20258283.264   -27407941.51249 -21075232.88749  20258283.2814   20258288.1024
  22164143.351   -13033509.01849  -9902641.54849  22164144.0934   22164149.5914
  21733690.054   -16789681.84949 -12497151.29249  21733689.8054   21733695.5784
  22772871.296   -11356265.69849  -8825717.17349  22772871.1804   22772876.8784
  22960482.963   -11543735.125 9  -8974972.948 9  22960482.982    22960488.168
  21441729.053   -18307567.94649 -14253257.05949  21441728.5674   21441734.1614
  19411652.136   -33018541.73749 -25272552.60149  19411651.9084   19411656.0804
 96  7 12 21  3 29.9970000  0  7 17 26 23 22 28 16  6
  20247419.431   -27465031.15549 -21119718.31349  20247419.5384   20247424.2544
  22149039.164   -13112884.73249  -9964492.66449  22149039.5294   22149044.9174
  21714470.606   -16890680.47249 -12575851.45849  21714470.0154   21714476.0614
  22761073.125   -11418260.51249  -8874024.79349  22761073.4174   22761079.3804
  22939208.898   -11655529.679 9  -9062085.530 9  22939209.091    22939214.076
  21454622.026   -18239814.03649 -14200461.83049  21454622.0774   21454626.9304
  19412438.919   -33014405.19249 -25269329.32849  19412439.4204   19412443.1204
 96  7 12 21  3 59.9970000  0  7 17 26 23 22 28 16  6
  20236600.416   -27521885.63949 -21164020.49449  20236600.5944   20236605.3554
  22134000.518   -13191911.46149 -10026071.84849  22134001.2094   22134005.9444
  21695297.964   -16991433.81149 -12654360.50449  21695297.6824   21695302.8334
  22749371.776   -11479753.64449  -8921941.48749  22749371.1904   22749377.2894
  22917946.233   -11767269.154 9  -9149155.189 9  22917945.876    22917950.791
  21467576.885   -18171736.47949 -14147414.39949  21467576.7444   21467581.3724
  19413315.322   -33009801.56549 -25265742.09249  19413315.1624   19413319.1824
 96  7 12 21  4 29.9970000  0  7 17 26 23 22 28 16  6
  20225831.359   -27578476.54849 -21208117.29049  20225831.7734   20225836.1744
  22119035.864   -13270553.72649 -10087351.44649  22119036.3004   22119040.0214
  21676178.048   -17091908.55549 -12732652.45949  21676177.1304   21676183.0334
  22737768.593   -11540728.82349  -8969454.57449  22737768.2984   22737773.5794
  22896697.176   -11878931.982 9  -9236165.126 9  22896696.881    22896701.948
  21480595.102   -18103327.80049 -14094108.95749  21480594.2164   21480599.8604
  19414282.313   -33004720.76549 -25261783.03749  19414282.1794   19414286.1154
 96  7 12 21  4 59.9970000  0  7 17 26 23 22 28 16  6
  20215116.645   -27634782.36049 -21251991.93549  20215117.1524   20215121.7014
  22104146.237   -13348797.56949 -10148320.59349  22104146.7144   22104151.9644
  21657112.839   -17192095.64649 -12810720.27149  21657112.6444   21657118.1894
  22726263.437   -11601193.94849  -9016570.24349  22726261.6164   22726266.6804
  22875465.836   -11990504.952 9  -9323105.034 9  22875465.311    22875470.045
  21493678.078   -18034573.61849 -14040534.29449  21493677.9544   21493683.0094
  19415343.397   -32999142.97749 -25257436.71849  19415343.4274   19415347.7374
 96  7 12 21  5 29.9970000  0  7 17 26 23 22 28 16  6
  20204449.767   -27690837.51249 -21295671.26249  20204449.9574   20204454.7544
  22089326.536   -13426674.95349 -10209004.19349  22089326.5604   22089331.5794
  21638098.890   -17292014.87649 -12888579.37249  21638098.6644   21638103.9264
  22714846.041   -11661192.22749  -9063322.12349  22714845.0584   22714850.0864
  22854244.715   -12102018.751 9  -9409998.850 9  22854244.806    22854249.697
  21506820.840   -17965510.94749 -13986719.24849  21506820.0034   21506824.8964
  19416495.915   -32993086.32049 -25252717.25649  19416495.8434   19416500.1524
 96  7 12 21  5 59.9970000  0  7 17 26 23 22 28 16  6
  20193834.576   -27746621.17449 -21339139.03849  20193834.7684   20193839.5734
  22074579.193   -13504170.75849 -10269390.45749  22074579.3414   22074585.3504
  21619140.620   -17391643.34349 -12966211.88349  21619139.5534   21619145.4414
  22703516.000   -11720726.26249  -9109712.24349  22703516.0164   22703521.1274
  22833037.883   -12213462.084 9  -9496837.759 9  22833037.653    22833042.952
  21520022.483   -17896133.51249 -13932658.93249  21520022.3374   21520027.6334
  19417740.998   -32986543.06349 -25247618.62149  19417741.0134   19417745.4484
 96  7 12 21  6 29.9970000  0  7 17 26 23 22 28 16  6
  20183270.307   -27802135.30049 -21382396.79049  20183270.8164   20183275.4804
  22059902.235   -13581298.49649 -10329489.92049  22059902.7934   22059907.4224
  21600236.364   -17490983.97249 -13043620.11849  21600236.2014   21600241.1444
  22692278.259   -11779788.74649  -9155734.93249  22692277.0514   22692281.8934
  22811845.421   -12324833.715 9  -9583620.778 9  22811844.339    22811849.685
  21533286.276   -17826433.18149 -13878347.01149  21533285.6254   21533290.7244
  19419079.460   -32979509.99249 -25242138.31049  19419079.6384   19419083.9174
 96  7 12 21  6 59.9970000  0  7 17 26 23 22 28 16  6
  20172754.805   -27857394.45849 -21425455.85949  20172755.1614   20172760.3404
  22045292.813   -13658072.79249 -10389313.96449  22045293.7764   22045298.0544
  21581387.163   -17590037.49049 -13120804.64149  21581386.7674   21581392.1724
  22681127.983   -11838384.81949  -9201394.20549  22681125.3854   22681131.6574
  22790664.823   -12436136.985 9  -9670350.556 9  22790664.126    22790669.203
  21546610.626   -17756411.94949 -13823785.03549  21546610.4934   21546615.5164
  19420509.661   -32971995.75149 -25236283.06949  19420509.2104   19420513.6084
 96  7 12 21  7 29.9970000  0  7 17 26 23 22 28 16  6
  20162284.056   -27912417.77349 -21468331.15949  20162284.5584   20162289.4474
  22030750.353   -13734491.16949 -10448860.68149  22030751.1134   22030755.7024
  21562593.976   -17688797.58149 -13197760.51949  21562592.9774   21562598.1724
  22670067.300   -11896501.51349  -9246679.89949  22670067.3254   22670072.3464
  22769495.821   -12547378.416 9  -9757032.133 9  22769495.490    22769500.906
  21559991.070   -17686096.66749 -13768993.92649  21559990.7834   21559996.3014
  19422024.320   -32964031.16149 -25230076.90149  19422024.9534   19422028.8374
 96  7 12 21  7 59.9970000  0  7 17 26 23 22 28 16  6
  20151857.652   -27967210.53949 -21511026.81049  20151857.7474   20151862.7184
  22016275.931   -13810555.96449 -10508131.88349  22016276.1844   22016280.9434
  21543855.762   -17787265.76249 -13274488.93949  21543855.7514   21543860.9514
  22659099.237   -11954137.35049  -9291590.92949  22659098.9204   22659103.9564
  22748338.132   -12658563.275 9  -9843669.626 9  22748337.733    22748343.154
  21573424.236   -17615505.96449 -13713988.20549  21573423.7344   21573428.9434
  19423620.916   -32955642.78249 -25223540.51049  19423621.1834   19423625.2674
 96  7 12 21  8 29.9970000  0  7 17 26 23 22 28 16  6
  20141475.591   -28021768.36449 -21553539.38449  20141475.7594   20141480.9604
  22001871.329   -13886251.68849 -10567115.49549  22001872.2684   22001876.3974
  21525176.383   -17885429.45449 -13350980.08049  21525175.3094   21525180.6044
  22648230.818   -12011260.40649  -9336102.40349  22648229.3054   22648234.3554
  22727195.525   -12769670.187 9  -9930246.379 9  22727194.561    22727199.977
  21586911.595   -17544629.67949 -13658759.95249  21586911.4184   21586916.2384
  19425303.286   -32946801.93849 -25216651.54949  19425303.8104   19425307.7724
 96  7 12 21  8 59.9970000  0  7 17 26 23 22 28 16  6
  20131134.413   -28076111.44949 -21595884.63049  20131134.7244   20131139.5894
  21987536.358   -13961583.13749 -10625815.26049  21987536.8744   21987541.5274
  21506551.442   -17983301.12449 -13427243.67949  21506551.3024   21506556.2194
  22637456.554   -12067878.97949  -9380220.73249  22637454.2694   22637461.2034
  22706065.885   -12880707.896 9 -10016769.201 9  22706064.885    22706070.226
  21600449.414   -17473488.47749 -13603325.27149  21600449.1694   21600454.0024
  19427068.174   -32937528.77549 -25209425.71449  19427068.1044   19427072.3474
 96  7 12 21  9 29.9970000  0  7 17 26 23 22 28 16  6
  20120838.451   -28130215.62749 -21638043.72549  20120839.0034   20120843.9994
  21973273.706   -14036534.10249 -10684218.54649  21973274.7884   21973278.5004
  21487982.724   -18080880.31049 -13503279.37049  21487982.5724   21487988.0784
  22626782.030   -12123970.67549  -9423928.53049  22626780.4544   22626786.5604
  22684953.005   -12991654.496 9 -10103221.045 9  22684952.381    22684957.589
  21614042.729   -17402054.48149 -13547662.43949  21614042.2754   21614047.5704
  19428919.279   -32927799.34849 -25201844.35949  19428920.0744   19428923.7794
 96  7 12 21  9 59.9970000  0  7 17 26 23 22 28 16  6
  20110588.648   -28184080.45649 -21680016.30549  20110588.7434   20110593.7824
  21959080.640   -14111119.16049 -10742336.71149  21959081.2664   21959085.2424
  21469464.920   -18178192.69649 -13579107.15949  21469464.2124   21469469.8944
  22616204.114   -12179556.67549  -9467242.27549  22616203.0024   22616208.0254
  22663858.181   -13102508.846 9 -10189601.000 9  22663857.686    22663862.337
  21627695.274   -17330311.45849 -13491758.80849  21627694.4174   21627699.8104
  19430859.595   -32917601.43549 -25193897.94749  19430860.3124   19430864.4314
 96  7 12 21 10 29.9970000  0  7 17 26 23 22 28 16  6
  20100382.897   -28237712.54549 -21721807.53449  20100382.8784   20100387.9064
  21944956.952   -14185339.62349 -10800170.78549  21944957.0034   21944961.6404
  21450995.621   -18275245.04149 -13654732.32449  21450995.7674   21451001.6724
  22605717.560   -12234655.97949  -9510176.78749  22605717.9784   22605724.5034
  22642779.241   -13213276.918 9 -10275913.745 9  22642779.096    22642783.915
  21641405.344   -17258262.94249 -13435617.12549  21641405.2954   21641410.2314
  19432891.259   -32906928.73649 -25185581.57249  19432891.5204   19432895.4834
 96  7 12 21 10 59.9970000  0  7 17 26 23 22 28 16  6
  20090226.686   -28291083.05849 -21763394.93649  20090226.9564   20090231.9624
  21930909.080   -14259162.23449 -10857694.85149  21930909.3424   21930913.4014
  21432583.691   -18372002.38849 -13730127.60749  21432583.1344   21432589.6794
  22595330.418   -12289251.88149  -9552719.04449  22595328.9444   22595334.5494
  22621720.704   -13323939.672 9 -10362144.408 9  22621720.545    22621725.651
  21655178.067   -17185887.69449 -13379220.84649  21655177.7894   21655182.8024
  19435014.371   -32895772.11549 -25176888.11949  19435014.2024   19435018.5674
 96  7 12 21 11 29.9970000  0  7 17 26 23 22 28 16  6
  20080117.489   -28344208.07149 -21804791.03949  20080117.6024   20080122.6734
  21916933.424   -14332603.78549 -10914921.98249  21916934.0324   21916937.6654
  21414222.438   -18468490.81749 -13805313.34649  21414222.4584   21414228.0334
  22585027.394   -12343383.47149  -9594899.48249  22585027.2914   22585034.5264
  22600676.565   -13434527.716 9 -10448316.859 9  22600676.510    22600681.423
  21669005.099   -17113224.69849 -13322600.34849  21669004.8264   21669009.8854
  19437226.986   -32884142.93949 -25167826.43949  19437227.1534   19437231.6754
 96  7 12 21 11 59.9970000  0  7 17 26 23 22 28 16  6
  20070056.507   -28397077.15549 -21845987.71649  20070056.8434   20070061.8454
  21903036.115   -14405634.73049 -10971829.17249  21903036.8924   21903040.9234
  21395920.383   -18564669.55049 -13880257.77149  21395920.3784   21395925.7964
  22574820.937   -12397029.19649  -9636701.34549  22574819.6114   22574824.2104
  22579649.197   -13545025.762 9 -10534419.184 9  22579649.240    22579654.339
  21682886.906   -17040275.91049 -13265757.15849  21682886.5394   21682892.1654
  19439533.582   -32872020.80149 -25158380.63349  19439533.8224   19439538.0854
 96  7 12 21 12 29.9970000  0  7 17 26 23 22 28 16  6
  20060047.417   -28449676.00749 -21886973.83049  20060047.9364   20060052.5004
  21889221.370   -14478230.12749 -11028396.98149  21889222.3464   21889226.7364
  21377685.144   -18660497.69449 -13954929.01149  21377684.7224   21377689.9444
  22564711.748   -12450153.90249  -9678097.21749  22564709.8224   22564716.0084
  22558642.299   -13655419.842 9 -10620440.493 9  22558641.775    22558647.049
  21696823.358   -16967038.20349 -13208688.83149  21696823.4674   21696828.5714
  19441936.551   -32859394.91049 -25148542.29549  19441936.7794   19441940.9884
 96  7 12 21 12 59.9970000  0  7 17 26 23 22 28 16  6
  20050087.530   -28502013.77649 -21927756.49549  20050088.0294   20050092.8914
  21875486.327   -14550408.31649 -11084639.67849  21875487.2774   21875491.3314
  21359515.630   -18755979.68249 -14029330.50849  21359514.8284   21359520.4104
  22554701.180   -12502752.47449  -9719083.10149  22554700.7894   22554707.4494
  22537654.327   -13765716.051 9 -10706385.539 9  22537653.145    22537658.402
  21710815.529   -16893509.94049 -13151394.10249  21710815.2874   21710820.0914
  19444433.338   -32846275.90049 -25138319.70549  19444433.2234   19444437.3584
 96  7 12 21 13 29.9970000  0  7 17 26 23 22 28 16  6
  20040174.348   -28554109.45549 -21968350.52049  20040174.7014   20040179.7174
  21861824.975   -14622200.99249 -11140581.98949  21861825.7254   21861829.5724
  21341407.868   -18851133.72449 -14103476.47149  21341407.4544   21341413.0314
  22544787.803   -12554847.12749  -9759676.33349  22544787.9694   22544793.0824
  22516681.527   -13875924.405 9 -10792262.145 9  22516681.339    22516686.369
  21724859.839   -16819704.78649 -13093883.61349  21724859.2744   21724865.5144
  19447019.690   -32832683.64649 -25127728.35649  19447019.3554   19447024.0614
 96  7 12 21 13 59.9970000  0  7 17 26 23 22 28 16  6
  20030306.697   -28605963.45049 -22008756.21649  20030306.9224   20030311.9824
  21848235.905   -14693609.69149 -11196225.10649  21848236.8174   21848240.9854
  21323366.653   -18945940.26249 -14177351.65249  21323366.7714   21323372.3094
  22534975.507   -12606420.47549  -9799863.34749  22534973.4954   22534979.0704
  22495728.861   -13986030.686 9 -10878059.203 9  22495728.624    22495733.585
  21738960.179   -16745609.25249 -13036146.85749  21738959.6474   21738965.3524
  19449695.027   -32818622.63649 -25116771.73749  19449695.4394   19449699.6664
 96  7 12 21 14 29.9970000  0  7 17 26 23 22 28 16  6
  20020484.181   -28657579.61349 -22048976.59149  20020484.7074   20020489.7244
  21834717.183   -14764651.24249 -11251582.12949  21834717.2984   21834722.0954
  21305385.105   -19040433.81849 -14250982.95349  21305384.8234   21305390.7694
  22525255.373   -12657492.53649  -9839659.73049  22525255.3684   22525260.3224
  22474792.902   -14096047.486 9 -10963786.541 9  22474793.116    22474798.368
  21753113.947   -16671232.03449 -12978190.60249  21753113.7814   21753118.9484
  19452457.551   -32804108.02749 -25105461.66749  19452457.4774   19452461.6124
 96  7 12 21 14 59.9970000  0  7 17 26 23 22 28 16  6
  20010716.335   -28708911.17449 -22088975.20549  20010716.7054   20010721.3634
  21821277.639   -14835274.82049 -11306613.45449  21821277.8444   21821283.1914
  21287469.193   -19134582.51449 -14324345.53649  21287469.1384   21287474.5564
  22515635.772   -12708039.13649  -9879046.69349  22515635.2104   22515641.4644
  22453883.740   -14205927.413 9 -11049407.213 9  22453883.615    22453888.879
  21767327.861   -16596537.75749 -12919987.29249  21767327.1884   21767332.4314
  19455314.026   -32789095.06349 -25093763.27149  19455314.3984   19455318.4344
 96  7 12 21 15 29.9970000  0  7 17 26 23 22 28 16  6
  20000994.191   -28760002.32349 -22128786.47549  20000994.1544   20000999.3874
  21807912.277   -14905512.36649 -11361343.97049  21807912.4594   21807917.0084
  21269606.133   -19228452.41249 -14397490.87649  21269606.3774   21269611.8764
  22506105.933   -12758119.08049  -9918070.01649  22506106.6094   22506111.4154
  22432989.859   -14315724.709 9 -11134963.496 9  22432989.497    22432995.126
  21781586.540   -16521608.19749 -12861600.63949  21781585.8834   21781591.2444
  19458255.545   -32773638.94649 -25081719.55249  19458255.6064   19458259.7304
 96  7 12 21 15 59.9970000  0  7 17 26 23 22 28 16  6
  19991321.177   -28810833.82149 -22168395.42649  19991321.4504   19991326.2884
  21794626.149   -14975332.55649 -11415749.27649  21794626.4894   21794630.7024
  21251796.665   -19322043.91149 -14470419.28149  21251796.5764   21251802.0894
  22496669.160   -12807714.03649  -9956715.43449  22496668.5084   22496673.7044
  22412113.487   -14425431.788 9 -11220449.485 9  22412112.980    22412118.578
  21795891.281   -16446436.82749 -12803025.55749  21795890.8764   21795896.0764
  19461284.459   -32757722.01949 -25069316.76849  19461284.2924   19461288.7444
 96  7 12 21 16 29.9970000  0  7 17 26 23 22 28 16  6
  19981703.568   -28861373.86049 -22207777.26549  19981703.9934   19981709.0074
  21781424.253   -15044705.26549 -11469805.89949  21781425.1524   21781429.1554
  21234044.525   -19415330.67249 -14543110.22549  21234044.3864   21234050.0864
  22487328.347   -12856806.58049  -9994969.35249  22487325.7664   22487331.3714
  22391258.926   -14535021.771 9 -11305844.227 9  22391258.659    22391264.176
  21810247.158   -16370995.68149 -12744240.27049  21810246.1804   21810251.5534
  19464405.433   -32741319.38349 -25056535.50849  19464406.0954   19464409.9014
 96  7 12 21 16 59.9970000  0  7 17 26 23 22 28 16  6
  19972132.931   -28911669.40449 -22246968.59149  19972133.2974   19972138.2204
  21768302.703   -15113662.26249 -11523538.59849  21768303.0074   21768306.6564
  21216349.002   -19508321.85349 -14615570.84749  21216348.5504   21216353.6554
  22478077.389   -12905413.06949 -10032844.53449  22478076.5484   22478082.7534
  22370421.616   -14644521.719 9 -11391168.810 9  22370421.467    22370426.940
  21824646.473   -16295324.20649 -12685275.51149  21824646.4024   21824651.0684
  19467612.624   -32724466.79849 -25043403.63949  19467612.6624   19467617.1214
 96  7 12 21 17 29.9960000  0  7 17 26 23 22 28 16  6
  19962608.417   -28961720.68149 -22285969.57649  19962608.6384   19962613.3314
  21755260.958   -15182197.89249 -11576942.95549  21755261.3854   21755265.2144
  21198711.532   -19601007.37849 -14687793.29149  21198711.5264   21198716.8404
  22468926.950   -12953504.15249 -10070318.10349  22468925.4384   22468929.4964
  22349604.335   -14753918.409 9 -11476412.936 9  22349604.103    22349609.354
  21839092.755   -16219412.02949 -12626123.18749  21839091.9934   21839097.0564
  19470906.308   -32707157.98949 -25029916.26949  19470906.7664   19470910.7164
